[[{"header":{"parameterUnit":"m.s-1","parameterCategory":1,"la1":30.6,"la2":29.2853,"lo1":-89.7004,"lo2":-87.6739,"dy":0.0162,"dx":0.0183,"nx":112,"ny":82,"refTime":"2024-04-14T18:00:00:Z","depth":0,"parameterNumber":2,"parameterNumberName":"U-component_of_WINDS"},"data":[0.0,0.0,0.0,0.0,0.0,0.0,0.0,0.0,0.0,0.0,0.0,0.0,0.0,0.0,0.0,0.0,0.0,0.0,0.0,0.0,0.0,0.0,0.0,0.0,0.0,0.0,0.0,0.0,0.0,0.0,0.0,0.0,0.0,0.0,0.0,0.0,0.0,0.0,0.0,0.0,0.0,0.0,0.0,0.0,0.0,0.0,0.0,0.0,0.0,0.0,0.0,0.0,0.0,0.0,0.0,0.0,0.0,0.0,0.0,0.0,0.0,0.0,0.0,0.0,0.0,0.0,0.0,0.0,0.0,0.0,0.0,0.0,0.0,0.0,0.0,0.0,0.0,0.0,0.0,0.0,0.0,0.0,0.0,0.0,0.0,0.0,0.0,0.0,0.0,0.0,-3.4898,-3.4898,-3.4889,-3.4927,-3.5001,-3.5011,-3.5089,-3.5308,0.0,0.0,0.0,0.0,0.0,0.0,0.0,0.0,0.0,0.0,0.0,0.0,0.0,0.0,0.0,0.0,0.0,0.0,0.0,0.0,0.0,0.0,0.0,0.0,0.0,0.0,0.0,0.0,0.0,0.0,0.0,0.0,0.0,0.0,0.0,0.0,0.0,0.0,0.0,0.0,0.0,0.0,0.0,0.0,0.0,0.0,0.0,0.0,0.0,0.0,0.0,0.0,0.0,0.0,0.0,0.0,0.0,0.0,0.0,0.0,0.0,0.0,0.0,0.0,0.0,0.0,0.0,0.0,0.0,0.0,0.0,0.0,0.0,0.0,0.0,0.0,0.0,0.0,0.0,0.0,0.0,0.0,0.0,0.0,0.0,0.0,0.0,0.0,0.0,0.0,0.0,0.0,0.0,0.0,0.0,0.0,0.0,0.0,0.0,0.0,0.0,0.0,0.0,0.0,-3.4888,-3.4821,-3.486,-3.4927,-3.5001,-3.5057,-3.5179,-3.5364,0.0,0.0,0.0,0.0,0.0,0.0,0.0,0.0,0.0,0.0,0.0,0.0,0.0,0.0,0.0,0.0,0.0,0.0,0.0,0.0,0.0,0.0,0.0,0.0,0.0,0.0,0.0,0.0,0.0,0.0,0.0,0.0,0.0,0.0,0.0,0.0,0.0,0.0,0.0,0.0,0.0,0.0,0.0,0.0,0.0,0.0,0.0,0.0,0.0,0.0,0.0,0.0,0.0,0.0,0.0,0.0,0.0,0.0,0.0,0.0,0.0,0.0,0.0,0.0,0.0,0.0,0.0,0.0,0.0,0.0,0.0,0.0,0.0,0.0,0.0,0.0,0.0,0.0,0.0,0.0,0.0,0.0,0.0,0.0,0.0,0.0,0.0,0.0,0.0,0.0,0.0,0.0,0.0,0.0,0.0,0.0,0.0,0.0,0.0,0.0,0.0,0.0,0.0,-3.4897,-3.4868,-3.4812,-3.485,-3.4908,-3.4936,-3.4964,-3.5079,-3.5321,-3.5352,0.0,0.0,0.0,0.0,0.0,0.0,0.0,0.0,0.0,0.0,0.0,0.0,0.0,0.0,0.0,0.0,0.0,0.0,0.0,0.0,0.0,0.0,0.0,0.0,0.0,0.0,0.0,0.0,0.0,0.0,0.0,0.0,0.0,0.0,0.0,0.0,0.0,0.0,0.0,0.0,0.0,0.0,0.0,0.0,0.0,0.0,0.0,0.0,0.0,0.0,0.0,0.0,0.0,0.0,0.0,0.0,0.0,0.0,0.0,0.0,0.0,0.0,0.0,0.0,0.0,0.0,0.0,0.0,0.0,0.0,0.0,0.0,0.0,0.0,0.0,0.0,0.0,0.0,0.0,0.0,0.0,0.0,0.0,0.0,0.0,0.0,0.0,0.0,0.0,0.0,0.0,0.0,0.0,0.0,0.0,0.0,0.0,0.0,0.0,0.0,0.0,0.0,-3.4858,-3.4819,-3.4762,-3.481,-3.4859,-3.4888,-3.4889,-3.4999,-3.5268,-3.5292,0.0,0.0,0.0,0.0,0.0,0.0,0.0,0.0,0.0,0.0,0.0,0.0,0.0,0.0,0.0,0.0,0.0,0.0,0.0,0.0,0.0,0.0,0.0,0.0,0.0,0.0,0.0,0.0,0.0,0.0,0.0,0.0,0.0,0.0,0.0,0.0,0.0,0.0,0.0,0.0,0.0,0.0,0.0,0.0,0.0,0.0,0.0,0.0,0.0,0.0,0.0,0.0,0.0,0.0,0.0,0.0,0.0,0.0,0.0,0.0,0.0,0.0,0.0,0.0,0.0,0.0,0.0,0.0,0.0,0.0,0.0,0.0,0.0,0.0,0.0,0.0,0.0,0.0,0.0,0.0,0.0,0.0,0.0,0.0,0.0,0.0,0.0,0.0,0.0,0.0,0.0,0.0,0.0,0.0,0.0,0.0,0.0,0.0,0.0,0.0,0.0,0.0,-3.4687,-3.4623,-3.4604,-3.4676,-3.4747,-3.4798,-3.4849,-3.5011,-3.5274,-3.5289,0.0,0.0,0.0,0.0,0.0,0.0,0.0,0.0,0.0,0.0,0.0,0.0,0.0,0.0,0.0,0.0,0.0,0.0,0.0,0.0,0.0,0.0,0.0,0.0,0.0,0.0,0.0,0.0,0.0,0.0,0.0,0.0,0.0,0.0,0.0,0.0,0.0,0.0,0.0,0.0,0.0,0.0,0.0,0.0,0.0,0.0,0.0,0.0,0.0,0.0,0.0,0.0,0.0,0.0,0.0,0.0,0.0,0.0,0.0,0.0,0.0,0.0,0.0,0.0,0.0,0.0,0.0,0.0,0.0,0.0,0.0,0.0,0.0,0.0,0.0,0.0,0.0,0.0,0.0,0.0,0.0,0.0,0.0,0.0,0.0,0.0,0.0,0.0,0.0,0.0,0.0,0.0,0.0,0.0,0.0,0.0,0.0,0.0,0.0,0.0,0.0,0.0,-3.4758,-3.4716,0.0,-3.4758,-3.4819,-3.4858,-3.4888,-3.501,-3.5274,0.0,0.0,0.0,0.0,0.0,0.0,0.0,0.0,0.0,0.0,0.0,0.0,0.0,0.0,0.0,0.0,0.0,0.0,0.0,0.0,0.0,0.0,0.0,0.0,0.0,0.0,0.0,0.0,0.0,0.0,0.0,0.0,0.0,0.0,0.0,0.0,0.0,0.0,0.0,0.0,0.0,0.0,0.0,0.0,0.0,0.0,0.0,0.0,0.0,0.0,0.0,0.0,0.0,0.0,0.0,0.0,0.0,0.0,0.0,0.0,0.0,0.0,0.0,0.0,0.0,0.0,0.0,0.0,0.0,0.0,0.0,0.0,0.0,0.0,0.0,0.0,0.0,0.0,0.0,0.0,0.0,0.0,0.0,0.0,0.0,0.0,0.0,0.0,0.0,0.0,0.0,0.0,0.0,0.0,0.0,0.0,0.0,0.0,0.0,0.0,0.0,0.0,-3.4817,-3.4768,-3.4737,0.0,-3.4778,-3.4858,-3.4887,-3.4907,-3.501,-3.5278,0.0,0.0,0.0,0.0,0.0,0.0,0.0,0.0,0.0,0.0,0.0,0.0,0.0,0.0,0.0,0.0,0.0,0.0,0.0,0.0,0.0,0.0,0.0,0.0,0.0,0.0,0.0,0.0,0.0,0.0,0.0,0.0,0.0,0.0,0.0,0.0,0.0,0.0,0.0,0.0,0.0,0.0,0.0,0.0,0.0,0.0,0.0,0.0,0.0,0.0,0.0,0.0,0.0,0.0,0.0,0.0,0.0,0.0,0.0,0.0,0.0,0.0,0.0,0.0,0.0,0.0,0.0,0.0,0.0,0.0,0.0,0.0,0.0,0.0,0.0,0.0,0.0,0.0,0.0,0.0,0.0,0.0,0.0,0.0,0.0,0.0,0.0,0.0,0.0,0.0,0.0,0.0,0.0,0.0,0.0,0.0,0.0,0.0,0.0,0.0,0.0,0.0,-3.4798,-3.4676,-3.4634,-3.4687,-3.4697,-3.4758,-3.4887,-3.4897,-3.5021,0.0,0.0,0.0,0.0,0.0,0.0,0.0,0.0,0.0,0.0,0.0,0.0,0.0,0.0,0.0,0.0,0.0,0.0,0.0,0.0,0.0,0.0,0.0,0.0,0.0,0.0,0.0,0.0,0.0,0.0,0.0,0.0,0.0,0.0,0.0,0.0,0.0,0.0,0.0,0.0,0.0,0.0,0.0,0.0,0.0,0.0,0.0,0.0,0.0,0.0,0.0,0.0,0.0,0.0,0.0,0.0,0.0,0.0,0.0,0.0,0.0,0.0,0.0,0.0,0.0,0.0,0.0,0.0,0.0,0.0,0.0,0.0,0.0,0.0,0.0,0.0,0.0,0.0,0.0,0.0,0.0,0.0,0.0,0.0,0.0,0.0,0.0,0.0,0.0,0.0,0.0,0.0,0.0,0.0,0.0,0.0,0.0,0.0,0.0,0.0,0.0,0.0,0.0,-3.4737,-3.4687,-3.4706,-3.4768,-3.486,-3.4908,-3.4889,-3.4982,-3.5126,-3.5277,0.0,0.0,0.0,0.0,0.0,0.0,0.0,0.0,0.0,0.0,0.0,0.0,0.0,0.0,0.0,0.0,0.0,0.0,0.0,0.0,0.0,0.0,0.0,0.0,0.0,0.0,0.0,0.0,0.0,0.0,0.0,0.0,0.0,0.0,0.0,0.0,0.0,0.0,0.0,0.0,0.0,0.0,0.0,0.0,0.0,0.0,0.0,0.0,0.0,0.0,0.0,0.0,0.0,0.0,0.0,0.0,0.0,0.0,0.0,0.0,0.0,0.0,0.0,0.0,0.0,0.0,0.0,0.0,0.0,0.0,0.0,0.0,0.0,0.0,0.0,0.0,0.0,0.0,0.0,0.0,0.0,0.0,0.0,0.0,0.0,0.0,0.0,0.0,0.0,0.0,0.0,0.0,0.0,0.0,0.0,0.0,0.0,0.0,0.0,0.0,0.0,0.0,-3.4747,-3.4727,-3.4749,-3.486,-3.4944,-3.5016,-3.5062,-3.507,-3.5113,-3.5261,0.0,0.0,0.0,0.0,0.0,0.0,0.0,0.0,0.0,0.0,0.0,0.0,0.0,0.0,0.0,0.0,0.0,0.0,0.0,0.0,0.0,0.0,0.0,0.0,0.0,0.0,0.0,0.0,0.0,0.0,0.0,0.0,0.0,0.0,0.0,0.0,0.0,0.0,0.0,0.0,0.0,0.0,0.0,0.0,0.0,0.0,0.0,0.0,0.0,0.0,0.0,0.0,0.0,0.0,0.0,0.0,0.0,0.0,0.0,0.0,0.0,0.0,0.0,0.0,0.0,0.0,0.0,0.0,0.0,0.0,0.0,0.0,0.0,0.0,0.0,0.0,0.0,0.0,0.0,0.0,0.0,0.0,0.0,0.0,0.0,0.0,0.0,0.0,0.0,0.0,0.0,0.0,0.0,0.0,0.0,0.0,0.0,0.0,0.0,0.0,0.0,0.0,-3.4778,-3.4747,-3.4781,-3.499,-3.4997,-3.5094,-3.5274,-3.5136,-3.5077,-3.5182,0.0,0.0,0.0,0.0,0.0,0.0,0.0,0.0,0.0,0.0,0.0,0.0,0.0,0.0,0.0,0.0,0.0,0.0,0.0,0.0,0.0,0.0,0.0,0.0,0.0,0.0,0.0,0.0,0.0,0.0,0.0,0.0,0.0,0.0,0.0,0.0,0.0,0.0,0.0,0.0,0.0,0.0,0.0,0.0,0.0,0.0,0.0,0.0,0.0,0.0,0.0,0.0,0.0,0.0,0.0,0.0,0.0,0.0,0.0,0.0,-3.2783,0.0,0.0,0.0,0.0,0.0,0.0,0.0,0.0,0.0,0.0,0.0,0.0,0.0,0.0,0.0,0.0,0.0,0.0,0.0,0.0,0.0,0.0,0.0,0.0,0.0,0.0,0.0,0.0,0.0,0.0,0.0,0.0,0.0,0.0,0.0,0.0,0.0,0.0,0.0,0.0,0.0,-3.4727,-3.4716,-3.4781,-3.499,-3.5096,-3.5209,-3.5293,-3.5312,-3.527,-3.519,-3.5149,0.0,0.0,0.0,0.0,0.0,0.0,0.0,0.0,0.0,0.0,0.0,0.0,0.0,0.0,0.0,0.0,0.0,0.0,0.0,0.0,0.0,0.0,0.0,0.0,0.0,0.0,0.0,0.0,0.0,0.0,0.0,0.0,0.0,0.0,0.0,0.0,0.0,0.0,0.0,0.0,0.0,0.0,0.0,0.0,0.0,0.0,0.0,0.0,0.0,0.0,0.0,0.0,0.0,0.0,0.0,0.0,0.0,0.0,0.0,0.0,-3.229,0.0,0.0,0.0,0.0,0.0,0.0,0.0,0.0,0.0,0.0,0.0,0.0,0.0,0.0,0.0,0.0,0.0,0.0,0.0,0.0,0.0,0.0,0.0,0.0,0.0,0.0,0.0,0.0,0.0,0.0,0.0,0.0,0.0,0.0,0.0,0.0,0.0,0.0,0.0,0.0,-3.4788,-3.4788,-3.4888,-3.5111,-3.5203,-3.5308,-3.5475,-3.5442,-3.5374,-3.5296,-3.5235,0.0,0.0,0.0,0.0,0.0,0.0,0.0,0.0,0.0,0.0,0.0,0.0,0.0,0.0,0.0,0.0,0.0,0.0,0.0,0.0,0.0,0.0,0.0,0.0,0.0,0.0,0.0,0.0,0.0,0.0,0.0,0.0,0.0,0.0,0.0,0.0,0.0,0.0,0.0,0.0,0.0,0.0,0.0,0.0,0.0,0.0,0.0,0.0,0.0,0.0,0.0,0.0,0.0,-3.2916,-3.2902,-3.2905,-3.2986,-3.2985,-3.2923,-3.2987,-3.2472,-3.1606,-3.1597,0.0,0.0,0.0,0.0,0.0,0.0,0.0,0.0,0.0,0.0,0.0,0.0,0.0,0.0,0.0,0.0,0.0,0.0,0.0,0.0,0.0,0.0,0.0,0.0,-3.6956,-3.7005,0.0,0.0,0.0,0.0,0.0,0.0,0.0,0.0,0.0,0.0,0.0,0.0,-3.5104,-3.5105,-3.5163,-3.5297,-3.53,-3.5395,-3.5662,-3.5521,-3.5431,-3.5404,-3.536,-3.5243,0.0,0.0,0.0,0.0,0.0,0.0,0.0,0.0,0.0,0.0,0.0,0.0,0.0,0.0,0.0,0.0,0.0,0.0,0.0,0.0,0.0,0.0,0.0,0.0,0.0,0.0,0.0,0.0,0.0,0.0,0.0,0.0,-3.2579,-3.1748,0.0,0.0,0.0,0.0,0.0,0.0,0.0,0.0,0.0,0.0,0.0,0.0,0.0,-3.3609,-3.2736,-3.279,-3.2812,-3.2812,-3.3494,-3.3775,-3.3682,-3.4426,-3.4697,-3.4576,-3.4585,0.0,-3.2401,-3.1775,0.0,0.0,0.0,0.0,0.0,0.0,0.0,0.0,0.0,0.0,0.0,0.0,0.0,0.0,0.0,0.0,0.0,0.0,0.0,0.0,0.0,0.0,-3.4216,-3.6668,-3.7339,-3.7327,0.0,-3.7022,-3.7053,-3.6979,-3.6979,0.0,0.0,0.0,0.0,0.0,0.0,0.0,-3.6022,-3.5937,-3.578,-3.5354,-3.5297,-3.5398,-3.5595,-3.559,-3.5522,-3.54,-3.5386,-3.5293,-3.5105,-3.5166,0.0,0.0,0.0,0.0,0.0,0.0,0.0,0.0,0.0,0.0,0.0,0.0,0.0,0.0,0.0,0.0,0.0,0.0,0.0,0.0,0.0,0.0,0.0,0.0,0.0,0.0,0.0,0.0,0.0,-3.159,-3.1641,-3.1229,-3.2007,-3.2085,0.0,0.0,0.0,0.0,0.0,0.0,0.0,0.0,0.0,-3.2904,-3.371,-3.3937,-3.3527,-3.3949,-3.4144,-3.4144,-3.4506,-3.4628,-3.456,-3.5389,-3.5723,-3.5657,-3.6179,-3.6033,-3.5272,-3.3633,-3.2769,-3.2452,0.0,0.0,0.0,0.0,-3.2115,-3.2092,-3.2027,-3.1971,0.0,-3.1971,0.0,0.0,0.0,0.0,0.0,0.0,0.0,0.0,0.0,0.0,0.0,-3.7749,-3.8477,-3.8777,-3.8734,-3.8756,-3.8512,0.0,-3.7362,-3.7375,-3.7449,0.0,0.0,0.0,0.0,-3.7263,-3.6986,-3.6948,-3.6916,-3.6836,-3.6825,-3.6689,-3.6352,-3.6333,-3.611,-3.5605,-3.5522,-3.5443,-3.5277,-3.53,-3.5273,0.0,0.0,0.0,0.0,0.0,0.0,0.0,0.0,0.0,0.0,0.0,0.0,0.0,0.0,0.0,0.0,0.0,0.0,0.0,0.0,0.0,0.0,0.0,0.0,0.0,0.0,0.0,0.0,-3.1395,-3.1488,-3.1054,-3.1929,-3.2182,0.0,0.0,0.0,0.0,0.0,0.0,-3.2931,-3.3197,-3.3263,-3.3177,-3.3988,-3.4377,-3.4319,-3.4904,-3.5209,-3.5209,-3.5425,-3.5488,-3.5435,-3.6254,-3.6587,-3.6557,-3.7281,-3.763,-3.7502,-3.5587,-3.4475,-3.3969,-3.3877,-3.3838,-3.3843,-3.3838,-3.3834,-3.3834,-3.3786,-3.3721,-3.3697,-3.3715,0.0,-3.363,-3.3593,0.0,0.0,0.0,0.0,-3.3473,-3.4513,-3.6103,-3.7736,-3.885,-3.9573,-3.9989,-3.9948,-3.9937,-3.9564,0.0,-3.8029,-3.8081,-3.8165,0.0,0.0,0.0,0.0,-3.8049,-3.7956,-3.7972,-3.7989,-3.7993,-3.7994,-3.7784,-3.7278,-3.7232,-3.698,-3.6381,-3.6074,-3.588,-3.5732,-3.5496,-3.5304,-3.5122,0.0,0.0,0.0,0.0,0.0,0.0,0.0,0.0,0.0,0.0,0.0,0.0,0.0,0.0,0.0,0.0,0.0,0.0,0.0,0.0,0.0,0.0,0.0,0.0,0.0,0.0,0.0,0.0,0.0,-3.2023,-3.3222,0.0,0.0,0.0,0.0,-3.304,-3.2971,-3.2934,-3.2917,-3.3686,-3.4082,-3.3949,-3.4795,-3.5212,-3.5133,-3.519,-3.5209,-3.5209,-3.6042,-3.6372,-3.6272,-3.7138,-3.7471,-3.7344,-3.7528,-3.7663,-3.7723,-3.6976,-3.6646,-3.653,-3.585,-3.5563,-3.5578,-3.5582,-3.5572,-3.5572,-3.5565,-3.5568,-3.5538,-3.5424,-3.5379,-3.536,-3.5224,-3.5244,0.0,0.0,-3.4914,-3.5354,-3.6992,-3.7507,-3.8039,-3.9797,-4.0245,-4.0283,-4.0283,-4.0176,-4.0002,0.0,-3.9735,-3.9786,-3.9778,0.0,-3.9767,-3.9778,-3.9896,-3.969,-3.8918,-3.8959,-3.8765,-3.8064,-3.7994,-3.8035,-3.8129,-3.8135,-3.8115,-3.8077,-3.7284,-3.6767,-3.6643,-3.5782,-3.527,-3.5201,-3.5073,0.0,0.0,0.0,0.0,0.0,0.0,0.0,0.0,0.0,0.0,0.0,0.0,0.0,0.0,0.0,0.0,0.0,0.0,0.0,0.0,0.0,0.0,0.0,0.0,0.0,0.0,0.0,0.0,-3.2807,-3.365,0.0,-3.2783,-3.2895,-3.3044,-3.3043,-3.3486,-3.3757,-3.3744,-3.4525,-3.4937,-3.4833,-3.5143,-3.5266,-3.5209,-3.5755,-3.6042,-3.6042,-3.6875,-3.7222,-3.7157,-3.7985,-3.8375,-3.8394,-3.9048,-3.9408,-3.9527,-3.9425,-3.8717,-3.7666,-3.7406,-3.7307,-3.7312,-3.7307,-3.7301,-3.7301,-3.7309,-3.7309,-3.7303,-3.7255,-3.7173,-3.6993,-3.6433,-3.6245,-3.6087,-3.5469,-3.6044,-3.6985,-3.7568,-3.8536,-3.9501,-4.0138,-4.0309,-4.0309,-4.0309,-4.0266,-4.0212,-4.0139,-4.0071,-4.0071,-4.0267,-4.0203,-4.0195,-4.0266,-4.0248,-4.017,-3.9967,-3.9977,-3.9937,-3.9824,-3.9799,-3.9586,-3.9013,-3.9018,-3.8792,-3.8246,-3.7916,-3.746,-3.6857,-3.6466,-3.5957,-3.5289,-3.5096,-3.4982,0.0,0.0,0.0,0.0,0.0,0.0,0.0,0.0,0.0,0.0,0.0,0.0,0.0,0.0,0.0,0.0,0.0,0.0,0.0,0.0,0.0,0.0,0.0,0.0,0.0,0.0,-3.3464,-3.3252,-3.3834,-3.4063,-3.3557,-3.3443,-3.3527,-3.3814,-3.4347,-3.4641,-3.4641,-3.5119,-3.5372,-3.5308,-3.5308,-3.5403,-3.5641,-3.6263,-3.669,-3.6977,-3.7819,-3.8204,-3.8171,-3.9003,-3.9375,-3.9411,-4.0104,-4.0431,-4.0518,-4.0713,-4.0113,-3.9088,-3.9088,-3.9088,-3.9088,-3.9088,-3.9088,-3.9088,-3.9088,-3.9088,-3.9088,-3.9088,-3.9026,-3.8839,-3.8227,-3.7998,-3.7797,-3.7222,-3.782,-3.8646,-3.8704,-3.953,-4.0383,-4.045,-4.0477,-4.0477,-4.0477,-4.0419,-4.0383,-4.0469,-4.0311,-4.0221,-4.0399,-4.0359,-4.0334,-4.0415,-4.0399,-4.0399,-4.0496,-4.0559,-4.0654,-4.079,-4.0797,-4.0552,-3.9928,-3.9914,-3.9682,-3.9116,-3.8806,-3.8373,-3.7793,-3.7418,-3.6766,-3.5816,-3.5297,-3.4963,-3.4819,0.0,0.0,0.0,0.0,0.0,0.0,0.0,0.0,0.0,0.0,0.0,0.0,0.0,0.0,0.0,0.0,0.0,0.0,0.0,0.0,0.0,0.0,0.0,-3.2186,-3.3468,-3.4149,-3.346,-3.3897,-3.4269,-3.4331,-3.4288,-3.4584,-3.5442,-3.55,-3.55,-3.55,-3.5427,-3.5364,-3.5308,-3.5335,-3.5709,-3.6509,-3.6692,-3.7175,-3.7955,-3.8883,-3.9302,-3.9277,-4.0112,-4.043,-4.0326,-4.0503,-4.0566,-4.0526,-4.0713,-4.0797,-4.0797,-4.0797,-4.0797,-4.0797,-4.0797,-4.0797,-4.0797,-4.0797,-4.0797,-4.0797,-4.0797,-4.0797,-4.0759,-4.0566,-4.0511,-4.0469,-4.0351,-4.0317,-4.0351,-4.0481,-4.0511,-4.0559,-4.0752,-4.0797,-4.0797,-4.0797,-4.0654,-4.0566,-4.0759,-4.0549,-4.0317,-4.0317,-4.0317,-4.0317,-4.0317,-4.0423,0.0,-4.0511,-4.0674,-4.0797,-4.0797,-4.0797,-4.0797,-4.079,-4.0797,-4.0797,-4.079,-4.0004,-3.952,-3.9501,-3.8563,-3.7674,-3.6864,-3.5721,-3.5075,-3.4945,0.0,0.0,0.0,0.0,0.0,0.0,0.0,0.0,0.0,0.0,0.0,0.0,0.0,0.0,0.0,0.0,0.0,0.0,0.0,0.0,0.0,-3.3164,-3.3963,-3.3913,-3.4247,-3.4595,-3.4928,-3.5063,-3.5149,-3.5168,-3.5155,-3.5231,-3.5481,-3.55,-3.55,-3.55,-3.5379,-3.5323,-3.5308,-3.5952,-3.6427,-3.6642,-3.7933,-3.8707,-3.8929,-3.9772,-4.0169,-4.015,-4.0342,-4.0462,-4.0511,-4.0518,-4.0607,-4.0713,-4.0784,-4.0797,-4.0797,-4.0797,-4.0797,-4.0797,-4.0797,-4.0797,-4.0797,-4.0797,-4.0797,-4.0797,-4.0797,-4.0797,-4.079,-4.072,-4.0713,-4.0707,-4.068,-4.0654,-4.068,-4.0707,-4.0713,-4.0739,-4.079,-4.0797,-4.0797,-4.0797,-4.0752,-4.072,-4.079,-4.0733,-4.0654,-4.0654,-4.0654,-4.0654,-4.0654,-4.0694,0.0,-4.0713,-4.0778,-4.0797,-4.0797,-4.0797,-4.0784,-4.0739,-4.0778,-4.0784,-4.0733,-4.0546,-4.0158,-3.952,-3.9225,-3.8653,-3.7758,-3.6677,-3.6073,0.0,0.0,0.0,0.0,0.0,0.0,0.0,0.0,0.0,0.0,0.0,0.0,0.0,0.0,0.0,0.0,0.0,0.0,0.0,0.0,0.0,0.0,-3.3808,-3.4804,-3.5149,-3.5108,-3.5193,-3.5601,-3.5568,-3.5489,-3.5507,-3.55,-3.55,-3.55,-3.55,-3.55,-3.55,-3.5717,-3.5875,-3.5926,-3.6752,-3.7389,-3.7786,-3.8859,-3.9573,-3.9934,-4.0424,-4.0675,-4.0681,-4.0635,-4.0641,0.0,-4.0649,-4.0688,-4.0797,-4.0797,-4.0797,0.0,0.0,0.0,0.0,0.0,-4.0797,-4.0797,-4.0797,-4.0797,-4.0797,-4.0797,-4.0797,-4.0797,-4.0797,-4.0797,-4.0797,-4.0797,-4.0797,-4.0797,-4.0797,-4.0797,-4.0797,-4.0797,-4.0797,-4.0797,-4.0797,-4.0797,-4.0797,-4.0797,-4.0797,0.0,-4.0797,-4.0797,-4.0797,-4.0797,-4.0797,-4.0797,-4.0797,-4.0797,-4.0797,-4.0797,-4.0797,-4.0784,-4.0746,-4.0784,0.0,0.0,0.0,-4.0565,-4.0062,-3.9694,0.0,0.0,0.0,-3.6862,-3.643,0.0,0.0,0.0,-3.4849,-3.4838,0.0,0.0,0.0,0.0,0.0,0.0,0.0,0.0,0.0,0.0,0.0,0.0,0.0,0.0,0.0,0.0,-3.4218,-3.5117,-3.5898,-3.5882,-3.5788,-3.5721,-3.5585,-3.5509,-3.5507,-3.55,-3.55,-3.55,-3.55,-3.5545,-3.5655,0.0,0.0,0.0,0.0,-3.8486,-3.9315,-3.9557,-4.0048,-4.0806,-4.0862,-4.0907,-4.0902,-4.0902,-4.0876,-4.0806,-4.079,-4.0792,-4.0797,-4.0797,-4.0797,-4.0797,-4.0797,-4.0797,-4.0797,-4.0803,-4.0803,-4.0797,-4.0803,0.0,0.0,-4.0803,-4.0803,-4.0803,-4.0803,-4.0803,-4.0797,-4.0797,-4.0797,-4.0797,-4.0797,-4.0797,-4.0797,-4.0797,-4.0797,-4.0797,-4.0797,-4.0797,-4.0797,-4.0797,-4.0797,-4.0797,-4.0797,-4.0797,-4.0797,-4.0797,-4.0797,-4.0797,-4.0797,-4.0797,-4.0797,-4.0797,0.0,0.0,-4.0797,-4.0797,-4.0797,-4.0797,-4.0797,-4.0797,-4.0797,-4.0062,-3.9599,-3.9467,-3.8527,-3.7632,-3.6791,-3.6548,-3.597,-3.504,-3.4954,-3.4868,0.0,0.0,0.0,0.0,0.0,0.0,0.0,0.0,0.0,0.0,0.0,0.0,0.0,0.0,0.0,-3.3377,-3.4726,-3.5819,-3.5984,-3.5926,-3.5831,-3.5712,-3.5621,-3.5568,-3.5514,-3.55,-3.55,-3.55,-3.55,-3.5836,-3.6587,-3.6717,-3.7115,-3.7897,-3.874,-3.9274,-3.9466,-4.0246,-4.0718,-4.0886,0.0,0.0,-4.0902,-4.0902,-4.0897,-4.0886,-4.0823,-4.08,-4.0808,-4.0803,-4.0809,-4.0808,-4.0808,-4.0796,-4.0803,-4.0792,-4.08,-4.0803,-4.0792,-4.0792,-4.0794,-4.0804,-4.079,-4.079,-4.079,-4.0792,0.0,-4.0808,-4.0796,-4.0797,-4.0797,-4.0797,-4.0797,-4.0797,-4.0797,-4.0797,-4.0797,-4.0797,-4.0797,-4.0797,-4.0797,-4.0797,-4.0797,-4.0797,-4.0797,-4.0797,-4.0797,-4.0797,-4.0797,-4.0797,-4.0797,-4.0797,-4.0797,-4.0797,-4.0797,-4.0797,-4.0797,-4.0797,-4.0797,-4.0797,-4.0797,-4.0642,-4.0545,-4.0513,-3.9483,-3.8831,-3.8596,-3.7708,-3.6805,-3.5931,-3.5219,-3.4868,0.0,0.0,0.0,0.0,0.0,0.0,0.0,0.0,0.0,0.0,0.0,-3.2103,-3.2104,0.0,-3.4042,-3.4043,-3.5156,-3.5996,-3.5991,-3.5965,-3.5901,-3.5778,-3.5668,-3.5593,-3.5559,-3.5521,-3.55,-3.55,-3.5945,-3.6408,-3.6868,-3.7705,-3.8379,-3.8882,-3.971,-4.0167,-4.0193,-4.0675,-4.0898,-4.0908,-4.0903,-4.0898,-4.0908,-4.0908,-4.0898,-4.0902,-4.0856,-4.0834,-4.0804,-4.0806,-4.0792,-4.0804,-4.0834,-4.0823,-4.0806,-4.0796,-4.0809,-4.0806,-4.0796,-4.0796,-4.0804,-4.0804,-4.0796,-4.0807,-4.0809,-4.0792,-4.0794,-4.0794,-4.0796,-4.0797,-4.0797,-4.0797,-4.0797,-4.0797,-4.0797,-4.0797,-4.0797,-4.0797,-4.0797,-4.0797,-4.0797,-4.0797,-4.0797,-4.0797,-4.0797,-4.0797,-4.0797,-4.0797,-4.0797,-4.0797,-4.0797,-4.0797,-4.0797,-4.0797,-4.0797,-4.0797,-4.0797,-4.0797,-4.0797,-4.0797,-4.0797,-4.0797,-4.0759,-4.0662,-4.0088,-3.9556,-3.904,-3.8442,-3.7707,-3.6843,-3.6376,-3.5673,0.0,0.0,0.0,0.0,0.0,0.0,0.0,-3.2346,-3.2546,-3.3254,-3.3394,-3.3396,-3.3397,-3.4101,-3.4706,-3.4707,-3.543,-3.5996,-3.5996,-3.5993,-3.5957,-3.5841,-3.5725,-3.5636,-3.5629,-3.5571,-3.5605,-3.5779,-3.6483,-3.7063,-3.7428,-3.8764,-3.9626,-3.9849,-4.05,-4.0854,-4.0907,-4.0907,-4.0907,-4.0907,-4.0907,-4.0907,-4.0907,-4.0907,-4.0893,-4.0893,-4.0907,-4.0867,-4.0807,-4.0807,-4.0812,-4.0818,-4.0877,-4.0877,-4.0823,-4.0823,-4.0818,-4.0812,-4.0804,-4.0823,-4.0812,-4.0809,-4.0821,-4.0818,-4.0815,-4.0818,-4.0812,-4.0806,-4.0808,-4.0803,-4.0797,-4.0797,-4.0797,-4.0797,-4.0797,-4.0797,-4.0797,-4.0797,-4.0797,-4.0797,-4.0797,-4.0797,-4.0797,-4.0797,-4.0797,-4.0797,-4.0797,-4.0797,-4.0797,-4.0797,-4.0797,-4.0797,-4.0797,-4.0797,-4.0797,-4.0797,-4.0797,-4.0797,-4.0797,-4.0797,-4.0797,-4.0797,-4.0707,-4.0511,-4.0419,-4.0004,-3.9203,-3.9069,-3.8581,-3.7726,-3.7686,-3.6725,-3.1057,-3.1517,-3.2214,-3.2113,-3.269,-3.3244,0.0,-3.3257,-3.328,-3.3379,-3.3398,-3.3398,-3.3398,-3.4101,-3.4707,-3.4707,-3.543,-3.5996,-3.5993,-3.6009,-3.5999,-3.5976,-3.5869,-3.5756,-3.5689,-3.5689,-3.5994,-3.6774,-3.6934,-3.7696,-3.9298,-3.9513,-3.9969,-4.0828,-4.0928,-4.0945,-4.0907,-4.0907,-4.0907,-4.0907,-4.0907,-4.0907,-4.0907,-4.0907,-4.0907,-4.0903,-4.0893,-4.0867,-4.0807,-4.0807,-4.0842,-4.0897,-4.0902,-4.0898,-4.0898,-4.0898,-4.0849,-4.0818,-4.0864,-4.0883,-4.0883,-4.0888,-4.0898,-4.0898,-4.0893,-4.0898,-4.0886,-4.0826,-4.0798,-4.0808,-4.0803,-4.0797,-4.0797,-4.0797,-4.0797,-4.0797,-4.0797,-4.0797,-4.0797,-4.0797,-4.0797,-4.0797,-4.0797,-4.0797,-4.0797,-4.0797,-4.0797,-4.0797,-4.0797,-4.0797,-4.0797,-4.0797,-4.0797,-4.0797,-4.0797,-4.0797,-4.0797,-4.0797,-4.0797,-4.0797,-4.0797,-4.0797,-4.0707,-4.0511,-4.0375,-4.0201,-3.9977,-3.9844,-3.9372,-3.8567,-3.8557,-3.7656,-3.3024,-3.2978,-3.2971,-3.3488,-3.3884,-3.4163,-3.417,-3.4154,-3.4294,-3.4804,-3.4902,-3.4902,-3.4902,-3.5215,-3.5469,0.0,-3.5762,-3.5996,-3.5995,-3.5992,-3.6004,-3.6009,-3.6354,-3.6387,-3.5799,-3.6172,-3.6605,-3.6973,-3.7971,-3.8905,-3.9649,-4.0198,-4.0634,-4.0996,-4.1007,-4.0967,-4.0907,-4.0907,-4.0907,-4.0907,-4.0907,-4.0907,-4.0907,-4.0907,-4.0907,-4.0907,-4.0893,-4.0883,-4.0854,-4.0854,-4.0864,-4.0946,-4.1456,-4.1655,-4.1607,-4.1082,-4.0874,-4.0937,-4.1466,-4.166,-4.1728,-4.2208,-4.2374,-4.2418,-4.2369,-4.2354,-4.2357,-4.233,-4.2313,-4.2309,-4.2273,-4.228,-4.2195,-4.1686,-4.155,-4.1421,-4.0903,-4.0792,-4.0806,-4.0802,-4.0802,-4.0796,-4.0797,-4.0797,-4.0797,-4.0797,-4.0797,-4.0797,-4.0797,-4.0797,-4.0797,-4.0797,-4.0797,-4.0797,-4.0797,-4.0797,-4.0797,-4.0797,-4.0797,-4.0797,-4.0797,-4.0797,-4.068,-4.0391,-4.0334,-4.0194,-3.9969,-3.9933,-3.973,-3.9399,-3.9399,-3.8774,-3.3756,-3.3692,-3.3602,-3.4489,-3.4884,-3.5062,-3.5066,-3.5051,-3.5249,-3.5876,-3.5995,-3.5996,-3.5996,-3.5996,-3.5996,-3.5996,-3.5996,-3.5996,-3.5996,-3.5994,-3.6085,-3.6327,-3.6854,-3.7023,-3.6589,-3.7075,-3.7499,-3.7756,-3.8988,-3.9832,-4.0066,-4.0721,-4.1075,-4.0996,-4.0996,-4.0975,-4.0907,-4.0907,-4.0907,-4.0907,-4.0907,-4.0907,-4.0907,-4.0907,-4.0907,-4.0907,-4.0907,-4.1043,-4.1257,-4.1257,-4.1393,-4.1684,-4.2306,-4.2558,-4.2481,-4.1859,-4.1626,-4.1704,-4.2345,-4.2558,-4.2656,-4.3237,-4.3456,-4.3486,-4.3451,-4.3426,-4.3421,-4.3408,-4.3402,-4.3391,-4.335,-4.335,-4.3233,-4.2613,-4.2458,-4.229,-4.1654,-4.133,-4.115,-4.1166,-4.0967,-4.08,-4.079,-4.0809,-4.0803,-4.0797,-4.0797,-4.0797,-4.0797,-4.0797,-4.0797,-4.0797,-4.0797,-4.0797,-4.0797,-4.0797,-4.0797,-4.0797,-4.0746,-4.0746,-4.0797,-4.07,-4.0557,-4.029,-4.0266,-4.0139,-3.99,-3.99,-3.99,-3.99,-3.99,-3.9578,-3.1943,-3.2789,-3.3614,-3.4488,-3.5336,-3.5965,-3.5965,-3.5969,-3.5972,-3.5991,-3.5993,-3.5995,-3.5995,-3.5996,-3.5996,-3.5996,-3.5996,-3.5996,-3.5995,-3.5993,-3.63,-3.7166,-3.7226,-3.752,0.0,-3.8447,-3.8805,-3.9643,-3.9763,-4.0172,-4.101,-4.1088,-4.1075,-4.0996,-4.0996,-4.0975,-4.0907,-4.0907,-4.0907,-4.0907,-4.0907,-4.0907,-4.0907,-4.0907,-4.0907,-4.0907,-4.0907,-4.1374,-4.2155,-4.2155,-4.2656,-4.3408,-4.3447,-4.3466,-4.3466,-4.3428,-4.3408,-4.3408,-4.3447,-4.3466,-4.3466,-4.3486,-4.3505,-4.3505,-4.3505,-4.3505,-4.3481,-4.3421,-4.3396,-4.3405,-4.3397,-4.3404,-4.3385,-4.3366,-4.3366,-4.3346,-4.3333,-4.2654,-4.2053,-4.2053,-4.1374,-4.0796,-4.08,-4.0794,-4.0808,-4.0797,-4.0797,-4.0797,-4.0797,-4.0797,-4.0797,-4.0797,-4.0797,-4.0797,-4.0797,-4.0797,-4.0797,-4.0797,-4.0614,-4.0607,-4.079,-4.0492,-4.0317,-4.0309,-4.0167,-4.004,-3.99,-3.99,-3.99,-3.99,-3.99,-3.99,-3.2727,-3.3592,-3.4479,-3.5347,-3.578,-3.5996,-3.5996,-3.6002,-3.6007,-3.6007,-3.5541,-3.5133,-3.5133,-3.5135,-3.5136,-3.5136,-3.5625,-3.6191,-3.6777,-3.6854,-3.7184,-3.8058,-3.8608,0.0,0.0,0.0,0.0,-3.9786,-4.0351,-4.0796,-4.1088,-4.1107,-4.1078,-4.0999,-4.0999,-4.1,-4.0974,-4.0974,-4.0945,-4.0907,-4.0907,-4.0907,-4.0907,-4.0907,-4.1218,-4.1767,-4.1767,-4.2267,-4.3063,-4.3063,-4.3238,-4.3563,-4.4132,-4.4365,-4.4423,-4.4967,-4.5161,-4.5084,-4.4559,-4.4365,-4.4443,-4.4986,-4.5161,-4.5161,-4.5161,-4.5161,-4.5156,-4.5129,-4.5135,-4.5101,-4.507,-4.5089,-4.4971,-4.4408,-4.4267,-4.4117,-4.3576,-4.3232,-4.3014,-4.2978,-4.2294,-4.1715,-4.1664,-4.1187,-4.0808,-4.0797,-4.0797,-4.0797,-4.0797,-4.0797,-4.0797,-4.0797,-4.0797,-4.0797,-4.0797,-4.0797,-4.0797,-4.0797,-4.0739,-4.0739,-4.0797,-4.0559,-4.0391,-4.0309,-4.0157,-4.004,-3.99,-3.99,-3.99,-3.99,-3.99,-3.99,-3.3532,-3.4261,-3.491,-3.5776,-3.5992,-3.5992,-3.5992,-3.5996,-3.6,-3.6,-3.5302,-3.4699,-3.4699,-3.445,-3.4334,-3.4646,-3.5175,-3.5957,-3.7129,-3.7305,-3.7734,-3.8922,-3.9499,-3.9912,0.0,0.0,0.0,-4.0253,-4.0776,-4.1107,-4.1107,-4.1107,-4.1218,-4.1457,-4.1457,-4.1459,-4.1434,-4.1434,-4.1246,-4.0907,-4.0907,-4.0907,-4.0907,-4.1218,-4.1665,-4.2214,-4.252,-4.3161,-4.3957,-4.3957,-4.4132,-4.4443,-4.5006,-4.522,-4.5297,-4.5808,-4.6002,-4.5924,-4.5414,-4.522,-4.5317,-4.5827,-4.6002,-4.6002,-4.6002,-4.6002,-4.5997,-4.6,-4.6005,-4.5991,-4.5953,-4.5978,-4.5859,-4.529,-4.5154,-4.5024,-4.4515,-4.4171,-4.3952,-4.3917,-4.3202,-4.2521,-4.2166,-4.1381,-4.0796,-4.0797,-4.0797,-4.0797,-4.0797,-4.0797,-4.0797,-4.0797,-4.0797,-4.0797,-4.0797,-4.0797,-4.0797,-4.0797,-4.072,-4.07,-4.07,-4.0485,-4.0317,-4.023,-4.0091,-3.9998,-3.99,-3.99,-3.99,-3.99,-3.99,-3.99,-3.4241,-3.4734,-3.497,-3.5796,-3.5992,-3.5992,-3.5992,-3.5992,-3.5992,-3.5934,-3.5236,-3.4617,-3.4578,0.0,-3.3689,-3.4566,-3.4763,-3.5448,-3.7187,-3.7421,-3.8066,0.0,0.0,0.0,0.0,0.0,0.0,-4.1094,0.0,-4.113,-4.1149,-4.1169,-4.1533,-4.2357,-4.2376,-4.2338,-4.2278,-4.2216,-4.177,-4.0966,-4.0966,-4.0966,-4.1005,-4.1859,-4.2291,-4.2388,-4.3219,-4.4054,-4.4851,-4.4851,-4.5317,-4.6002,-4.6002,-4.6002,-4.6002,-4.6002,-4.6002,-4.6002,-4.6002,-4.6002,-4.6002,-4.6002,-4.6002,-4.6002,-4.6002,-4.6002,-4.6002,-4.6002,-4.6002,-4.6002,-4.6002,-4.6002,-4.6002,-4.6002,-4.6002,-4.6002,-4.6002,-4.5394,-4.4851,-4.4851,-4.4106,-4.3186,-4.2311,-4.1439,-4.0855,-4.088,-4.0835,-4.0797,-4.0797,-4.0797,-4.0797,-4.0797,-4.0797,-4.0797,-4.0797,-4.0797,-4.0797,-4.0797,-4.0621,-4.0518,-4.0518,-4.0257,-4.012,-4.011,-3.9988,-3.9911,-3.99,-3.9911,-3.9911,-3.9911,-3.9922,-3.9922,-3.4576,-3.5167,-3.5718,-3.5934,-3.5992,-3.5992,-3.5992,-3.5992,-3.5817,-3.5174,-3.4333,-3.3532,-3.2873,-3.3114,0.0,-3.4551,-3.5781,0.0,-3.892,-3.9218,0.0,-4.0742,0.0,-4.0852,-4.1083,-4.1104,0.0,0.0,-4.1089,-4.1373,-4.2022,-4.207,-4.246,-4.3326,-4.3348,-4.3312,-4.3237,-4.2548,-4.2081,-4.1864,-4.1864,-4.1864,-4.1903,-4.2772,-4.353,-4.4151,-4.4365,-4.4928,-4.5691,-4.5691,-4.5808,-4.6002,-4.6002,-4.6002,-4.6002,-4.6002,-4.6002,-4.6002,-4.6002,-4.6002,-4.6002,-4.6002,-4.6002,-4.6002,-4.6002,-4.6002,-4.6002,-4.6002,-4.6002,-4.6002,-4.6002,-4.6002,-4.6002,-4.6002,-4.6002,-4.6002,-4.6002,-4.5846,-4.5691,-4.5691,-4.4988,-4.41,-4.3225,-4.2309,-4.1699,-4.1753,-4.1214,-4.0797,-4.0797,-4.0797,-4.0797,-4.0797,-4.0797,-4.0797,-4.0797,-4.0797,-4.0797,-4.0797,-4.0752,-4.0713,-4.0713,-4.0515,-4.0351,-4.0257,-4.012,-3.9989,-3.99,-3.9989,-4.005,-4.006,-4.0139,-4.0194,-3.5167,-3.5638,-3.5992,-3.5992,-3.5992,-3.5895,-3.5524,-3.5425,-3.5188,-3.4311,-3.3446,-3.2798,-3.2685,-3.3076,-3.3807,0.0,0.0,0.0,-3.9606,-3.9883,-4.0215,0.0,-4.1171,0.0,-4.1108,-4.1097,-4.1261,0.0,-4.1679,-4.188,-4.2364,-4.2768,-4.3353,-4.42,-4.4222,-4.4209,-4.4166,-4.3261,-4.282,-4.2804,-4.2814,-4.2801,-4.2791,-4.3675,-4.4336,-4.4812,0.0,-4.5629,-4.6037,-4.6037,-4.6037,-4.6037,-4.6032,-4.6037,-4.6037,-4.6037,-4.6037,-4.6037,-4.6037,-4.6037,-4.6032,-4.6007,-4.6002,-4.6002,-4.6002,-4.6002,-4.6002,-4.6002,-4.6026,-4.6037,-4.6037,-4.6047,-4.6032,-4.6042,-4.6037,-4.6037,-4.6002,-4.6002,-4.5997,-4.6005,-4.5293,-4.4533,-4.4054,-4.3212,-4.2497,-4.2144,-4.1676,-4.1226,-4.0858,-4.0796,-4.0797,-4.0797,-4.0797,-4.0797,-4.0797,-4.0797,-4.0797,-4.0797,-4.0797,-4.0752,-4.0668,-4.0566,-4.0431,-4.0309,-4.023,-4.0158,-4.009,-4.0158,-4.0185,-4.0185,-4.0266,-4.0309,-3.5794,-3.5991,-3.5992,-3.5992,-3.5992,-3.5778,-3.4899,-3.47,-3.442,-3.3425,-3.2636,-3.2336,-3.3081,-3.3312,-3.4004,-3.5868,0.0,-3.8005,-3.9805,-4.0077,-4.0351,-4.1113,-4.1191,-4.1171,-4.1129,-4.1202,-4.1586,-4.2341,-4.2618,-4.2741,-4.2741,-4.3463,-4.4243,-4.5063,-4.508,-4.5072,-4.5078,-4.4208,-4.3759,-4.3778,-4.3775,-4.3735,-4.3713,-4.4591,-4.4976,-4.5011,-4.5774,0.0,-4.6105,-4.6105,-4.6105,-4.6105,-4.6108,-4.6098,-4.6098,-4.6098,-4.6098,-4.6098,-4.6098,-4.6098,-4.6089,-4.6027,-4.6012,-4.6012,-4.6012,-4.6012,-4.6012,-4.6012,-4.6066,-4.6105,-4.6105,-4.6099,-4.6089,-4.611,-4.61,-4.6071,-4.6032,-4.6002,-4.5991,-4.6008,-4.5395,-4.488,-4.4876,-4.4147,-4.3313,-4.2568,-4.2252,-4.182,-4.1084,-4.0883,-4.0809,-4.0809,-4.0803,-4.0803,-4.0803,-4.0797,-4.0797,-4.0797,-4.0797,-4.0713,-4.0552,-4.0533,-4.0481,-4.0334,-4.0334,-4.0326,-4.0309,-4.0326,-4.0334,-4.0334,-4.0351,-4.0378,-3.5965,-3.6007,-3.5992,-3.5992,-3.5992,-3.5776,-3.4893,-3.4695,-3.4243,-3.2654,-3.2218,-3.2155,-3.2297,-3.2901,-3.4188,-3.6601,-3.7754,-3.8945,-4.0657,-4.0936,-4.1035,0.0,-4.1191,-4.1191,-4.1172,-4.1776,0.0,0.0,0.0,-4.4546,-4.4557,-4.4688,-4.5176,-4.6023,-4.6052,-4.6023,-4.5989,-4.5114,-4.467,-4.4673,-4.4674,-4.4663,-4.4678,-4.5499,-4.586,-4.5875,-4.6031,0.0,-4.6089,-4.6089,-4.6089,-4.6089,-4.6093,-4.6098,-4.6098,-4.6098,-4.6098,-4.6098,-4.6098,-4.6098,-4.6093,-4.6084,-4.6084,-4.6084,-4.6084,-4.6084,-4.6084,-4.6084,-4.6089,-4.6089,-4.6089,-4.6093,-4.6093,-4.6093,-4.6095,-4.61,-4.6095,-4.6037,-4.5997,-4.5997,-4.5878,-4.577,-4.5767,-4.5049,-4.443,-4.4344,-4.3056,-4.2064,-4.1964,-4.1277,-4.0796,-4.0796,-4.0806,-4.0808,-4.0808,-4.0809,-4.0797,-4.0797,-4.0797,-4.0784,-4.0752,-4.0746,-4.0661,-4.0462,-4.0481,-4.0407,-4.0309,-4.0407,-4.0481,-4.0462,-4.064,-4.07,-3.6007,-3.6009,-3.5992,-3.5992,-3.5992,-3.5659,-3.4326,-3.4028,-3.3651,-3.237,-3.2108,-3.2376,-3.3236,-3.4108,-3.5241,-3.6926,-3.8339,-3.9511,-4.0369,-4.0898,-4.1191,-4.1191,-4.1191,-4.1191,-4.1191,-4.1932,-4.2593,-4.3039,0.0,-4.4995,-4.4992,-4.5437,-4.5867,-4.628,-4.6296,-4.6271,-4.6247,-4.5845,-4.5621,-4.5632,-4.5598,-4.5579,-4.5581,-4.5971,-4.6154,-4.6154,-4.6154,0.0,-4.6154,-4.6154,-4.6154,-4.6154,-4.6146,-4.615,-4.615,-4.615,-4.615,-4.615,-4.615,-4.615,-4.615,-4.615,-4.6134,-4.6098,-4.6098,-4.6098,-4.6098,-4.6098,-4.6126,-4.6154,-4.6154,-4.6142,-4.6146,-4.6154,-4.6128,-4.6095,-4.6061,-4.6032,-4.6002,-4.6002,-4.6011,-4.6005,-4.5997,-4.5645,-4.5246,-4.4865,-4.4053,-4.3188,-4.2306,-4.1815,-4.1348,-4.0851,-4.0796,-4.0804,-4.0804,-4.0792,-4.0794,-4.0796,-4.0796,-4.079,-4.0797,-4.0797,-4.0752,-4.0661,-4.0661,-4.0614,-4.0564,-4.0614,-4.0661,-4.0661,-4.0752,-4.0797,-3.5949,-3.6009,-3.5992,-3.5992,-3.6148,-3.5776,-3.3836,-3.3537,-3.3372,-3.232,-3.2097,-3.2618,-3.4294,-3.5176,-3.5978,-3.7037,-3.8353,-3.9414,-3.9823,-4.0488,-4.0996,-4.1172,-4.1191,0.0,-4.1191,-4.2107,0.0,0.0,0.0,0.0,-4.5285,-4.5929,-4.63,-4.63,-4.63,-4.63,-4.63,-4.6292,-4.6308,-4.6308,-4.6258,-4.6217,-4.619,-4.62,-4.6206,-4.6193,-4.6193,0.0,0.0,-4.6193,-4.6193,-4.6197,-4.6192,-4.6199,-4.6199,-4.6199,-4.6199,-4.6199,-4.6199,-4.6199,-4.6199,-4.6199,-4.6158,-4.6111,-4.6111,-4.6111,-4.6111,-4.6111,-4.6162,-4.6193,-4.6193,-4.6204,-4.6192,-4.6189,-4.6132,-4.6071,-4.6007,-4.6002,-4.6002,-4.6002,-4.6002,-4.6002,-4.6002,-4.6002,-4.5788,-4.5142,-4.4909,-4.4307,-4.2932,-4.2427,-4.1927,-4.1183,-4.0939,-4.0818,-4.0818,-4.0812,-4.0796,-4.0812,-4.08,-4.0808,-4.0803,-4.0797,-4.0797,-4.0797,-4.0797,-4.0797,-4.0797,-4.0797,-4.0797,-4.0797,-4.0797,-4.0797,-3.5779,-3.6001,-3.5992,-3.5992,-3.6597,-3.6518,-3.3984,-3.4002,-3.4113,-3.243,-3.2094,-3.2618,-3.4294,-3.4718,-3.5336,-3.6943,-3.7393,-3.8053,-3.9584,-3.9939,-4.0312,-4.1113,0.0,0.0,-4.1191,-4.2636,0.0,0.0,0.0,0.0,-4.6183,-4.6261,-4.63,-4.63,-4.63,-4.63,-4.63,-4.63,-4.63,-4.63,-4.6288,-4.6258,-4.6203,-4.6189,-4.6193,-4.6196,-4.6196,0.0,0.0,-4.6196,-4.6196,-4.6196,-4.6196,-4.6199,-4.6199,-4.6199,-4.6199,-4.6199,-4.6199,-4.6199,-4.6199,-4.6199,-4.6196,-4.6192,-4.6192,-4.6192,-4.6192,-4.6192,-4.6192,-4.6196,-4.6196,-4.6196,-4.6189,-4.613,-4.6099,-4.6071,-4.6007,-4.6002,-4.6002,-4.6002,-4.6002,-4.6002,-4.6002,-4.6002,-4.5963,-4.5905,-4.5258,-4.4734,-4.4579,-4.3185,-4.217,-4.2087,-4.1364,-4.0897,-4.0897,-4.0823,-4.0807,-4.0801,-4.0792,-4.0794,-4.0794,-4.0809,-4.0797,-4.0797,-4.0797,-4.0797,-4.0797,-4.0797,-4.0797,-4.0797,-4.0797,-4.0797,-3.6394,-3.6789,-3.6911,-3.7438,-3.7045,-3.6103,-3.453,-3.3645,-3.3089,-3.2915,-3.2871,-3.3397,-3.5071,-3.5407,-3.5649,-3.6306,-3.6873,-3.73,-3.7486,-3.7982,-3.8669,-3.9531,-3.9648,0.0,0.0,0.0,0.0,0.0,0.0,0.0,-4.63,-4.63,-4.63,-4.63,-4.63,-4.63,-4.63,-4.63,-4.63,-4.63,-4.6296,-4.6288,-4.6258,-4.6253,-4.6237,-4.6193,-4.6193,0.0,0.0,-4.6193,-4.62,-4.6209,-4.6209,-4.6209,-4.6209,-4.62,-4.6193,-4.6193,-4.6203,-4.6199,-4.6199,-4.6199,-4.6199,-4.6199,-4.6199,-4.6199,-4.6199,-4.6199,-4.6199,-4.6199,-4.6199,-4.6208,-4.6174,-4.6122,-4.6099,-4.6071,-4.6007,-4.6002,-4.6002,-4.6002,-4.6002,-4.6002,-4.6002,-4.6002,-4.6002,-4.6002,-4.573,-4.5356,-4.4851,-4.419,-4.3355,-4.2311,-4.1422,-4.0888,-4.0888,-4.0883,-4.0868,-4.0853,-4.0826,-4.0798,-4.08,-4.079,-4.0797,-4.0797,-4.0797,-4.0797,-4.0797,-4.0797,-4.0797,-4.0797,-4.0797,-4.0797,-3.6093,-3.6884,-3.7458,-3.8064,-3.7297,-3.6098,-3.496,-3.3544,-3.2654,-3.3264,-3.3397,-3.3904,-3.5597,-3.5908,-3.5892,-3.5902,-3.6432,-3.6723,-3.6401,-3.6901,-3.7534,-3.8142,0.0,-3.9081,0.0,0.0,0.0,0.0,0.0,0.0,-4.63,-4.63,-4.63,-4.63,-4.63,-4.63,-4.63,-4.63,-4.63,-4.63,-4.63,-4.6296,-4.6303,-4.6303,-4.6253,-4.6192,-4.6192,0.0,0.0,-4.6192,-4.6198,-4.6206,-4.6206,-4.6206,-4.6206,-4.6195,-4.6192,-4.6209,-4.6193,-4.6206,-4.6206,-4.6199,-4.6199,-4.6199,-4.6199,-4.6199,-4.6199,-4.6199,-4.6199,-4.6199,-4.6199,-4.6197,-4.6154,-4.6122,-4.6071,-4.6061,-4.6007,-4.6002,-4.6002,-4.6002,-4.6002,-4.6002,-4.6002,-4.6002,-4.6002,-4.6002,-4.6002,-4.5808,-4.522,-4.4948,-4.4229,-4.2733,-4.1801,-4.1179,-4.0927,-4.0907,-4.0898,-4.0898,-4.0853,-4.0826,-4.0823,-4.0808,-4.0809,-4.0809,-4.0797,-4.0797,-4.0797,-4.0797,-4.0797,-4.0797,-4.0797,-4.0797,-3.4397,-3.5942,-3.7301,-3.7301,-3.7295,-3.684,-3.5096,-3.4012,-3.3395,-3.34,-3.3397,-3.3904,-3.5597,-3.5908,-3.5908,-3.5908,-3.5951,0.0,-3.7074,-3.7247,-3.7296,0.0,0.0,-3.8612,-3.8632,0.0,0.0,0.0,0.0,0.0,-4.6302,-4.63,-4.63,-4.63,-4.63,-4.63,-4.63,-4.63,-4.63,-4.63,-4.63,-4.6296,-4.6303,-4.6303,-4.6258,0.0,0.0,0.0,0.0,-4.6206,-4.6206,-4.6206,-4.6206,-4.6206,-4.6206,-4.6206,-4.6206,-4.6206,-4.6209,-4.6203,-4.6203,-4.6203,-4.6199,-4.6199,-4.6199,-4.6199,-4.6199,-4.6199,-4.6199,-4.6199,-4.6199,-4.615,-4.6098,-4.6098,-4.6061,-4.6002,-4.6002,-4.6002,-4.6002,-4.6002,-4.6002,-4.6002,-4.6002,-4.6002,-4.6002,-4.6002,-4.6002,-4.6002,-4.5982,-4.5297,-4.4462,-4.3583,-4.2714,-4.1845,-4.0966,-4.0907,-4.0907,-4.0907,-4.0898,-4.0902,-4.0902,-4.0848,-4.0794,-4.0794,-4.0809,-4.0797,-4.0797,-4.0797,-4.0797,-4.0797,-4.0797,-4.0797,-3.4058,-3.5382,-3.6341,-3.6341,-3.5936,-3.5221,-3.4068,-3.2686,-3.197,-3.3144,-3.3351,-3.3852,-3.5577,-3.5908,-3.5892,-3.5902,-3.5955,0.0,0.0,0.0,0.0,-3.7221,-3.912,-4.084,0.0,0.0,0.0,0.0,0.0,0.0,-4.6309,-4.6303,-4.63,-4.63,-4.63,-4.63,-4.63,-4.63,-4.63,-4.63,-4.63,-4.6298,-4.6296,-4.6296,-4.629,0.0,0.0,0.0,0.0,-4.6279,-4.6264,-4.6271,-4.6271,-4.6271,-4.6271,-4.6262,-4.6279,-4.6258,-4.6215,-4.6206,-4.6203,-4.6203,-4.6199,-4.6199,-4.6199,-4.6199,-4.6199,-4.6199,-4.6199,-4.6199,-4.6199,-4.615,-4.6098,-4.6098,-4.6056,-4.6002,-4.6002,-4.6002,-4.6002,-4.6002,-4.6002,-4.6002,-4.6002,-4.6002,-4.6002,-4.6002,-4.6002,-4.6002,-4.6002,-4.5788,-4.5297,-4.4481,-4.3607,-4.25,-4.1024,-4.0907,-4.0907,-4.0907,-4.0898,-4.0902,-4.0902,-4.0832,-4.0804,-4.0794,-4.0792,-4.0806,-4.0802,-4.0806,-4.0806,-4.0802,-4.0802,-4.0796,-3.2976,-3.4342,-3.5334,-3.5334,-3.473,-3.3988,-3.3443,-3.1991,-3.1265,-3.3009,-3.3334,-3.3838,-3.5585,-3.5906,-3.5894,-3.5907,-3.5962,0.0,0.0,0.0,0.0,-3.7691,0.0,0.0,0.0,0.0,0.0,0.0,0.0,0.0,-4.6293,-4.6305,-4.63,-4.63,-4.63,-4.63,-4.63,-4.63,-4.63,-4.63,-4.63,-4.63,-4.63,-4.63,-4.6298,0.0,0.0,0.0,0.0,-4.629,-4.6294,-4.63,-4.63,-4.63,-4.63,-4.6294,-4.629,-4.6288,-4.6223,-4.6192,-4.6209,-4.6206,-4.6199,-4.6199,-4.6199,-4.6199,-4.6199,-4.6199,-4.6199,-4.6196,-4.6208,-4.6142,-4.6098,-4.6098,-4.6056,-4.6002,-4.6032,-4.6026,-4.6002,-4.6002,-4.6002,-4.6002,-4.6002,-4.6002,-4.6002,-4.6002,-4.6002,-4.6002,-4.6032,-4.6026,-4.5696,-4.49,-4.4016,-4.2947,-4.1557,-4.112,-4.0941,-4.0941,-4.0946,-4.0937,-4.0937,-4.0863,-4.0832,-4.0829,-4.0801,-4.0796,-4.0798,-4.0796,-4.0796,-4.0798,-4.08,-4.0808,0.0,-3.2876,-3.418,-3.4122,-3.3608,-3.3091,-3.3036,-3.1809,0.0,-3.2863,-3.3252,-3.3803,-3.5496,-3.5861,-3.5894,-3.5909,0.0,0.0,0.0,-3.7408,0.0,0.0,-3.8788,0.0,0.0,0.0,0.0,0.0,0.0,0.0,-4.6294,-4.6306,-4.6302,-4.6302,-4.6302,-4.63,-4.63,-4.63,-4.63,-4.63,-4.63,-4.63,-4.63,-4.63,-4.63,0.0,0.0,0.0,0.0,-4.63,-4.63,-4.63,-4.63,-4.63,-4.63,-4.63,-4.63,-4.6298,-4.6238,-4.6209,-4.6203,-4.6193,-4.6199,-4.6199,-4.6199,-4.6199,-4.6199,-4.6199,-4.6199,-4.6192,-4.6193,-4.6154,-4.6098,-4.6098,-4.6042,-4.6012,-4.6095,-4.6042,-4.6002,-4.6002,-4.6002,-4.6002,-4.6002,-4.6002,-4.6002,-4.6007,-4.6007,-4.6032,-4.61,-4.6042,-4.5716,-4.4961,-4.4111,-4.3266,-4.2455,-4.1544,-4.101,-4.101,-4.101,-4.1006,-4.1006,-4.0937,-4.0907,-4.0902,-4.0842,-4.0812,-4.0812,-4.0812,-4.0812,-4.0812,-4.0818,-4.08,-3.049,0.0,-3.2171,-3.1509,-3.1739,-3.1973,0.0,-3.0917,-3.0948,-3.2075,-3.2843,-3.3628,-3.4717,-3.5452,-3.5916,0.0,0.0,0.0,-3.7172,0.0,0.0,-4.0488,0.0,0.0,0.0,0.0,0.0,0.0,0.0,-4.6305,-4.6301,-4.6294,-4.629,-4.629,-4.6303,-4.63,-4.63,-4.63,-4.63,-4.63,-4.63,-4.63,-4.63,-4.63,-4.63,0.0,0.0,0.0,-4.63,-4.63,-4.63,-4.63,-4.63,-4.63,-4.63,-4.63,-4.63,-4.6298,-4.6286,-4.6282,-4.6277,-4.6228,-4.6209,-4.6199,-4.6199,-4.6199,-4.6199,-4.6199,-4.6199,-4.6192,-4.6193,-4.6154,-4.6098,-4.6098,-4.6095,-4.6071,-4.6095,-4.6095,-4.6066,-4.6002,-4.6002,-4.6026,-4.6066,-4.6032,-4.6012,-4.6075,-4.6081,-4.6081,-4.6104,-4.6084,-4.6007,-4.5802,-4.4999,-4.4163,-4.335,-4.1887,-4.1007,-4.1007,-4.1007,-4.1003,-4.1006,-4.0974,-4.0951,-4.0902,-4.0877,-4.0888,-4.0888,-4.0888,-4.0878,-4.0872,-4.0886,-4.0856,-3.0211,-3.0592,-3.0899,-3.0426,-3.0716,-3.1006,-3.0564,-3.0539,-3.0862,-3.1759,-3.2674,-3.3576,-3.4432,0.0,0.0,0.0,-3.6327,0.0,0.0,0.0,0.0,0.0,0.0,0.0,0.0,0.0,0.0,0.0,0.0,-4.6306,-4.6305,-4.6301,-4.6297,-4.6297,-4.6294,-4.629,-4.6306,-4.6303,-4.63,-4.63,-4.63,-4.63,-4.63,-4.63,-4.63,0.0,0.0,0.0,-4.63,-4.63,-4.63,-4.63,-4.63,-4.63,-4.63,-4.63,-4.63,-4.63,-4.6308,-4.6277,-4.6245,-4.6209,-4.6193,-4.6199,-4.6199,-4.6199,-4.6199,-4.6199,-4.6199,-4.6192,-4.6193,-4.6181,-4.6149,-4.6149,-4.6113,-4.6095,-4.6095,-4.6095,-4.609,-4.6042,-4.6047,-4.6061,-4.6095,-4.6066,-4.6066,-4.6093,-4.6104,-4.6104,-4.6149,-4.6122,-4.6106,-4.6142,-4.5379,-4.4518,-4.367,-4.2365,-4.1427,-4.103,-4.0991,-4.1,-4.0999,-4.0991,-4.0969,-4.0903,-4.0903,-4.0893,-4.0907,-4.0907,-4.0898,-4.0903,-4.0907,-4.1091,-3.0211,-3.0307,-3.0371,-3.023,-3.0241,-3.0286,-3.0304,-3.0441,-3.0804,-3.1549,-3.2458,-3.3375,-3.4247,-3.5104,0.0,0.0,0.0,0.0,-3.8843,-3.8981,0.0,0.0,0.0,0.0,0.0,0.0,0.0,0.0,0.0,-4.6307,-4.6307,-4.6305,-4.6302,-4.6302,-4.6302,-4.63,-4.6296,-4.6308,-4.6302,-4.63,-4.63,-4.63,-4.63,-4.63,-4.63,-4.63,0.0,0.0,-4.63,-4.63,-4.63,-4.63,-4.63,-4.63,-4.63,-4.63,-4.63,-4.63,-4.6308,-4.625,-4.6209,-4.6206,-4.6193,-4.6199,-4.6199,-4.6199,-4.6199,-4.6199,-4.6199,-4.6192,-4.6193,-4.6209,-4.6209,-4.6209,-4.6154,-4.6122,-4.6122,-4.6122,-4.6113,-4.611,-4.6104,-4.6098,-4.6102,-4.6117,-4.6098,-4.6106,-4.6122,-4.6149,-4.6189,-4.6158,-4.6142,-4.6196,-4.5542,-4.4756,-4.3874,-4.3114,-4.2273,-4.1266,-4.1091,-4.1002,-4.0996,-4.0995,-4.0974,-4.0907,-4.0907,-4.0907,-4.0907,-4.1024,-4.1102,-4.1102,-4.1233,-4.1689,-3.0211,-3.0748,-3.1125,-3.039,-3.0199,-3.024,-3.0286,-3.0409,-3.0564,-3.0763,-3.1598,-3.253,-3.3351,-3.4205,-3.5039,0.0,0.0,-3.8938,0.0,0.0,0.0,0.0,0.0,0.0,0.0,0.0,0.0,0.0,0.0,-4.6308,-4.6307,-4.6306,-4.6306,-4.6306,-4.6304,-4.6303,-4.6306,-4.6297,-4.6308,-4.63,-4.63,-4.63,-4.63,-4.63,-4.63,-4.63,0.0,-4.63,-4.63,-4.63,-4.63,-4.63,-4.63,-4.63,-4.63,-4.63,-4.63,-4.63,-4.6308,-4.6255,-4.6201,-4.6209,-4.6193,-4.6199,-4.6199,-4.6199,-4.6199,-4.6199,-4.6199,-4.6192,-4.6193,-4.6209,-4.6209,-4.6209,-4.6185,-4.6181,-4.6181,-4.6181,-4.6177,-4.6113,-4.6093,-4.6122,-4.6162,-4.6149,-4.613,-4.6185,-4.6174,-4.6189,-4.6192,-4.6192,-4.6192,-4.6196,-4.6079,-4.565,-4.4773,-4.4582,-4.3819,-4.2195,-4.1455,-4.1052,-4.0996,-4.0995,-4.0974,-4.0907,-4.0907,-4.0907,-4.0907,-4.1646,-4.2,-4.2019,-4.2767,-4.317,-3.0211,-3.0486,-3.092,-3.147,-3.1979,-3.2481,-3.3006,-3.3235,-3.3106,-3.2197,-3.2778,-3.3415,0.0,0.0,-3.5895,-3.7718,0.0,0.0,0.0,0.0,0.0,0.0,0.0,0.0,0.0,0.0,0.0,0.0,0.0,0.0,-4.6308,-4.6308,-4.6308,-4.6308,-4.6307,-4.6307,-4.6307,-4.6304,-4.6299,-4.6308,-4.6303,-4.63,-4.63,-4.63,-4.63,-4.63,0.0,-4.63,-4.63,-4.63,-4.63,-4.63,-4.63,-4.63,-4.63,-4.63,-4.63,-4.63,-4.6296,-4.6262,-4.6206,-4.6201,-4.62,-4.6199,-4.6199,-4.6199,-4.6199,-4.6199,-4.6199,-4.6196,-4.6208,-4.6204,-4.6204,-4.6204,-4.6204,-4.6201,-4.6189,-4.6197,-4.6197,-4.6158,-4.6142,-4.6154,-4.6185,-4.6177,-4.6158,-4.6196,-4.6192,-4.6208,-4.6196,-4.6199,-4.6199,-4.6199,-4.6199,-4.5848,-4.4972,-4.4894,-4.415,-4.2413,-4.151,-4.1032,-4.0995,-4.1003,-4.1192,-4.1586,-4.1597,-4.182,-4.2306,-4.2714,-4.2908,-4.2908,-4.3316,-4.3743,-3.0211,-3.0345,-3.0863,-3.2429,-3.3024,-3.366,-3.5168,-3.5338,-3.4919,-3.3996,-3.439,0.0,0.0,-3.5171,0.0,-3.9139,-3.985,0.0,0.0,0.0,0.0,0.0,0.0,0.0,0.0,0.0,0.0,0.0,0.0,0.0,-4.6308,-4.6308,-4.6308,-4.6308,-4.6308,-4.6308,-4.6307,-4.6307,-4.6304,-4.6293,-4.6306,-4.6303,-4.63,-4.63,-4.63,-4.63,-4.63,-4.63,-4.63,-4.63,-4.63,-4.63,-4.63,-4.63,-4.63,-4.63,-4.63,-4.63,-4.6298,-4.6264,-4.6206,-4.6203,-4.6203,-4.6199,-4.6199,-4.6199,-4.6199,-4.6199,-4.6199,-4.6199,-4.6199,-4.6199,-4.6199,-4.6199,-4.6199,-4.6192,-4.6197,-4.6208,-4.6192,-4.6197,-4.6208,-4.6199,-4.6199,-4.6199,-4.6199,-4.6199,-4.6199,-4.6199,-4.6199,-4.6199,-4.6199,-4.6199,-4.6199,-4.5926,-4.5264,-4.503,-4.4325,-4.3,-4.2091,-4.1617,-4.1613,-4.1618,-4.1885,-4.2494,-4.2495,-4.283,-4.3505,-4.3704,-4.3802,-4.3821,-4.3996,-4.4443,-3.0211,-3.0786,-3.1637,-3.257,-3.163,-3.1358,-3.4732,-3.4356,-3.3732,-3.5294,-3.5713,-3.5791,0.0,-3.6473,-3.7427,-3.842,0.0,0.0,0.0,0.0,0.0,0.0,0.0,0.0,0.0,0.0,0.0,0.0,0.0,0.0,-4.6308,-4.6308,-4.6308,-4.6308,-4.6308,-4.6308,-4.6308,-4.6308,-4.6304,-4.6293,-4.6293,-4.6308,-4.63,-4.63,-4.63,-4.63,-4.63,-4.63,-4.63,-4.63,-4.63,-4.63,-4.63,-4.63,-4.63,-4.63,-4.63,-4.63,-4.631,-4.6258,-4.6206,-4.6192,-4.6193,-4.6199,-4.6199,-4.6199,-4.6199,-4.6199,-4.6199,-4.6199,-4.6199,-4.6199,-4.6199,-4.6199,-4.6199,-4.6199,-4.6196,-4.6196,-4.6196,-4.6196,-4.6196,-4.6199,-4.6199,-4.6199,-4.6199,-4.6199,-4.6199,-4.6199,-4.6199,-4.6199,-4.6199,-4.6199,-4.6199,-4.618,-4.6102,-4.5361,-4.4855,-4.4718,-4.3893,-4.3419,-4.3405,-4.3401,-4.3415,-4.3412,-4.3404,-4.3447,-4.3505,-4.4307,-4.4715,-4.4715,-4.5472,-4.5846,-3.0211,-3.1233,-3.2391,-3.2723,-3.2309,-3.2748,-3.6299,-3.713,-3.7195,-3.7385,-3.7465,-3.735,0.0,0.0,-3.9097,-3.9989,0.0,0.0,0.0,0.0,0.0,0.0,0.0,0.0,0.0,0.0,0.0,0.0,0.0,0.0,0.0,-4.6308,-4.6308,-4.6308,-4.6308,-4.6308,-4.6308,-4.6308,-4.6307,-4.6303,-4.6301,-4.6295,-4.6308,-4.6308,-4.6305,-4.63,-4.63,-4.63,-4.63,-4.63,-4.63,-4.63,-4.63,-4.63,-4.63,-4.63,-4.63,-4.63,-4.6296,-4.6264,-4.6206,-4.6201,-4.6203,-4.6199,-4.6199,-4.6199,-4.6199,-4.6199,-4.6199,-4.6199,-4.6199,-4.6199,-4.6199,-4.6199,-4.6199,-4.6199,-4.6199,-4.6199,-4.6199,-4.6199,-4.6199,-4.6199,-4.6199,-4.6199,-4.6199,-4.6199,-4.6199,-4.6199,-4.6199,-4.6199,-4.6199,-4.6199,-4.6199,-4.6199,-4.6199,-4.5907,-4.5712,-4.5712,-4.4384,-4.3598,-4.3594,-4.3604,-4.3813,-4.429,-4.4307,-4.4559,-4.5064,-4.5394,-4.5555,-4.555,-4.5866,-4.6002,-3.0199,-3.1068,-3.2103,-3.2661,-3.3001,-3.4021,-3.7287,-3.8185,-3.8467,-3.906,-3.9011,-3.8673,-3.8127,0.0,0.0,0.0,0.0,0.0,0.0,0.0,0.0,0.0,0.0,0.0,0.0,0.0,0.0,0.0,0.0,0.0,0.0,-4.6308,-4.6308,-4.6308,-4.6308,-4.6308,-4.6308,-4.6308,-4.6308,-4.6308,-4.6306,-4.6302,-4.6293,-4.6293,-4.6308,-4.63,-4.63,-4.63,-4.63,-4.63,-4.63,-4.63,-4.63,-4.63,-4.63,-4.63,-4.63,-4.63,-4.63,-4.6267,-4.6206,-4.6206,-4.6206,-4.6199,-4.6199,-4.6199,-4.6199,-4.6199,-4.6199,-4.6199,-4.6199,-4.6199,-4.6199,-4.6199,-4.6199,-4.6199,-4.6199,-4.6199,-4.6199,-4.6199,-4.6199,-4.6199,-4.6199,-4.6199,-4.6199,-4.6199,-4.6199,-4.6199,-4.6199,-4.6199,-4.6199,-4.6199,-4.6199,-4.6199,-4.6199,-4.6199,-4.6199,-4.6206,-4.5089,-4.4419,-4.4419,-4.441,-4.4686,-4.523,-4.522,-4.5487,-4.6032,-4.6007,-4.6002,-4.6002,-4.6002,-4.6002,-3.0207,-3.0226,-3.0661,-3.2363,-3.3415,-3.473,-3.7298,-3.6671,-3.6555,-4.0163,-4.02,-3.9653,-3.9773,-4.0404,0.0,0.0,0.0,0.0,0.0,0.0,0.0,0.0,0.0,0.0,0.0,0.0,0.0,0.0,0.0,0.0,0.0,-4.6308,-4.6308,-4.6308,-4.6308,-4.6308,-4.6308,-4.6308,-4.6308,-4.6308,-4.6308,-4.6307,-4.6294,-4.6294,-4.6309,-4.6302,-4.6302,-4.63,-4.63,-4.63,-4.63,-4.63,-4.63,-4.63,-4.63,-4.63,-4.63,-4.63,-4.63,-4.6267,-4.6206,-4.6206,-4.6206,-4.6199,-4.6199,-4.6199,-4.6199,-4.6199,-4.6199,-4.6199,-4.6199,-4.6199,-4.6199,-4.6199,-4.6199,-4.6199,-4.6199,-4.6199,-4.6199,-4.6199,-4.6199,-4.6199,-4.6199,-4.6199,-4.6199,-4.6199,-4.6199,-4.6199,-4.6199,-4.6199,-4.6199,-4.6199,-4.6199,-4.6199,-4.6199,-4.6199,-4.6206,-4.6203,-4.6209,-4.6199,-4.6199,-4.6201,-4.6209,-4.6209,-4.6123,-4.61,-4.61,-4.6032,-4.6002,-4.6002,-4.6002,-4.6002,-3.0199,-3.1989,0.0,-3.2974,0.0,0.0,-3.7725,-3.805,-3.8684,-4.0528,-4.0691,-4.0361,-3.9893,0.0,0.0,0.0,0.0,0.0,0.0,0.0,0.0,0.0,0.0,0.0,0.0,0.0,0.0,0.0,0.0,0.0,0.0,-4.5976,-4.6308,-4.6308,-4.6247,-4.6222,-4.6222,-4.6228,-4.6239,-4.6239,-4.6239,-4.6235,-4.623,-4.6289,-4.6269,-4.6228,-4.6284,-4.6296,-4.63,-4.63,-4.63,-4.63,-4.63,-4.63,-4.63,-4.63,-4.63,-4.63,-4.63,-4.6267,-4.6206,-4.6206,-4.6195,-4.6196,-4.6196,-4.6196,-4.6196,-4.6196,-4.6206,-4.6199,-4.6199,-4.6199,-4.6199,-4.6199,-4.6199,-4.6199,-4.6199,-4.6199,-4.6199,-4.6199,-4.6199,-4.6199,-4.6199,-4.6199,-4.6199,-4.6199,-4.6199,-4.6199,-4.6199,-4.6199,-4.6203,-4.6196,-4.6196,-4.6203,-4.6192,-4.6195,-4.6195,-4.6201,-4.6198,-4.6209,-4.6196,-4.6208,-4.6209,-4.6209,-4.6123,-4.61,-4.61,-4.6032,-4.6002,-4.6002,-4.6002,-4.6002,-3.1076,-3.2816,0.0,-3.4789,-3.6438,-3.8139,-3.8785,0.0,0.0,0.0,-4.084,-4.0731,-4.0307,-4.0951,0.0,0.0,0.0,0.0,0.0,0.0,0.0,0.0,0.0,0.0,0.0,0.0,0.0,0.0,0.0,0.0,0.0,-4.5798,-4.6265,-4.6259,-4.6228,-4.62,-4.62,-4.6199,-4.6206,-4.6206,-4.6206,-4.6197,-4.6152,-4.6231,-4.6243,-4.6209,-4.6249,-4.6287,-4.6295,-4.6295,-4.6309,-4.63,-4.63,-4.63,-4.63,-4.63,-4.63,-4.63,-4.63,-4.6271,-4.6236,-4.6236,-4.6226,-4.6195,-4.6195,-4.6195,-4.6192,-4.6206,-4.6196,-4.6206,-4.6199,-4.6199,-4.6199,-4.6199,-4.6199,-4.6199,-4.6199,-4.6199,-4.6199,-4.6199,-4.6199,-4.6199,-4.6199,-4.6199,-4.6199,-4.6199,-4.6199,-4.6203,-4.6196,-4.6193,-4.6196,-4.6192,-4.6195,-4.6198,-4.6206,-4.6206,-4.6209,-4.6233,-4.6211,-4.6206,-4.6242,-4.6219,-4.6203,-4.6203,-4.6166,-4.6141,-4.6141,-4.6081,-4.6037,-4.6037,-4.6007,-4.6002,-3.2454,-3.312,-3.4094,-3.7204,-3.8055,0.0,-4.0142,-4.0598,-4.0687,-4.0694,0.0,-4.0814,-4.0896,0.0,0.0,0.0,0.0,0.0,0.0,0.0,0.0,0.0,0.0,0.0,0.0,0.0,0.0,0.0,0.0,0.0,0.0,-4.5586,-4.6081,-4.6069,-4.6142,-4.6181,-4.6181,-4.6178,-4.6176,-4.6176,-4.6176,-4.6151,-4.6084,-4.6156,-4.6195,-4.6192,-4.6201,-4.6229,-4.6288,-4.6288,-4.6284,-4.6288,-4.6288,-4.6287,-4.6303,-4.6303,-4.6303,-4.63,-4.63,-4.6294,-4.6303,-4.6303,-4.6258,-4.6209,-4.6209,-4.6209,-4.6206,-4.6212,-4.6209,-4.6203,-4.6206,-4.6203,-4.6203,-4.6203,-4.6199,-4.6199,-4.6199,-4.6199,-4.6199,-4.6199,-4.6199,-4.6199,-4.6203,-4.6203,-4.6203,-4.6203,-4.6203,-4.6196,-4.6203,-4.6195,-4.6192,-4.6209,-4.6209,-4.6209,-4.6211,-4.6211,-4.6236,-4.6306,-4.6238,-4.6236,-4.6306,-4.6236,-4.6206,-4.6206,-4.6196,-4.6199,-4.6199,-4.6141,-4.6105,-4.61,-4.6037,-4.6002,-3.2725,-3.4781,0.0,-3.7732,-3.8946,-4.0046,-4.0419,-4.0512,-4.0576,-4.068,-4.0744,-4.0814,-4.0896,0.0,0.0,0.0,0.0,0.0,0.0,0.0,0.0,0.0,0.0,0.0,0.0,0.0,0.0,0.0,0.0,0.0,-4.2797,-4.4262,-4.512,-4.5181,-4.5783,-4.6111,-4.613,-4.6078,-4.6032,0.0,-4.6032,-4.6042,-4.6013,-4.6084,-4.6153,-4.6201,-4.6209,-4.6202,-4.6227,-4.6227,-4.6228,-4.6229,-4.6229,-4.625,-4.6304,-4.6304,-4.6296,-4.63,-4.63,-4.6294,-4.6303,-4.6303,-4.6284,-4.6282,-4.6282,-4.6282,-4.6279,-4.6277,-4.6231,-4.6201,-4.6198,-4.6198,-4.6198,-4.6198,-4.62,-4.6199,-4.6199,-4.6199,-4.6203,-4.6196,-4.62,-4.6203,-4.6195,-4.6198,-4.6198,-4.6198,-4.6198,-4.6201,-4.6206,-4.6203,-4.6228,-4.626,-4.6282,-4.6284,-4.6275,-4.6275,-4.6275,-4.6298,-4.6296,-4.6275,-4.6298,-4.6238,-4.6206,-4.6206,-4.6209,-4.6193,-4.6199,-4.6131,-4.6098,-4.61,-4.6095,-4.6042,-3.4297,-3.5967,0.0,-3.8843,0.0,-4.0496,-4.0496,-4.0496,-4.0512,-4.0591,-4.0668,-4.0756,0.0,0.0,0.0,0.0,0.0,0.0,0.0,0.0,0.0,0.0,0.0,0.0,0.0,0.0,0.0,0.0,0.0,-4.2192,-4.2202,-4.3452,-4.4359,-4.4785,-4.5211,-4.5604,-4.6003,-4.5961,-4.5964,-4.6,-4.5964,-4.5958,-4.5964,-4.606,-4.6127,-4.615,-4.6195,-4.6182,-4.6158,-4.6183,-4.6209,-4.6196,-4.6196,-4.6222,-4.6249,-4.6249,-4.625,-4.6267,-4.628,-4.6295,-4.629,-4.6298,-4.6292,-4.6292,-4.6292,-4.6292,-4.6292,-4.6306,-4.626,-4.6236,-4.6209,-4.6206,-4.6192,-4.6191,-4.6192,-4.6203,-4.6203,-4.6203,-4.6206,-4.6195,-4.6195,-4.6198,-4.6206,-4.6206,-4.6209,-4.6236,-4.6228,-4.6218,-4.6246,-4.6223,-4.6225,-4.6291,-4.6302,-4.6294,-4.63,-4.63,-4.6306,-4.6296,-4.6297,-4.6281,-4.6248,-4.6225,-4.6218,-4.6248,-4.6243,-4.6221,-4.6207,-4.6155,-4.6153,-4.6153,-4.6118,-4.6098,-3.5741,-3.6746,-3.7674,-3.995,-4.0496,0.0,-4.0496,-4.0496,-4.0496,-4.0496,-4.0605,0.0,0.0,0.0,0.0,0.0,0.0,0.0,0.0,0.0,0.0,0.0,0.0,0.0,0.0,0.0,0.0,0.0,0.0,-4.1945,-4.1961,-4.2762,-4.3553,-4.4232,-4.4406,-4.4794,-4.5465,-4.562,-4.5729,-4.5772,-4.5865,-4.5911,-4.5892,-4.6011,-4.6061,-4.609,-4.6132,-4.6135,-4.6089,-4.6167,-4.6187,-4.6186,-4.6186,-4.6175,-4.6188,-4.6188,-4.6194,-4.6203,-4.6269,-4.6289,-4.6289,-4.628,-4.6273,-4.627,-4.6273,-4.6291,-4.6306,-4.6298,-4.6296,-4.6292,-4.6238,-4.6219,-4.6212,-4.6215,-4.6207,-4.6193,-4.6208,-4.6201,-4.6201,-4.6208,-4.6193,-4.6193,-4.6193,-4.6193,-4.6216,-4.6262,-4.6235,-4.6225,-4.6288,-4.6229,-4.6228,-4.6289,-4.6282,-4.6274,-4.6274,-4.6274,-4.628,-4.6288,-4.6289,-4.6269,-4.6205,-4.6204,-4.6227,-4.6289,-4.6278,-4.6261,-4.6209,-4.6205,-4.6199,-4.6205,-4.6135,-4.6144,-3.5046,0.0,-3.9142,0.0,-4.0496,-4.0496,0.0,0.0,-4.0496,0.0,0.0,0.0,0.0,0.0,0.0,0.0,0.0,0.0,0.0,0.0,0.0,0.0,0.0,0.0,0.0,0.0,0.0,0.0,-4.0835,-4.0925,-4.0982,-4.1756,-4.2285,-4.2439,-4.3169,-4.3633,-4.374,-4.4471,-4.4858,-4.4884,-4.5562,-4.5911,-4.5892,-4.5923,-4.596,-4.6008,-4.6021,-4.6052,-4.6099,-4.6106,-4.6119,-4.6103,-4.6103,-4.6118,-4.612,-4.612,-4.6143,-4.6207,-4.621,-4.6212,-4.6213,-4.6201,-4.6209,-4.6211,-4.6209,-4.625,-4.6305,-4.6305,-4.6305,-4.6302,-4.6284,-4.6293,-4.6284,-4.6286,-4.623,-4.6191,-4.6191,-4.6203,-4.6198,-4.6191,-4.6191,-4.6209,-4.6209,-4.6209,-4.6209,-4.6209,-4.6208,-4.6208,-4.6206,-4.6207,-4.6207,-4.6206,-4.6208,-4.6208,-4.6208,-4.6208,-4.6208,-4.6206,-4.6206,-4.6205,-4.6204,-4.6204,-4.6199,-4.62,-4.6203,-4.6209,-4.6209,-4.6191,-4.6191,-4.6209,-4.6185,-4.6157,-3.6238,-3.786,-3.9411,0.0,-4.0496,-4.0496,-4.0496,0.0,-4.0496,0.0,0.0,0.0,0.0,0.0,0.0,0.0,0.0,0.0,0.0,0.0,0.0,0.0,0.0,0.0,0.0,0.0,0.0,0.0,-4.0687,-4.0733,-4.079,-4.1145,-4.1557,-4.2034,-4.2421,-4.2853,-4.3331,-4.3718,-4.3911,-4.3911,-4.4298,-4.4473,-4.4454,-4.4957,-4.5454,-4.5955,-4.598,-4.6016,-4.6055,-4.6081,-4.6085,-4.6037,-4.6037,-4.6065,-4.6103,-4.6103,-4.6126,-4.6141,-4.6147,-4.6136,-4.616,-4.6183,-4.6195,-4.6201,-4.6196,-4.6219,-4.6245,-4.6245,-4.6245,-4.6246,-4.623,-4.6249,-4.6247,-4.6242,-4.6222,-4.6201,-4.62,-4.6204,-4.6191,-4.6208,-4.6205,-4.6204,-4.6204,-4.6204,-4.6204,-4.6204,-4.6196,-4.6207,-4.6207,-4.6207,-4.6207,-4.6207,-4.6199,-4.6204,-4.6204,-4.6204,-4.62,-4.6207,-4.6207,-4.62,-4.6201,-4.6199,-4.6192,-4.6192,-4.6207,-4.6195,-4.6208,-4.6206,-4.6192,-4.6209,-4.6198,-4.6207,0.0,0.0,-3.8804,-3.9896,-4.0173,-4.0231,0.0,0.0,-4.0496,0.0,0.0,0.0,0.0,0.0,0.0,0.0,0.0,0.0,0.0,0.0,0.0,0.0,0.0,0.0,0.0,0.0,0.0,0.0,-4.0647,-4.07,-4.0778,-4.079,-4.1087,-4.168,-4.1699,-4.2009,-4.2667,-4.2879,-4.3073,-4.3305,-4.335,-4.335,-4.3324,-4.3982,-4.4628,-4.5266,-4.5753,-4.5978,-4.5986,-4.606,-4.6051,-4.6002,-4.6002,-4.6032,-4.6071,-4.6071,-4.6061,-4.6065,-4.6076,-4.6072,-4.6079,-4.6142,-4.618,-4.6167,-4.618,-4.6165,-4.6171,-4.6171,-4.6171,-4.6175,-4.6209,-4.6188,-4.6179,-4.6162,-4.6193,-4.6197,-4.6192,-4.6201,-4.6209,-4.6209,-4.6209,-4.6209,-4.6209,-4.6209,-4.6209,-4.6209,-4.6191,-4.6192,-4.6192,-4.6192,-4.6192,-4.6192,-4.6197,-4.6209,-4.6209,-4.6209,-4.62,-4.6194,-4.6192,-4.6198,-4.6199,-4.6199,-4.6199,-4.6199,-4.6206,-4.6206,-4.6199,-4.6198,-4.6201,-4.62,-4.6195,-4.6221,0.0,-3.6706,0.0,-3.8842,-3.9269,0.0,0.0,0.0,0.0,0.0,0.0,0.0,0.0,0.0,0.0,0.0,0.0,0.0,0.0,0.0,0.0,0.0,0.0,0.0,0.0,0.0,0.0,0.0,-4.0593,-4.0628,-4.07,-4.0778,-4.0816,-4.0855,-4.0855,-4.0874,-4.0932,-4.168,-4.2473,-4.3305,-4.3305,-4.3305,-4.3305,-4.3343,-4.3382,-4.3524,-4.5189,-4.5906,-4.5917,-4.5986,-4.5994,-4.6002,-4.6002,-4.6002,-4.6002,-4.6002,-4.6002,-4.6007,-4.6007,-4.6012,-4.6017,-4.6085,-4.6119,-4.6118,-4.6119,-4.6111,-4.6111,-4.6111,-4.6111,-4.612,-4.6177,-4.614,-4.6111,-4.6108,-4.6144,-4.6199,-4.6194,-4.6198,-4.6206,-4.6206,-4.6206,-4.6206,-4.6206,-4.6206,-4.6206,-4.6206,-4.6203,-4.6203,-4.6203,-4.6203,-4.6203,-4.6203,-4.6206,-4.6206,-4.6206,-4.6206,-4.6206,-4.6203,-4.6203,-4.6199,-4.6199,-4.6199,-4.6199,-4.6199,-4.6203,-4.6203,-4.6199,-4.6199,-4.6203,-4.6199,-4.6196,-4.6203,0.0,0.0,0.0,-3.8081,-3.8785,-3.9288,-3.9592,-4.0096,0.0,0.0,0.0,0.0,0.0,0.0,0.0,0.0,0.0,0.0,0.0,0.0,0.0,0.0,0.0,0.0,0.0,0.0,0.0,0.0,0.0,-4.0639,-4.0694,-4.0713,-4.0771,-4.0797,-4.0797,-4.0797,-4.0797,-4.1087,-4.139,-4.1699,-4.1699,-4.1699,-4.1699,-4.2222,-4.2473,-4.255,-4.4305,-4.5067,-4.5105,-4.5741,-4.6003,-4.5994,-4.5991,-4.6002,-4.6002,-4.6002,-4.6002,-4.6002,-4.6002,-4.6002,-4.6002,-4.6032,-4.6032,-4.6032,-4.6037,-4.6047,-4.605,-4.605,-4.605,-4.6059,-4.6115,-4.6127,-4.6095,-4.6107,-4.6119,-4.6142,-4.6183,-4.6203,-4.6199,-4.6199,-4.6199,-4.6199,-4.6199,-4.6199,-4.6199,-4.6199,-4.6199,-4.6199,-4.6199,-4.6199,-4.6199,-4.6199,-4.6199,-4.6199,-4.6199,-4.6199,-4.6199,-4.6199,-4.6199,-4.6199,-4.6199,-4.6199,-4.6199,-4.6199,-4.6199,-4.6199,-4.6199,-4.6199,-4.6199,-4.6199,-4.6206,-4.6504,-3.5821,0.0,0.0,0.0,-3.7901,-3.8481,-3.9069,0.0,0.0,0.0,0.0,0.0,0.0,0.0,0.0,0.0,0.0,0.0,0.0,0.0,0.0,0.0,0.0,0.0,0.0,0.0,0.0,0.0,0.0,0.0,-4.0661,-4.0694,-4.0733,-4.0797,-4.0797,-4.0797,-4.0797,-4.0797,-4.0797,-4.0797,-4.0797,-4.0797,-4.0816,-4.1351,-4.1603,-4.168,-4.3111,-4.406,-4.4673,-4.5595,-4.5974,-4.5966,-4.5994,-4.6005,-4.6005,-4.5997,-4.6002,-4.6002,-4.6002,-4.6002,-4.6002,-4.6002,-4.6002,-4.6002,-4.6002,-4.6002,-4.6002,-4.6002,-4.6002,-4.6007,-4.6042,-4.6066,-4.6071,-4.6099,-4.6104,-4.6113,-4.6181,-4.6197,-4.6189,-4.6196,-4.6199,-4.6199,-4.6199,-4.6199,-4.6199,-4.6199,-4.6199,-4.6199,-4.6199,-4.6199,-4.6199,-4.6199,-4.6199,-4.6199,-4.6199,-4.6199,-4.6199,-4.6199,-4.6199,-4.6199,-4.6199,-4.6199,-4.6199,-4.6199,-4.6199,-4.6336,-4.6647,-4.6336,-4.6199,-4.6219,-4.6511,-4.7258,0.0,0.0,0.0,0.0,0.0,0.0,-3.8746,0.0,-3.9411,0.0,0.0,0.0,0.0,0.0,0.0,0.0,0.0,0.0,0.0,0.0,0.0,0.0,0.0,0.0,0.0,0.0,0.0,0.0,-4.0565,-4.0603,-4.0607,-4.0661,-4.0739,-4.0797,-4.0797,-4.0797,-4.0797,-4.0797,-4.0797,-4.0797,-4.0797,-4.0797,-4.0797,-4.0797,-4.0797,-4.0835,-4.1641,-4.2976,-4.4628,-4.5506,-4.588,-4.5911,-4.596,-4.5997,-4.5997,-4.6005,-4.5997,-4.5997,-4.5997,-4.5997,-4.5997,-4.5997,-4.5997,-4.5997,-4.5997,-4.5997,-4.5997,-4.5997,-4.6002,-4.6002,-4.6002,-4.6002,-4.6026,-4.6071,-4.61,-4.611,-4.6177,-4.6205,-4.6193,-4.6196,-4.6199,-4.6199,-4.6199,-4.6199,-4.6199,-4.6199,-4.6199,-4.6199,-4.6199,-4.6199,-4.6199,-4.6199,-4.6199,-4.6199,-4.6199,-4.6199,-4.6219,-4.6238,-4.6238,-4.6258,-4.6277,-4.6277,-4.6277,-4.6277,-4.6277,-4.6686,-4.754,-4.6667,-4.6258,-4.6297,-4.7173,-4.8487,-3.4783,0.0,0.0,0.0,0.0,0.0,-3.719,-3.7816,-3.85,0.0,0.0,0.0,0.0,0.0,0.0,0.0,0.0,0.0,0.0,0.0,0.0,0.0,0.0,0.0,0.0,0.0,0.0,0.0,-4.0523,-4.0542,-4.0607,-4.0707,-4.0784,-4.0797,-4.0797,-4.0797,-4.0797,-4.0797,-4.0797,-4.0797,-4.0797,-4.0797,-4.0797,-4.0797,-4.0797,-4.0835,-4.1641,-4.2634,-4.3724,-4.4602,-4.5338,-4.5899,-4.5911,-4.5923,-4.5923,-4.5935,-4.5935,-4.5935,-4.5935,-4.5935,-4.5935,-4.5935,-4.5935,-4.5935,-4.5935,-4.5953,-4.6008,-4.6008,-4.6005,-4.6002,-4.6002,-4.6002,-4.6002,-4.6032,-4.6032,-4.6042,-4.6114,-4.6132,-4.6138,-4.6192,-4.6199,-4.6199,-4.6199,-4.6199,-4.6199,-4.6199,-4.6199,-4.6199,-4.6199,-4.6199,-4.6199,-4.6199,-4.6199,-4.6199,-4.6199,-4.6199,-4.6472,-4.7092,-4.7131,-4.7423,-4.8047,-4.8086,-4.8086,-4.8086,-4.8086,-4.8202,-4.8436,-4.756,-4.7462,-4.8105,-4.8977,-4.9634,0.0,-3.4641,0.0,0.0,0.0,0.0,-3.6806,-3.7464,-3.8243,0.0,0.0,0.0,0.0,0.0,0.0,0.0,0.0,0.0,0.0,0.0,0.0,0.0,0.0,0.0,0.0,-4.0496,-4.0496,-4.0496,-4.0496,-4.0534,-4.0607,-4.0739,-4.0797,-4.0797,-4.0797,-4.0797,-4.0797,-4.0797,-4.0797,-4.0797,-4.0797,-4.0797,-4.0797,-4.0797,-4.0797,-4.0835,-4.1293,-4.2183,-4.3343,-4.3847,-4.477,-4.586,-4.5893,-4.5906,-4.5893,-4.5905,-4.5911,-4.5911,-4.5911,-4.5911,-4.5911,-4.5911,-4.5911,-4.5911,-4.5911,-4.5923,-4.5955,-4.5955,-4.5953,-4.5964,-4.5964,-4.5964,-4.5964,-4.5964,-4.5964,-4.5975,-4.6041,-4.6061,-4.609,-4.6174,-4.6192,-4.6199,-4.6199,-4.6199,-4.6199,-4.6199,-4.6199,-4.6199,-4.6199,-4.6199,-4.6199,-4.6199,-4.6199,-4.6199,-4.6199,-4.653,-4.6959,-4.7462,-4.7832,-4.8261,-4.8787,-4.8806,-4.8806,-4.8806,-4.8806,-4.8962,-4.9294,-4.8456,-4.8475,-4.9313,-4.9811,-5.0251,0.0,0.0,0.0,0.0,-3.4674,0.0,-3.6806,-3.7352,-3.7994,-3.9684,0.0,0.0,0.0,0.0,0.0,0.0,0.0,0.0,0.0,0.0,0.0,0.0,0.0,0.0,-4.0496,-4.0496,-4.0496,-4.0496,-4.0504,-4.0542,-4.0607,-4.0739,-4.0797,-4.0797,-4.0797,-4.0797,-4.0797,-4.0797,-4.0797,-4.0797,-4.0797,-4.0797,-4.0797,-4.0797,-4.0797,-4.0797,-4.0797,-4.1738,-4.3305,-4.3305,-4.4291,-4.5807,-4.586,-4.5893,-4.59,-4.5886,-4.5899,-4.5899,-4.5899,-4.5899,-4.5899,-4.5899,-4.5899,-4.5899,-4.5899,-4.588,-4.5905,-4.5911,-4.5911,-4.5911,-4.5911,-4.5911,-4.5911,-4.5911,-4.5911,-4.5917,-4.5986,-4.5991,-4.6044,-4.6156,-4.6174,-4.6189,-4.6196,-4.6196,-4.6196,-4.6199,-4.6199,-4.6199,-4.6199,-4.6199,-4.6199,-4.6199,-4.6297,-4.6336,-4.6336,-4.7131,-4.7676,-4.7774,-4.8495,-4.8982,-4.906,-4.9079,-4.9079,-4.9079,-4.9079,-4.943,-5.0131,-4.943,-4.9449,-5.0131,-5.0131,-5.0552,0.0,0.0,0.0,0.0,0.0,0.0,-3.5009,-3.5126,-3.5511,0.0,0.0,0.0,0.0,0.0,0.0,0.0,0.0,0.0,0.0,0.0,0.0,0.0,0.0,0.0,-4.0496,-4.0496,-4.0496,-4.0496,-4.0557,-4.0593,-4.0595,-4.0739,-4.0797,-4.0797,-4.0797,-4.0797,-4.0797,-4.0797,-4.0797,-4.0797,-4.0797,-4.0797,-4.0797,-4.0797,-4.0797,-4.0797,-4.0797,-4.1738,-4.3305,-4.3305,-4.4291,-4.5807,-4.5814,-4.5814,-4.5814,-4.5821,-4.5827,-4.5827,-4.5827,-4.5827,-4.5827,-4.5827,-4.5827,-4.5827,-4.5827,-4.5867,-4.5893,-4.5905,-4.5911,-4.5911,-4.5911,-4.5911,-4.5911,-4.5911,-4.5911,-4.5892,-4.5917,-4.596,-4.6003,-4.6025,-4.609,-4.6132,-4.6189,-4.6193,-4.6201,-4.6196,-4.6199,-4.6199,-4.6199,-4.6199,-4.6199,-4.6199,-4.6823,-4.7248,-4.7248,-4.8047,-4.8826,-4.9469,-4.9664,-5.0073,-5.0774,-5.0813,-5.0813,-5.0813,-5.0813,-5.0891,-5.1047,-5.0891,-5.0891,-5.1047,-5.1047,-5.1145,0.0,0.0,0.0,-3.4124,0.0,0.0,0.0,-3.5105,-3.5472,-3.6489,0.0,0.0,0.0,0.0,0.0,0.0,0.0,0.0,0.0,0.0,0.0,0.0,0.0,0.0,-4.0496,-4.0496,-4.0496,-4.0496,-4.0569,-4.0612,-4.0595,-4.07,-4.0778,-4.0797,-4.0797,-4.0797,-4.0797,-4.0797,-4.0797,-4.0797,-4.0797,-4.0797,-4.0797,-4.0797,-4.0797,-4.0797,-4.0797,-4.1506,-4.2686,-4.3131,-4.4059,-4.5239,-4.5652,-4.5807,-4.5807,-4.5807,-4.5807,-4.5807,-4.5807,-4.5807,-4.5807,-4.5807,-4.5807,-4.5807,-4.5807,-4.5821,-4.5854,-4.5854,-4.5861,-4.5861,-4.5861,-4.5861,-4.5861,-4.5861,-4.5861,-4.5861,-4.5861,-4.5874,-4.5912,-4.5944,-4.5974,-4.6025,-4.6123,-4.6145,-4.6162,-4.6181,-4.6192,-4.6199,-4.6199,-4.6199,-4.6375,-4.6803,-4.7248,-4.7676,-4.8105,-4.8923,-4.9566,-4.9976,-5.0404,-5.0833,-5.1281,-5.13,-5.13,-5.13,-5.13,-5.13,-5.13,-5.13,-5.13,-5.13,-5.13,-5.13,0.0,0.0,0.0,0.0,0.0,-3.4037,0.0,0.0,0.0,0.0,0.0,0.0,0.0,0.0,0.0,0.0,0.0,0.0,0.0,0.0,0.0,0.0,0.0,0.0,0.0,-4.0015,-4.015,-4.0477,-4.0257,-4.0263,-4.0568,-4.0661,-4.0733,-4.0797,-4.0797,-4.0797,-4.0797,-4.0797,-4.0797,-4.0797,-4.0797,-4.0797,-4.0797,-4.0797,-4.0797,-4.0797,-4.0797,-4.1255,-4.2048,-4.2763,-4.3672,-4.4671,-4.549,-4.5807,-4.5807,-4.5807,-4.5807,-4.5807,-4.5807,-4.5807,-4.5807,-4.5807,-4.5807,-4.5807,-4.5807,-4.5807,-4.5807,-4.5807,-4.5807,-4.5807,-4.5807,-4.5807,-4.5807,-4.5807,-4.5807,-4.5807,-4.5807,-4.5807,-4.5814,-4.586,-4.5886,-4.5912,-4.6065,-4.6081,-4.6104,-4.6145,-4.617,-4.6181,-4.6185,-4.6321,-4.6714,-4.7423,-4.779,-4.8277,-4.8962,-4.9781,-5.0248,-5.0248,-5.0911,-5.13,-5.13,-5.13,-5.13,-5.13,-5.13,-5.13,-5.13,-5.13,-5.13,-5.13,-5.13,-5.13,0.0,0.0,0.0,0.0,-3.2755,0.0,0.0,0.0,-3.2004,-3.2352,0.0,0.0,0.0,0.0,0.0,0.0,0.0,0.0,0.0,0.0,0.0,0.0,0.0,0.0,0.0,-3.8277,-3.8892,-4.04,-3.9187,-3.9036,-4.0511,-4.0661,-4.0733,-4.0797,-4.0797,-4.0797,-4.0797,-4.0797,-4.0797,-4.0797,-4.0797,-4.0797,-4.0797,-4.0797,-4.0797,-4.0797,-4.0797,-4.1255,-4.2009,-4.2106,-4.3131,-4.4671,-4.549,-4.5807,-4.5807,-4.5807,-4.5807,-4.5807,-4.5807,-4.5807,-4.5807,-4.5807,-4.5807,-4.5807,-4.5807,-4.5807,-4.5807,-4.5807,-4.5807,-4.5807,-4.5807,-4.5807,-4.5807,-4.5807,-4.5807,-4.5807,-4.5807,-4.5807,-4.5807,-4.5814,-4.5814,-4.5848,-4.5991,-4.6008,-4.6,-4.6032,-4.6076,-4.6119,-4.6102,-4.6783,-4.7322,-4.7478,-4.883,-4.9761,-4.9859,-5.0657,-5.1145,-5.1145,-5.1242,-5.13,-5.13,-5.13,-5.13,-5.13,-5.13,-5.13,-5.13,-5.13,-5.13,-5.13,-5.13,-5.13,0.0,0.0,0.0,0.0,0.0,0.0,-3.169,0.0,-3.1434,0.0,0.0,0.0,0.0,0.0,0.0,0.0,-3.2481,0.0,0.0,0.0,0.0,0.0,0.0,0.0,0.0,0.0,0.0,0.0,-3.8972,-3.8796,-4.0511,-4.0628,-4.07,-4.079,-4.0797,-4.0797,-4.0797,-4.0797,-4.0797,-4.0797,-4.0797,-4.0797,-4.0797,-4.0797,-4.0797,-4.0797,-4.0797,-4.099,-4.1332,-4.1816,-4.2434,-4.3189,-4.402,-4.4929,-4.5807,-4.5807,-4.5807,-4.5807,-4.5807,-4.5807,-4.5807,-4.5807,-4.5807,-4.5807,-4.5807,-4.5807,-4.5807,-4.5807,-4.5807,-4.5807,-4.5807,-4.5807,-4.5807,-4.5807,-4.5807,-4.5807,-4.5807,-4.5807,-4.5807,-4.5807,-4.5807,-4.5821,-4.5867,-4.5925,-4.596,-4.5989,-4.6021,-4.6217,-4.6727,-4.7111,-4.7729,-4.8783,-4.9551,-5.0198,-5.0655,-5.1025,-5.1267,-5.13,-5.1292,-5.1296,-5.1304,-5.1292,-5.1292,-5.1304,-5.1292,-5.13,-5.13,-5.13,-5.13,-5.13,-5.13,-5.13,-3.1696,0.0,0.0,0.0,0.0,0.0,0.0,0.0,0.0,0.0,0.0,0.0,0.0,0.0,0.0,0.0,0.0,-3.1414,0.0,0.0,0.0,0.0,0.0,0.0,0.0,0.0,0.0,0.0,0.0,-3.8286,-4.0477,-4.0593,-4.0647,-4.0778,-4.0778,-4.0784,-4.0797,-4.0797,-4.0797,-4.0797,-4.0797,-4.0797,-4.0797,-4.0797,-4.0797,-4.0797,-4.0797,-4.0797,-4.0855,-4.1429,-4.1796,-4.2067,-4.2705,-4.3827,-4.5142,-4.5374,-4.5613,-4.5807,-4.5807,-4.5807,-4.5807,-4.5807,-4.5807,-4.5807,-4.5807,-4.5807,-4.5807,-4.5807,-4.5807,-4.5807,-4.5807,-4.5807,-4.5807,-4.5807,-4.5807,-4.5807,-4.5807,-4.5807,-4.5807,-4.5807,-4.5807,-4.5807,-4.5807,-4.5848,-4.5893,-4.5937,-4.616,-4.6566,-4.7192,-4.7695,-4.8474,-4.9734,-5.0125,-5.0549,-5.1162,-5.1206,-5.122,-5.1278,-5.1272,-5.1276,-5.1278,-5.1276,-5.1276,-5.1278,-5.1276,-5.1284,-5.1292,-5.1292,-5.1292,-5.13,-5.13,-5.13,0.0,0.0,0.0,-3.0834,0.0,0.0,0.0,0.0,-2.9078,0.0,0.0,0.0,0.0,0.0,0.0,0.0,0.0,0.0,0.0,0.0,0.0,0.0,0.0,0.0,0.0,0.0,0.0,0.0,0.0,0.0,-4.0414,-4.0607,-4.0624,-4.07,-4.07,-4.0739,-4.0797,-4.0797,-4.0797,-4.0797,-4.0797,-4.0797,-4.0797,-4.0797,-4.0797,-4.0797,-4.0797,-4.0797,-4.0797,-4.0835,-4.1293,-4.2009,-4.2028,-4.2589,-4.3479,-4.4323,-4.5123,-4.5807,-4.5807,-4.5807,-4.5807,-4.5807,-4.5807,-4.5807,-4.5807,-4.5807,-4.5807,-4.5807,-4.5807,-4.5807,-4.5807,-4.5807,-4.5807,-4.5807,-4.5807,-4.5807,-4.5807,-4.5807,-4.5807,-4.5807,-4.5807,-4.5807,-4.5807,-4.5807,-4.5807,-4.5807,-4.6577,-4.7172,-4.7204,-4.8684,-4.9737,-4.9792,-5.0561,-5.1097,-5.1189,-5.1196,-5.1211,-5.1191,-5.1191,-5.1191,-5.1191,-5.1191,-5.1191,-5.1191,-5.1191,-5.1244,-5.1291,-5.1291,-5.13,-5.13,-5.13,-5.13,0.0,0.0,-3.4743,-3.1733,0.0,0.0,0.0,0.0,0.0,0.0,0.0,0.0,0.0,0.0,0.0,0.0,0.0,0.0,0.0,0.0,0.0,0.0,0.0,0.0,0.0,0.0,0.0,0.0,0.0,0.0,0.0,-4.0516,-4.0546,-4.0694,-4.0614,-4.0647,-4.0797,-4.0797,-4.0797,-4.0797,-4.0797,-4.0797,-4.0797,-4.0797,-4.0797,-4.0797,-4.0797,-4.0797,-4.0797,-4.0797,-4.0971,-4.1222,-4.1222,-4.1699,-4.2628,-4.4078,-4.4775,-4.5084,-4.5633,-4.5807,-4.5807,-4.5807,-4.5807,-4.5807,-4.5807,-4.5807,-4.5807,-4.5807,-4.5807,-4.5807,-4.5807,-4.5807,-4.5807,-4.5807,-4.5807,-4.5807,-4.5807,-4.5807,-4.5807,-4.5807,-4.5807,-4.5807,-4.5807,-4.5807,-4.5807,-4.5807,-4.6568,-4.7337,-4.7925,-4.9018,-4.9949,-5.0532,-5.0907,-5.1108,-5.1126,-5.1178,-5.1205,-5.1205,-5.1201,-5.1201,-5.1205,-5.1201,-5.1201,-5.1205,-5.1201,-5.1215,-5.1225,-5.1225,-5.1258,-5.13,-5.13,-5.1308,-3.4835,-3.5477,0.0,-3.2926,-3.3018,0.0,-3.0467,0.0,0.0,0.0,0.0,0.0,0.0,0.0,0.0,0.0,0.0,0.0,0.0,-2.9005,0.0,0.0,0.0,0.0,0.0,0.0,0.0,0.0,0.0,0.0,0.0,0.0,-4.0406,-4.0519,-4.0446,-4.0492,-4.07,-4.07,-4.07,-4.07,-4.07,-4.07,-4.07,-4.064,-4.0687,-4.079,-4.0713,-4.07,-4.07,-4.0759,-4.0752,-4.07,-4.07,-4.1048,-4.1777,-4.3498,-4.4504,-4.5104,-4.5633,-4.5807,-4.5807,-4.5807,-4.5807,-4.5807,-4.5807,-4.5807,-4.5807,-4.5807,-4.5807,-4.5807,-4.5807,-4.5807,-4.5807,-4.5807,-4.5807,-4.5807,-4.5807,-4.5807,-4.5807,-4.5807,-4.5807,-4.5807,-4.5807,-4.5807,-4.5807,-4.5807,-4.6806,-4.7773,-4.8333,-4.94,-5.0344,-5.0905,-5.102,-5.1074,-5.1095,-5.1152,-5.1161,-5.1161,-5.1184,-5.1194,-5.1192,-5.1189,-5.1194,-5.1192,-5.1189,-5.1205,-5.1196,-5.1196,-5.1211,-5.1254,-5.1254,-5.1263]},{"header":{"parameterUnit":"m.s-1","parameterCategory":1,"la1":30.6,"la2":29.2853,"lo1":-89.7004,"lo2":-87.6739,"dy":0.0162,"dx":0.0183,"nx":112,"ny":82,"refTime":"2024-04-14T18:00:00:Z","depth":0,"parameterNumber":3,"parameterNumberName":"V-component_of_WINDS"},"data":[0.0,0.0,0.0,0.0,0.0,0.0,0.0,0.0,0.0,0.0,0.0,0.0,0.0,0.0,0.0,0.0,0.0,0.0,0.0,0.0,0.0,0.0,0.0,0.0,0.0,0.0,0.0,0.0,0.0,0.0,0.0,0.0,0.0,0.0,0.0,0.0,0.0,0.0,0.0,0.0,0.0,0.0,0.0,0.0,0.0,0.0,0.0,0.0,0.0,0.0,0.0,0.0,0.0,0.0,0.0,0.0,0.0,0.0,0.0,0.0,0.0,0.0,0.0,0.0,0.0,0.0,0.0,0.0,0.0,0.0,0.0,0.0,0.0,0.0,0.0,0.0,0.0,0.0,0.0,0.0,0.0,0.0,0.0,0.0,0.0,0.0,0.0,0.0,0.0,0.0,-0.8742,-0.8742,-0.8699,-0.8627,-0.8403,-0.8365,-0.794,-0.6903,0.0,0.0,0.0,0.0,0.0,0.0,0.0,0.0,0.0,0.0,0.0,0.0,0.0,0.0,0.0,0.0,0.0,0.0,0.0,0.0,0.0,0.0,0.0,0.0,0.0,0.0,0.0,0.0,0.0,0.0,0.0,0.0,0.0,0.0,0.0,0.0,0.0,0.0,0.0,0.0,0.0,0.0,0.0,0.0,0.0,0.0,0.0,0.0,0.0,0.0,0.0,0.0,0.0,0.0,0.0,0.0,0.0,0.0,0.0,0.0,0.0,0.0,0.0,0.0,0.0,0.0,0.0,0.0,0.0,0.0,0.0,0.0,0.0,0.0,0.0,0.0,0.0,0.0,0.0,0.0,0.0,0.0,0.0,0.0,0.0,0.0,0.0,0.0,0.0,0.0,0.0,0.0,0.0,0.0,0.0,0.0,0.0,0.0,0.0,0.0,0.0,0.0,0.0,0.0,-0.8941,-0.8965,-0.8813,-0.8627,-0.8403,-0.8255,-0.7718,-0.6714,0.0,0.0,0.0,0.0,0.0,0.0,0.0,0.0,0.0,0.0,0.0,0.0,0.0,0.0,0.0,0.0,0.0,0.0,0.0,0.0,0.0,0.0,0.0,0.0,0.0,0.0,0.0,0.0,0.0,0.0,0.0,0.0,0.0,0.0,0.0,0.0,0.0,0.0,0.0,0.0,0.0,0.0,0.0,0.0,0.0,0.0,0.0,0.0,0.0,0.0,0.0,0.0,0.0,0.0,0.0,0.0,0.0,0.0,0.0,0.0,0.0,0.0,0.0,0.0,0.0,0.0,0.0,0.0,0.0,0.0,0.0,0.0,0.0,0.0,0.0,0.0,0.0,0.0,0.0,0.0,0.0,0.0,0.0,0.0,0.0,0.0,0.0,0.0,0.0,0.0,0.0,0.0,0.0,0.0,0.0,0.0,0.0,0.0,0.0,0.0,0.0,0.0,0.0,-0.8984,-0.9018,-0.9003,-0.8932,-0.8784,-0.8589,-0.8475,-0.7897,-0.6626,-0.6672,0.0,0.0,0.0,0.0,0.0,0.0,0.0,0.0,0.0,0.0,0.0,0.0,0.0,0.0,0.0,0.0,0.0,0.0,0.0,0.0,0.0,0.0,0.0,0.0,0.0,0.0,0.0,0.0,0.0,0.0,0.0,0.0,0.0,0.0,0.0,0.0,0.0,0.0,0.0,0.0,0.0,0.0,0.0,0.0,0.0,0.0,0.0,0.0,0.0,0.0,0.0,0.0,0.0,0.0,0.0,0.0,0.0,0.0,0.0,0.0,0.0,0.0,0.0,0.0,0.0,0.0,0.0,0.0,0.0,0.0,0.0,0.0,0.0,0.0,0.0,0.0,0.0,0.0,0.0,0.0,0.0,0.0,0.0,0.0,0.0,0.0,0.0,0.0,0.0,0.0,0.0,0.0,0.0,0.0,0.0,0.0,0.0,0.0,0.0,0.0,0.0,0.0,-0.9137,-0.9208,-0.9193,-0.9165,-0.9056,-0.8861,-0.878,-0.8161,-0.6696,-0.678,0.0,0.0,0.0,0.0,0.0,0.0,0.0,0.0,0.0,0.0,0.0,0.0,0.0,0.0,0.0,0.0,0.0,0.0,0.0,0.0,0.0,0.0,0.0,0.0,0.0,0.0,0.0,0.0,0.0,0.0,0.0,0.0,0.0,0.0,0.0,0.0,0.0,0.0,0.0,0.0,0.0,0.0,0.0,0.0,0.0,0.0,0.0,0.0,0.0,0.0,0.0,0.0,0.0,0.0,0.0,0.0,0.0,0.0,0.0,0.0,0.0,0.0,0.0,0.0,0.0,0.0,0.0,0.0,0.0,0.0,0.0,0.0,0.0,0.0,0.0,0.0,0.0,0.0,0.0,0.0,0.0,0.0,0.0,0.0,0.0,0.0,0.0,0.0,0.0,0.0,0.0,0.0,0.0,0.0,0.0,0.0,0.0,0.0,0.0,0.0,0.0,0.0,-0.962,-0.9846,-0.9841,-0.9657,-0.9473,-0.9284,-0.9094,-0.8365,-0.6976,-0.6899,0.0,0.0,0.0,0.0,0.0,0.0,0.0,0.0,0.0,0.0,0.0,0.0,0.0,0.0,0.0,0.0,0.0,0.0,0.0,0.0,0.0,0.0,0.0,0.0,0.0,0.0,0.0,0.0,0.0,0.0,0.0,0.0,0.0,0.0,0.0,0.0,0.0,0.0,0.0,0.0,0.0,0.0,0.0,0.0,0.0,0.0,0.0,0.0,0.0,0.0,0.0,0.0,0.0,0.0,0.0,0.0,0.0,0.0,0.0,0.0,0.0,0.0,0.0,0.0,0.0,0.0,0.0,0.0,0.0,0.0,0.0,0.0,0.0,0.0,0.0,0.0,0.0,0.0,0.0,0.0,0.0,0.0,0.0,0.0,0.0,0.0,0.0,0.0,0.0,0.0,0.0,0.0,0.0,0.0,0.0,0.0,0.0,0.0,0.0,0.0,0.0,0.0,-0.9435,-0.9587,0.0,-0.9435,-0.9208,-0.9137,-0.8941,-0.8284,-0.6976,0.0,0.0,0.0,0.0,0.0,0.0,0.0,0.0,0.0,0.0,0.0,0.0,0.0,0.0,0.0,0.0,0.0,0.0,0.0,0.0,0.0,0.0,0.0,0.0,0.0,0.0,0.0,0.0,0.0,0.0,0.0,0.0,0.0,0.0,0.0,0.0,0.0,0.0,0.0,0.0,0.0,0.0,0.0,0.0,0.0,0.0,0.0,0.0,0.0,0.0,0.0,0.0,0.0,0.0,0.0,0.0,0.0,0.0,0.0,0.0,0.0,0.0,0.0,0.0,0.0,0.0,0.0,0.0,0.0,0.0,0.0,0.0,0.0,0.0,0.0,0.0,0.0,0.0,0.0,0.0,0.0,0.0,0.0,0.0,0.0,0.0,0.0,0.0,0.0,0.0,0.0,0.0,0.0,0.0,0.0,0.0,0.0,0.0,0.0,0.0,0.0,0.0,-0.9289,-0.9397,-0.9511,0.0,-0.9359,-0.9137,-0.9022,-0.8865,-0.8284,-0.7057,0.0,0.0,0.0,0.0,0.0,0.0,0.0,0.0,0.0,0.0,0.0,0.0,0.0,0.0,0.0,0.0,0.0,0.0,0.0,0.0,0.0,0.0,0.0,0.0,0.0,0.0,0.0,0.0,0.0,0.0,0.0,0.0,0.0,0.0,0.0,0.0,0.0,0.0,0.0,0.0,0.0,0.0,0.0,0.0,0.0,0.0,0.0,0.0,0.0,0.0,0.0,0.0,0.0,0.0,0.0,0.0,0.0,0.0,0.0,0.0,0.0,0.0,0.0,0.0,0.0,0.0,0.0,0.0,0.0,0.0,0.0,0.0,0.0,0.0,0.0,0.0,0.0,0.0,0.0,0.0,0.0,0.0,0.0,0.0,0.0,0.0,0.0,0.0,0.0,0.0,0.0,0.0,0.0,0.0,0.0,0.0,0.0,0.0,0.0,0.0,0.0,0.0,-0.9284,-0.9657,-0.9809,-0.962,-0.9582,-0.9435,-0.9022,-0.8984,-0.8489,0.0,0.0,0.0,0.0,0.0,0.0,0.0,0.0,0.0,0.0,0.0,0.0,0.0,0.0,0.0,0.0,0.0,0.0,0.0,0.0,0.0,0.0,0.0,0.0,0.0,0.0,0.0,0.0,0.0,0.0,0.0,0.0,0.0,0.0,0.0,0.0,0.0,0.0,0.0,0.0,0.0,0.0,0.0,0.0,0.0,0.0,0.0,0.0,0.0,0.0,0.0,0.0,0.0,0.0,0.0,0.0,0.0,0.0,0.0,0.0,0.0,0.0,0.0,0.0,0.0,0.0,0.0,0.0,0.0,0.0,0.0,0.0,0.0,0.0,0.0,0.0,0.0,0.0,0.0,0.0,0.0,0.0,0.0,0.0,0.0,0.0,0.0,0.0,0.0,0.0,0.0,0.0,0.0,0.0,0.0,0.0,0.0,0.0,0.0,0.0,0.0,0.0,0.0,-0.9511,-0.962,-0.9625,-0.9397,-0.8894,-0.8623,-0.878,-0.8399,-0.7868,-0.7257,0.0,0.0,0.0,0.0,0.0,0.0,0.0,0.0,0.0,0.0,0.0,0.0,0.0,0.0,0.0,0.0,0.0,0.0,0.0,0.0,0.0,0.0,0.0,0.0,0.0,0.0,0.0,0.0,0.0,0.0,0.0,0.0,0.0,0.0,0.0,0.0,0.0,0.0,0.0,0.0,0.0,0.0,0.0,0.0,0.0,0.0,0.0,0.0,0.0,0.0,0.0,0.0,0.0,0.0,0.0,0.0,0.0,0.0,0.0,0.0,0.0,0.0,0.0,0.0,0.0,0.0,0.0,0.0,0.0,0.0,0.0,0.0,0.0,0.0,0.0,0.0,0.0,0.0,0.0,0.0,0.0,0.0,0.0,0.0,0.0,0.0,0.0,0.0,0.0,0.0,0.0,0.0,0.0,0.0,0.0,0.0,0.0,0.0,0.0,0.0,0.0,0.0,-0.9473,-0.9549,-0.9392,-0.8894,-0.8389,-0.8084,-0.7974,-0.7936,-0.7744,-0.7334,0.0,0.0,0.0,0.0,0.0,0.0,0.0,0.0,0.0,0.0,0.0,0.0,0.0,0.0,0.0,0.0,0.0,0.0,0.0,0.0,0.0,0.0,0.0,0.0,0.0,0.0,0.0,0.0,0.0,0.0,0.0,0.0,0.0,0.0,0.0,0.0,0.0,0.0,0.0,0.0,0.0,0.0,0.0,0.0,0.0,0.0,0.0,0.0,0.0,0.0,0.0,0.0,0.0,0.0,0.0,0.0,0.0,0.0,0.0,0.0,0.0,0.0,0.0,0.0,0.0,0.0,0.0,0.0,0.0,0.0,0.0,0.0,0.0,0.0,0.0,0.0,0.0,0.0,0.0,0.0,0.0,0.0,0.0,0.0,0.0,0.0,0.0,0.0,0.0,0.0,0.0,0.0,0.0,0.0,0.0,0.0,0.0,0.0,0.0,0.0,0.0,0.0,-0.9359,-0.9473,-0.9198,-0.8199,-0.808,-0.774,-0.6976,-0.7548,-0.7817,-0.7518,0.0,0.0,0.0,0.0,0.0,0.0,0.0,0.0,0.0,0.0,0.0,0.0,0.0,0.0,0.0,0.0,0.0,0.0,0.0,0.0,0.0,0.0,0.0,0.0,0.0,0.0,0.0,0.0,0.0,0.0,0.0,0.0,0.0,0.0,0.0,0.0,0.0,0.0,0.0,0.0,0.0,0.0,0.0,0.0,0.0,0.0,0.0,0.0,0.0,0.0,0.0,0.0,0.0,0.0,0.0,0.0,0.0,0.0,0.0,0.0,-0.6484,0.0,0.0,0.0,0.0,0.0,0.0,0.0,0.0,0.0,0.0,0.0,0.0,0.0,0.0,0.0,0.0,0.0,0.0,0.0,0.0,0.0,0.0,0.0,0.0,0.0,0.0,0.0,0.0,0.0,0.0,0.0,0.0,0.0,0.0,0.0,0.0,0.0,0.0,0.0,0.0,0.0,-0.9549,-0.9587,-0.9198,-0.8199,-0.7821,-0.7484,-0.718,-0.6984,-0.7096,-0.748,-0.7672,0.0,0.0,0.0,0.0,0.0,0.0,0.0,0.0,0.0,0.0,0.0,0.0,0.0,0.0,0.0,0.0,0.0,0.0,0.0,0.0,0.0,0.0,0.0,0.0,0.0,0.0,0.0,0.0,0.0,0.0,0.0,0.0,0.0,0.0,0.0,0.0,0.0,0.0,0.0,0.0,0.0,0.0,0.0,0.0,0.0,0.0,0.0,0.0,0.0,0.0,0.0,0.0,0.0,0.0,0.0,0.0,0.0,0.0,0.0,0.0,-0.6459,0.0,0.0,0.0,0.0,0.0,0.0,0.0,0.0,0.0,0.0,0.0,0.0,0.0,0.0,0.0,0.0,0.0,0.0,0.0,0.0,0.0,0.0,0.0,0.0,0.0,0.0,0.0,0.0,0.0,0.0,0.0,0.0,0.0,0.0,0.0,0.0,0.0,0.0,0.0,0.0,-0.9322,-0.9322,-0.8861,-0.7663,-0.7322,-0.6903,-0.6215,-0.6289,-0.6556,-0.6861,-0.7169,0.0,0.0,0.0,0.0,0.0,0.0,0.0,0.0,0.0,0.0,0.0,0.0,0.0,0.0,0.0,0.0,0.0,0.0,0.0,0.0,0.0,0.0,0.0,0.0,0.0,0.0,0.0,0.0,0.0,0.0,0.0,0.0,0.0,0.0,0.0,0.0,0.0,0.0,0.0,0.0,0.0,0.0,0.0,0.0,0.0,0.0,0.0,0.0,0.0,0.0,0.0,0.0,0.0,-0.6809,-0.7068,-0.7144,-0.7502,-0.7767,-0.7942,-0.7843,-0.7385,-0.6682,-0.5821,0.0,0.0,0.0,0.0,0.0,0.0,0.0,0.0,0.0,0.0,0.0,0.0,0.0,0.0,0.0,0.0,0.0,0.0,0.0,0.0,0.0,0.0,0.0,0.0,-0.9128,-0.957,0.0,0.0,0.0,0.0,0.0,0.0,0.0,0.0,0.0,0.0,0.0,0.0,-0.9119,-0.9038,-0.8482,-0.7061,-0.6942,-0.644,-0.5171,-0.5705,-0.6128,-0.6282,-0.6633,-0.713,0.0,0.0,0.0,0.0,0.0,0.0,0.0,0.0,0.0,0.0,0.0,0.0,0.0,0.0,0.0,0.0,0.0,0.0,0.0,0.0,0.0,0.0,0.0,0.0,0.0,0.0,0.0,0.0,0.0,0.0,0.0,0.0,-0.3568,-0.425,0.0,0.0,0.0,0.0,0.0,0.0,0.0,0.0,0.0,0.0,0.0,0.0,0.0,-0.6002,-0.6104,-0.6448,-0.6638,-0.6638,-0.7005,-0.7372,-0.7699,-0.7948,-0.825,-0.8581,-0.8543,0.0,-0.6887,-0.6141,0.0,0.0,0.0,0.0,0.0,0.0,0.0,0.0,0.0,0.0,0.0,0.0,0.0,0.0,0.0,0.0,0.0,0.0,0.0,0.0,0.0,0.0,-0.8809,-0.9312,-0.9526,-0.9653,0.0,-0.9661,-0.954,-0.9822,-0.9822,0.0,0.0,0.0,0.0,0.0,0.0,0.0,-0.9316,-0.9252,-0.8673,-0.7072,-0.7061,-0.6641,-0.5359,-0.5518,-0.5944,-0.6521,-0.6598,-0.698,-0.7783,-0.7595,0.0,0.0,0.0,0.0,0.0,0.0,0.0,0.0,0.0,0.0,0.0,0.0,0.0,0.0,0.0,0.0,0.0,0.0,0.0,0.0,0.0,0.0,0.0,0.0,0.0,0.0,0.0,0.0,0.0,-0.2105,-0.2942,-0.3145,-0.28,-0.256,0.0,0.0,0.0,0.0,0.0,0.0,0.0,0.0,0.0,-0.595,-0.621,-0.6482,-0.6745,-0.7023,-0.7141,-0.7141,-0.7413,-0.7677,-0.7979,-0.8292,-0.8576,-0.8849,-0.8602,-0.8195,-0.7658,-0.6614,-0.5704,-0.485,0.0,0.0,0.0,0.0,-0.3837,-0.3869,-0.4074,-0.4351,0.0,-0.4493,0.0,0.0,0.0,0.0,0.0,0.0,0.0,0.0,0.0,0.0,0.0,-0.9499,-0.9727,-0.9893,-1.0062,-0.9978,-0.9826,0.0,-0.975,-0.9622,-0.925,0.0,0.0,0.0,0.0,-0.9507,-0.8837,-0.8743,-0.8184,-0.6703,-0.6659,-0.6304,-0.5311,-0.5308,-0.5477,-0.5679,-0.5825,-0.617,-0.6857,-0.6942,-0.7176,0.0,0.0,0.0,0.0,0.0,0.0,0.0,0.0,0.0,0.0,0.0,0.0,0.0,0.0,0.0,0.0,0.0,0.0,0.0,0.0,0.0,0.0,0.0,0.0,0.0,0.0,0.0,0.0,-0.2368,-0.2893,-0.2478,-0.2793,-0.2816,0.0,0.0,0.0,0.0,0.0,0.0,-0.5326,-0.5518,-0.5828,-0.6299,-0.653,-0.6877,-0.7256,-0.7419,-0.7484,-0.7484,-0.7691,-0.7949,-0.8181,-0.8537,-0.8826,-0.903,-0.8521,-0.8213,-0.7971,-0.6797,-0.5924,-0.5266,-0.4535,-0.423,-0.4193,-0.423,-0.4267,-0.4267,-0.4485,-0.4814,-0.5111,-0.4851,0.0,-0.5289,-0.5396,0.0,0.0,0.0,0.0,-0.7382,-0.8008,-0.8584,-0.906,-0.9103,-0.9273,-0.9462,-0.9637,-0.968,-0.9727,0.0,-0.9746,-0.9539,-0.9031,0.0,0.0,0.0,0.0,-0.9179,-0.8458,-0.8201,-0.7643,-0.6443,-0.6315,-0.6027,-0.5322,-0.5233,-0.5197,-0.5113,-0.519,-0.5563,-0.622,-0.6539,-0.7022,-0.7706,0.0,0.0,0.0,0.0,0.0,0.0,0.0,0.0,0.0,0.0,0.0,0.0,0.0,0.0,0.0,0.0,0.0,0.0,0.0,0.0,0.0,0.0,0.0,0.0,0.0,0.0,0.0,0.0,0.0,-0.3436,-0.4116,0.0,0.0,0.0,0.0,-0.446,-0.5075,-0.5548,-0.5767,-0.5902,-0.624,-0.683,-0.6882,-0.7084,-0.7468,-0.748,-0.7484,-0.7484,-0.7702,-0.8022,-0.8374,-0.8617,-0.891,-0.9268,-0.8578,-0.7963,-0.7375,-0.6478,-0.5968,-0.5704,-0.4959,-0.4603,-0.4487,-0.4606,-0.4683,-0.4683,-0.488,-0.4999,-0.5074,-0.5571,-0.5604,-0.56,-0.629,-0.6175,0.0,0.0,-0.774,-0.7919,-0.8201,-0.8315,-0.8259,-0.7961,-0.7914,-0.7921,-0.7921,-0.8448,-0.9235,0.0,-1.0091,-0.9966,-0.9918,0.0,-0.9961,-0.9918,-0.9348,-0.8845,-0.8628,-0.797,-0.7228,-0.637,-0.6315,-0.6067,-0.5444,-0.5402,-0.5399,-0.5394,-0.5281,-0.5577,-0.6338,-0.6713,-0.7096,-0.7522,-0.8097,0.0,0.0,0.0,0.0,0.0,0.0,0.0,0.0,0.0,0.0,0.0,0.0,0.0,0.0,0.0,0.0,0.0,0.0,0.0,0.0,0.0,0.0,0.0,0.0,0.0,0.0,0.0,0.0,-0.3448,-0.4318,0.0,-0.417,-0.4367,-0.4718,-0.5123,-0.5566,-0.5838,-0.5912,-0.6204,-0.6554,-0.6889,-0.703,-0.7215,-0.7484,-0.7641,-0.7702,-0.7702,-0.8006,-0.8337,-0.8621,-0.8944,-0.8992,-0.882,-0.8211,-0.7615,-0.697,-0.6156,-0.5743,-0.5503,-0.5257,-0.5119,-0.5078,-0.5119,-0.5159,-0.5159,-0.5243,-0.5243,-0.5284,-0.5485,-0.5763,-0.6025,-0.6179,-0.635,-0.6566,-0.6894,-0.721,-0.7483,-0.7558,-0.7796,-0.7947,-0.7848,-0.779,-0.779,-0.779,-0.8009,-0.8273,-0.8623,-0.9021,-0.9021,-0.8101,-0.8317,-0.8452,-0.8009,-0.8097,-0.799,-0.7498,-0.7229,-0.6773,-0.5996,-0.5904,-0.5872,-0.5744,-0.5571,-0.5495,-0.5588,-0.5413,-0.5431,-0.5632,-0.6102,-0.6624,-0.7099,-0.7821,-0.8318,0.0,0.0,0.0,0.0,0.0,0.0,0.0,0.0,0.0,0.0,0.0,0.0,0.0,0.0,0.0,0.0,0.0,0.0,0.0,0.0,0.0,0.0,0.0,0.0,0.0,0.0,-0.3554,-0.3129,-0.4417,-0.5167,-0.4716,-0.4961,-0.531,-0.5734,-0.5979,-0.6108,-0.6108,-0.643,-0.6676,-0.6903,-0.7103,-0.7323,-0.7616,-0.7502,-0.7465,-0.7523,-0.7694,-0.7859,-0.8113,-0.8424,-0.8459,-0.8287,-0.7614,-0.7129,-0.6735,-0.5994,-0.5638,-0.5494,-0.5494,-0.5494,-0.5494,-0.5494,-0.5494,-0.5494,-0.5494,-0.5494,-0.5494,-0.5494,-0.5789,-0.6108,-0.6226,-0.6529,-0.6877,-0.6983,-0.718,-0.7337,-0.713,-0.7282,-0.7394,-0.7132,-0.7092,-0.7092,-0.7092,-0.7309,-0.7394,-0.7136,-0.7881,-0.8229,-0.7305,-0.7526,-0.7658,-0.7217,-0.7305,-0.7305,-0.6868,-0.6605,-0.6257,-0.5733,-0.5688,-0.5744,-0.5834,-0.5654,-0.5621,-0.5715,-0.554,-0.5393,-0.5311,-0.5843,-0.6318,-0.6638,-0.7543,-0.8394,-0.9208,0.0,0.0,0.0,0.0,0.0,0.0,0.0,0.0,0.0,0.0,0.0,0.0,0.0,0.0,0.0,0.0,0.0,0.0,0.0,0.0,0.0,0.0,0.0,-0.0351,-0.212,-0.3175,-0.2523,-0.4538,-0.5735,-0.5093,-0.5623,-0.6098,-0.6289,-0.63,-0.63,-0.63,-0.6486,-0.6714,-0.6903,-0.7069,-0.7387,-0.776,-0.7049,-0.6806,-0.6992,-0.6681,-0.6665,-0.6926,-0.7028,-0.7356,-0.7702,-0.6823,-0.6561,-0.6691,-0.5994,-0.5688,-0.5688,-0.5688,-0.5688,-0.5688,-0.5688,-0.5688,-0.5688,-0.5688,-0.5688,-0.5688,-0.5688,-0.5688,-0.5819,-0.6561,-0.6779,-0.6908,-0.757,-0.7746,-0.757,-0.6956,-0.6779,-0.6605,-0.5863,-0.5688,-0.5688,-0.5688,-0.6257,-0.6561,-0.5819,-0.6786,-0.7746,-0.7746,-0.7746,-0.7746,-0.7746,-0.7173,0.0,-0.6779,-0.6124,-0.5688,-0.5688,-0.5688,-0.5688,-0.5733,-0.5688,-0.5688,-0.5733,-0.5578,-0.551,-0.5508,-0.5978,-0.622,-0.6086,-0.7227,-0.8178,-0.8956,0.0,0.0,0.0,0.0,0.0,0.0,0.0,0.0,0.0,0.0,0.0,0.0,0.0,0.0,0.0,0.0,0.0,0.0,0.0,0.0,0.0,0.0145,-0.0333,-0.0925,-0.247,-0.3636,-0.3825,-0.5084,-0.5921,-0.5925,-0.612,-0.6252,-0.6296,-0.63,-0.63,-0.63,-0.6637,-0.6826,-0.6903,-0.6866,-0.6875,-0.6998,-0.6561,-0.6434,-0.6646,-0.67,-0.6812,-0.7034,-0.7295,-0.718,-0.6779,-0.6735,-0.6432,-0.5994,-0.5777,-0.5688,-0.5688,-0.5688,-0.5688,-0.5688,-0.5688,-0.5688,-0.5688,-0.5688,-0.5688,-0.5688,-0.5688,-0.5688,-0.5733,-0.5949,-0.5994,-0.6038,-0.6216,-0.6257,-0.6216,-0.6038,-0.5994,-0.5952,-0.5733,-0.5688,-0.5688,-0.5688,-0.5863,-0.5949,-0.5733,-0.5997,-0.6257,-0.6257,-0.6257,-0.6257,-0.6257,-0.6127,0.0,-0.5994,-0.5822,-0.5688,-0.5688,-0.5688,-0.5777,-0.5952,-0.5822,-0.5777,-0.5997,-0.5789,-0.5599,-0.551,-0.5644,-0.5777,-0.5938,-0.7129,-0.7832,0.0,0.0,0.0,0.0,0.0,0.0,0.0,0.0,0.0,0.0,0.0,0.0,0.0,0.0,0.0,0.0,0.0,0.0,0.0,0.0,0.0,0.0,0.0184,-0.019,-0.069,-0.2186,-0.3544,-0.4292,-0.5276,-0.6018,-0.6261,-0.63,-0.63,-0.63,-0.63,-0.63,-0.63,-0.6741,-0.6852,-0.6577,-0.6729,-0.6719,-0.6493,-0.5981,-0.5826,-0.6057,-0.5951,-0.5988,-0.608,-0.6254,-0.621,0.0,-0.603,-0.5899,-0.5688,-0.5688,-0.5688,0.0,0.0,0.0,0.0,0.0,-0.5688,-0.5688,-0.5688,-0.5688,-0.5688,-0.5688,-0.5688,-0.5688,-0.5688,-0.5688,-0.5688,-0.5688,-0.5688,-0.5688,-0.5688,-0.5688,-0.5688,-0.5688,-0.5688,-0.5688,-0.5688,-0.5688,-0.5688,-0.5688,-0.5688,0.0,-0.5688,-0.5688,-0.5688,-0.5688,-0.5688,-0.5688,-0.5688,-0.5688,-0.5688,-0.5688,-0.5688,-0.5777,-0.5908,-0.5777,0.0,0.0,0.0,-0.5656,-0.5586,-0.5534,0.0,0.0,0.0,-0.75,-0.766,0.0,0.0,0.0,-0.9094,-0.9213,0.0,0.0,0.0,0.0,0.0,0.0,0.0,0.0,0.0,0.0,0.0,0.0,0.0,0.0,0.0,0.0,0.0149,-0.0038,-0.0117,-0.1606,-0.3052,-0.4109,-0.516,-0.5902,-0.6261,-0.63,-0.63,-0.63,-0.63,-0.6268,-0.6207,0.0,0.0,0.0,0.0,-0.657,-0.6095,-0.5383,-0.5095,-0.5327,-0.4882,-0.4661,-0.4705,-0.4705,-0.4928,-0.5327,-0.5144,-0.528,-0.5688,-0.5688,-0.5688,-0.5688,-0.5688,-0.5688,-0.5688,-0.5644,-0.5644,-0.5688,-0.5644,0.0,0.0,-0.5644,-0.5644,-0.5644,-0.5644,-0.5644,-0.5688,-0.5688,-0.5688,-0.5688,-0.5688,-0.5688,-0.5688,-0.5688,-0.5688,-0.5688,-0.5688,-0.5688,-0.5688,-0.5688,-0.5688,-0.5688,-0.5688,-0.5688,-0.5688,-0.5688,-0.5688,-0.5688,-0.5688,-0.5688,-0.5688,-0.5688,0.0,0.0,-0.5688,-0.5688,-0.5688,-0.5688,-0.5688,-0.5688,-0.5688,-0.5586,-0.5786,-0.6383,-0.6793,-0.723,-0.7652,-0.8396,-0.8719,-0.8737,-0.8918,-0.9099,0.0,0.0,0.0,0.0,0.0,0.0,0.0,0.0,0.0,0.0,0.0,0.0,0.0,0.0,0.0,0.0328,0.0114,-0.0234,-0.0942,-0.149,-0.2192,-0.3242,-0.4295,-0.5276,-0.6222,-0.63,-0.63,-0.63,-0.63,-0.6077,-0.559,-0.6021,-0.6003,-0.541,-0.5445,-0.5432,-0.5327,-0.4763,-0.4594,-0.4839,0.0,0.0,-0.4705,-0.4705,-0.475,-0.4839,-0.5193,-0.5371,-0.5463,-0.5644,-0.5599,-0.5463,-0.5463,-0.5552,-0.5644,-0.528,-0.5371,-0.5644,-0.528,-0.528,-0.5416,-0.5191,-0.5144,-0.5144,-0.5144,-0.528,0.0,-0.5463,-0.5552,-0.5688,-0.5688,-0.5688,-0.5688,-0.5688,-0.5688,-0.5688,-0.5688,-0.5688,-0.5688,-0.5688,-0.5688,-0.5688,-0.5688,-0.5688,-0.5688,-0.5688,-0.5688,-0.5688,-0.5688,-0.5688,-0.5688,-0.5688,-0.5688,-0.5688,-0.5688,-0.5688,-0.5688,-0.5688,-0.5688,-0.5688,-0.5688,-0.5667,-0.5653,-0.5604,-0.6651,-0.7197,-0.7284,-0.8403,-0.8921,-0.8959,-0.8985,-0.9099,0.0,0.0,0.0,0.0,0.0,0.0,0.0,0.0,0.0,0.0,0.0,0.063,0.056,0.0,0.026,0.0149,0.0077,-0.0157,-0.0589,-0.0903,-0.1607,-0.2934,-0.4064,-0.4963,-0.5592,-0.6064,-0.63,-0.63,-0.6015,-0.5726,-0.5428,-0.5509,-0.5351,-0.4817,-0.4964,-0.4932,-0.4713,-0.4455,-0.4389,-0.448,-0.4344,-0.4389,-0.448,-0.448,-0.4569,-0.4705,-0.4926,-0.5104,-0.5191,-0.5327,-0.528,-0.5191,-0.5104,-0.5193,-0.5327,-0.5099,-0.5146,-0.5327,-0.5099,-0.5099,-0.5191,-0.5191,-0.5099,-0.501,-0.5146,-0.528,-0.5416,-0.5416,-0.5552,-0.5688,-0.5688,-0.5688,-0.5688,-0.5688,-0.5688,-0.5688,-0.5688,-0.5688,-0.5688,-0.5688,-0.5688,-0.5688,-0.5688,-0.5688,-0.5688,-0.5688,-0.5688,-0.5688,-0.5688,-0.5688,-0.5688,-0.5688,-0.5688,-0.5688,-0.5688,-0.5688,-0.5688,-0.5688,-0.5688,-0.5688,-0.5688,-0.5688,-0.5819,-0.6077,-0.6933,-0.7465,-0.7765,-0.8699,-0.9096,-0.9015,-0.9112,-0.9184,0.0,0.0,0.0,0.0,0.0,0.0,0.0,0.1059,0.0888,0.0689,0.051,0.0364,0.0255,0.0223,0.0189,0.0038,0.0,-0.0039,-0.0118,-0.0432,-0.1177,-0.2624,-0.3715,-0.4494,-0.4849,-0.5515,-0.5918,-0.5947,-0.5493,-0.5168,-0.5094,-0.4974,-0.469,-0.4276,-0.4614,-0.461,-0.43,-0.43,-0.43,-0.43,-0.43,-0.43,-0.43,-0.43,-0.4433,-0.4614,-0.4661,-0.4837,-0.501,-0.501,-0.4966,-0.4921,-0.4748,-0.4748,-0.4877,-0.4877,-0.4921,-0.4966,-0.4875,-0.4877,-0.4966,-0.5146,-0.5057,-0.4921,-0.5102,-0.5238,-0.5282,-0.5327,-0.5463,-0.5644,-0.5688,-0.5688,-0.5688,-0.5688,-0.5688,-0.5688,-0.5688,-0.5688,-0.5688,-0.5688,-0.5688,-0.5688,-0.5688,-0.5688,-0.5688,-0.5688,-0.5688,-0.5688,-0.5688,-0.5688,-0.5688,-0.5688,-0.5688,-0.5688,-0.5688,-0.5688,-0.5688,-0.5688,-0.5688,-0.5688,-0.5688,-0.5688,-0.6038,-0.6779,-0.7309,-0.7821,-0.8422,-0.911,-0.9307,-0.9101,-0.9265,-0.9327,0.2172,0.2031,0.1829,0.1507,0.1284,0.1088,0.0,0.0544,0.0327,0.0146,0.0073,0.0036,0.0036,0.0037,0.0038,0.0,0.0,-0.0118,-0.0471,-0.0707,-0.11,-0.1689,-0.2508,-0.3404,-0.4382,-0.454,-0.4619,-0.4678,-0.4658,-0.4378,-0.3914,-0.4109,-0.4069,-0.3707,-0.3896,-0.4123,-0.43,-0.43,-0.43,-0.43,-0.43,-0.43,-0.43,-0.43,-0.43,-0.4344,-0.4614,-0.4837,-0.501,-0.501,-0.4879,-0.475,-0.4705,-0.4569,-0.4389,-0.4389,-0.4654,-0.4921,-0.452,-0.4523,-0.4703,-0.4478,-0.4389,-0.4389,-0.4433,-0.4569,-0.4839,-0.5013,-0.5235,-0.5463,-0.5644,-0.5688,-0.5688,-0.5688,-0.5688,-0.5688,-0.5688,-0.5688,-0.5688,-0.5688,-0.5688,-0.5688,-0.5688,-0.5688,-0.5688,-0.5688,-0.5688,-0.5688,-0.5688,-0.5688,-0.5688,-0.5688,-0.5688,-0.5688,-0.5688,-0.5688,-0.5688,-0.5688,-0.5688,-0.5688,-0.5688,-0.5688,-0.6038,-0.6779,-0.7438,-0.8133,-0.8817,-0.9566,-0.9771,-0.9527,-0.9569,-0.9389,0.202,0.18,0.1548,0.1352,0.122,0.1081,0.082,0.0633,0.0412,0.0228,0.0076,0.0,0.0,0.0,0.0,0.0,0.0,-0.0039,-0.0236,-0.051,-0.0904,-0.1375,-0.1945,-0.2664,-0.3565,-0.4121,-0.4454,-0.4499,-0.42,-0.3918,-0.373,-0.3517,-0.3466,-0.3587,-0.3678,-0.39,-0.43,-0.43,-0.43,-0.43,-0.43,-0.43,-0.43,-0.43,-0.43,-0.43,-0.4433,-0.4523,-0.461,-0.461,-0.452,-0.4484,-0.4494,-0.447,-0.4373,-0.4318,-0.4431,-0.4574,-0.4404,-0.4425,-0.4524,-0.4623,-0.4547,-0.4505,-0.4593,-0.4732,-0.4873,-0.5104,-0.5242,-0.5429,-0.5847,-0.5801,-0.5696,-0.5673,-0.5655,-0.5591,-0.534,-0.528,-0.5327,-0.5508,-0.5508,-0.5552,-0.5688,-0.5688,-0.5688,-0.5688,-0.5688,-0.5688,-0.5688,-0.5688,-0.5688,-0.5688,-0.5688,-0.5688,-0.5688,-0.5688,-0.5688,-0.5688,-0.5688,-0.5688,-0.5688,-0.5688,-0.6216,-0.7349,-0.7658,-0.836,-0.955,-0.9864,-0.9952,-0.9823,-0.9823,-0.9667,0.188,0.1618,0.143,0.1242,0.1142,0.1071,0.0918,0.0727,0.0577,0.0431,0.0236,0.0079,0.0079,0.0039,0.0,0.0,0.0,0.0,-0.0079,-0.0393,-0.0787,-0.1229,-0.173,-0.2224,-0.2839,-0.357,-0.4024,-0.401,-0.3668,-0.3441,-0.3461,-0.3115,-0.3097,-0.3587,-0.3587,-0.381,-0.43,-0.43,-0.43,-0.43,-0.43,-0.43,-0.43,-0.43,-0.43,-0.43,-0.43,-0.4314,-0.4336,-0.4336,-0.4351,-0.4381,-0.4447,-0.4473,-0.4465,-0.44,-0.4375,-0.4383,-0.4451,-0.4473,-0.4483,-0.4735,-0.4711,-0.4619,-0.4759,-0.4804,-0.4851,-0.5138,-0.5185,-0.528,-0.5755,-0.5755,-0.5596,-0.5516,-0.5496,-0.5427,-0.5161,-0.5075,-0.5098,-0.5283,-0.5302,-0.5371,-0.5597,-0.5599,-0.5644,-0.5688,-0.5688,-0.5688,-0.5688,-0.5688,-0.5688,-0.5688,-0.5688,-0.5688,-0.5688,-0.5688,-0.5688,-0.5688,-0.5908,-0.5908,-0.5688,-0.6083,-0.6741,-0.7786,-0.8009,-0.8715,-0.9994,-0.9994,-0.9994,-0.9994,-0.9994,-0.9914,0.1779,0.1683,0.1615,0.128,0.1041,0.0903,0.0903,0.0746,0.0589,0.0589,0.0432,0.0275,0.0275,0.0118,0.0,0.0,0.0,-0.0079,-0.0275,-0.0471,-0.0792,-0.1257,-0.1707,-0.2089,0.0,-0.2604,-0.2799,-0.2859,-0.2824,-0.2853,-0.2913,-0.2918,-0.3097,-0.3587,-0.3587,-0.381,-0.43,-0.43,-0.43,-0.43,-0.43,-0.43,-0.43,-0.43,-0.43,-0.43,-0.43,-0.4349,-0.4384,-0.4384,-0.4483,-0.461,-0.4614,-0.4616,-0.4616,-0.4612,-0.461,-0.461,-0.4614,-0.4616,-0.4616,-0.4619,-0.4621,-0.4621,-0.4621,-0.4621,-0.4666,-0.4851,-0.4896,-0.4993,-0.5232,-0.5329,-0.5327,-0.5325,-0.5325,-0.5322,-0.5273,-0.519,-0.5117,-0.5117,-0.5034,-0.5099,-0.5371,-0.5416,-0.5463,-0.5688,-0.5688,-0.5688,-0.5688,-0.5688,-0.5688,-0.5688,-0.5688,-0.5688,-0.5688,-0.5688,-0.5688,-0.5688,-0.6387,-0.6432,-0.5733,-0.7003,-0.7746,-0.779,-0.8492,-0.9244,-0.9994,-0.9994,-0.9994,-0.9994,-0.9994,-0.9994,0.1751,0.165,0.1505,0.1312,0.121,0.1178,0.1178,0.0982,0.0786,0.0786,0.062,0.0498,0.0498,0.0345,0.0192,0.0192,0.0078,-0.0039,-0.008,-0.0281,-0.0527,-0.0789,-0.139,0.0,0.0,0.0,0.0,-0.2782,-0.2822,-0.2897,-0.2918,-0.292,-0.3053,-0.3317,-0.3317,-0.3542,-0.4036,-0.4036,-0.4123,-0.43,-0.43,-0.43,-0.43,-0.43,-0.4332,-0.4344,-0.4344,-0.4442,-0.4526,-0.4526,-0.4545,-0.4627,-0.4638,-0.4663,-0.4669,-0.4726,-0.4747,-0.4738,-0.4683,-0.4663,-0.4671,-0.4728,-0.4747,-0.4747,-0.4747,-0.4747,-0.4796,-0.5042,-0.4993,-0.4939,-0.5384,-0.5387,-0.5223,-0.5158,-0.519,-0.5124,-0.4869,-0.4782,-0.4806,-0.4944,-0.4912,-0.4983,-0.5393,-0.5422,-0.5463,-0.5688,-0.5688,-0.5688,-0.5688,-0.5688,-0.5688,-0.5688,-0.5688,-0.5688,-0.5688,-0.5688,-0.5688,-0.5688,-0.5952,-0.5952,-0.5688,-0.6605,-0.7349,-0.779,-0.8536,-0.9244,-0.9994,-0.9994,-0.9994,-0.9994,-0.9994,-0.9994,0.1684,0.1571,0.1486,0.1327,0.1296,0.1296,0.1296,0.1178,0.1061,0.1061,0.0847,0.0719,0.0719,0.0489,0.0337,0.0378,0.023,0.0118,0.0122,0.0,-0.0206,-0.051,-0.0991,-0.1525,0.0,0.0,0.0,-0.2815,-0.2896,-0.292,-0.292,-0.292,-0.3018,-0.3217,-0.3217,-0.3445,-0.3944,-0.3944,-0.4062,-0.43,-0.43,-0.43,-0.43,-0.4332,-0.4379,-0.439,-0.4469,-0.4536,-0.462,-0.462,-0.4638,-0.4671,-0.473,-0.4753,-0.4761,-0.4764,-0.4784,-0.4776,-0.4773,-0.4753,-0.4763,-0.4766,-0.4784,-0.4784,-0.4784,-0.4784,-0.4834,-0.4987,-0.4937,-0.4885,-0.5236,-0.5188,-0.5022,-0.501,-0.4995,-0.4931,-0.4728,-0.4643,-0.4668,-0.481,-0.4875,-0.4986,-0.5317,-0.5448,-0.5552,-0.5688,-0.5688,-0.5688,-0.5688,-0.5688,-0.5688,-0.5688,-0.5688,-0.5688,-0.5688,-0.5688,-0.5688,-0.5688,-0.5949,-0.6083,-0.6083,-0.7048,-0.7746,-0.8185,-0.8934,-0.951,-0.9994,-0.9994,-0.9994,-0.9994,-0.9994,-0.9994,0.157,0.1479,0.145,0.1328,0.1296,0.1296,0.1296,0.1296,0.1296,0.1294,0.1115,0.0906,0.0905,0.0,0.0368,0.0528,0.0379,0.0271,0.0243,0.0245,0.0125,0.0,0.0,0.0,0.0,0.0,0.0,-0.2829,0.0,-0.2876,-0.2877,-0.2879,-0.2995,-0.3241,-0.3242,-0.3472,-0.3931,-0.3972,-0.4114,-0.4306,-0.4306,-0.4306,-0.431,-0.44,-0.4398,-0.4408,-0.4542,-0.463,-0.4714,-0.4714,-0.4763,-0.4784,-0.4784,-0.4784,-0.4784,-0.4784,-0.4784,-0.4784,-0.4784,-0.4784,-0.4784,-0.4784,-0.4784,-0.4784,-0.4784,-0.4784,-0.4784,-0.4784,-0.4784,-0.4784,-0.4784,-0.4784,-0.4784,-0.4784,-0.4784,-0.4784,-0.4784,-0.4771,-0.4714,-0.4714,-0.4879,-0.5016,-0.5101,-0.5456,-0.5696,-0.5654,-0.5694,-0.5688,-0.5688,-0.5688,-0.5688,-0.5688,-0.5688,-0.5688,-0.5688,-0.5688,-0.5688,-0.5688,-0.6343,-0.6735,-0.6735,-0.8053,-0.8803,-0.8846,-0.9554,-0.9951,-0.9994,-0.9951,-0.9951,-0.9951,-0.9907,-0.9907,0.151,0.142,0.1325,0.1294,0.1296,0.1296,0.1296,0.1296,0.129,0.1228,0.1236,0.1244,0.1076,0.0831,0.0,-0.0113,-0.0039,0.0,-0.0679,-0.0257,0.0,-0.0089,0.0,-0.0758,-0.0941,-0.1525,0.0,0.0,-0.2603,-0.2757,-0.2386,-0.2573,-0.2597,-0.2508,-0.2461,-0.2744,-0.326,-0.3769,-0.4145,-0.4354,-0.4354,-0.4354,-0.4358,-0.4496,-0.4575,-0.464,-0.4663,-0.4722,-0.4752,-0.4752,-0.4764,-0.4784,-0.4784,-0.4784,-0.4784,-0.4784,-0.4784,-0.4784,-0.4784,-0.4784,-0.4784,-0.4784,-0.4784,-0.4784,-0.4784,-0.4784,-0.4784,-0.4784,-0.4784,-0.4784,-0.4784,-0.4784,-0.4784,-0.4784,-0.4784,-0.4784,-0.4784,-0.4768,-0.4752,-0.4752,-0.5076,-0.5268,-0.502,-0.5429,-0.5721,-0.5312,-0.5517,-0.5688,-0.5688,-0.5688,-0.5688,-0.5688,-0.5688,-0.5688,-0.5688,-0.5688,-0.5688,-0.5688,-0.5863,-0.5994,-0.5994,-0.6871,-0.757,-0.8053,-0.8803,-0.9462,-0.9994,-0.9462,-0.92,-0.9157,-0.8623,-0.836,0.142,0.1361,0.1296,0.1296,0.1296,0.1293,0.1279,0.1314,0.1383,0.1311,0.1424,0.1504,0.1391,0.0794,0.0295,0.0,0.0,0.0,-0.0475,-0.0131,0.0088,0.0,-0.0225,0.0,-0.0673,-0.1166,-0.1531,0.0,-0.223,-0.247,-0.222,-0.2335,-0.2367,-0.2268,-0.2221,-0.2462,-0.2846,-0.3452,-0.3793,-0.398,-0.4075,-0.4215,-0.4309,-0.4302,-0.4367,-0.4512,0.0,-0.4595,-0.4636,-0.4636,-0.4636,-0.4636,-0.4483,-0.4433,-0.4433,-0.4433,-0.4433,-0.4433,-0.4433,-0.4433,-0.4483,-0.4734,-0.4784,-0.4784,-0.4784,-0.4784,-0.4784,-0.4784,-0.4736,-0.4636,-0.4636,-0.4535,-0.4483,-0.4585,-0.4636,-0.4636,-0.4784,-0.4784,-0.4834,-0.4937,-0.516,-0.5271,-0.5165,-0.5449,-0.5501,-0.5175,-0.5302,-0.5428,-0.5379,-0.5552,-0.5688,-0.5688,-0.5688,-0.5688,-0.5688,-0.5688,-0.5688,-0.5688,-0.5688,-0.5863,-0.6169,-0.6561,-0.7129,-0.779,-0.8185,-0.8627,-0.9026,-0.8627,-0.8404,-0.8404,-0.8009,-0.779,0.1367,0.1335,0.1296,0.1296,0.1296,0.1288,0.1257,0.1363,0.1503,0.1459,0.1603,0.173,0.1698,0.0727,0.0148,0.09,0.0,-0.0456,0.0043,0.0219,0.0176,0.0,0.0,-0.018,-0.0583,-0.0854,-0.1134,-0.1386,-0.1814,-0.21,-0.21,-0.2135,-0.2174,-0.2214,-0.2264,-0.2411,-0.2658,-0.3091,-0.3348,-0.3349,-0.3637,-0.3874,-0.4113,-0.395,-0.4034,-0.4285,-0.4307,0.0,-0.4338,-0.4338,-0.4338,-0.4338,-0.4085,-0.3982,-0.3982,-0.3982,-0.3982,-0.3982,-0.3982,-0.3982,-0.4083,-0.4533,-0.4684,-0.4684,-0.4684,-0.4684,-0.4684,-0.4684,-0.4537,-0.4338,-0.4338,-0.4185,-0.4083,-0.4288,-0.4388,-0.4487,-0.4686,-0.4784,-0.4885,-0.509,-0.5122,-0.5163,-0.5361,-0.5372,-0.527,-0.5085,-0.5094,-0.5089,-0.4999,-0.5337,-0.5599,-0.5599,-0.5644,-0.5644,-0.5644,-0.5688,-0.5688,-0.5688,-0.5688,-0.5994,-0.665,-0.6647,-0.6956,-0.7658,-0.7658,-0.7702,-0.779,-0.7702,-0.7658,-0.7658,-0.757,-0.7529,0.1492,0.1415,0.1296,0.1296,0.1296,0.1327,0.1409,0.1477,0.1533,0.164,0.1759,0.1826,0.1728,0.1365,0.0858,0.016,0.0082,-0.0127,-0.0754,-0.0313,0.0045,0.0,0.0,-0.0045,-0.0135,-0.0365,0.0,0.0,0.0,-0.1458,-0.1702,-0.1853,-0.1874,-0.1708,-0.196,-0.216,-0.246,-0.271,-0.2928,-0.3173,-0.3418,-0.3564,-0.3614,-0.3881,-0.4012,-0.4064,-0.4078,0.0,-0.4083,-0.4083,-0.4083,-0.4083,-0.4033,-0.3982,-0.3982,-0.3982,-0.3982,-0.3982,-0.3982,-0.3982,-0.4033,-0.4133,-0.4133,-0.4133,-0.4133,-0.4133,-0.4133,-0.4133,-0.4083,-0.4083,-0.4083,-0.4033,-0.4033,-0.4033,-0.4236,-0.4388,-0.4438,-0.4636,-0.4834,-0.4834,-0.5024,-0.5114,-0.4962,-0.5232,-0.5308,-0.4856,-0.4953,-0.5025,-0.4874,-0.5023,-0.5099,-0.5099,-0.5327,-0.5463,-0.5463,-0.5599,-0.5688,-0.5688,-0.5688,-0.5777,-0.5863,-0.5908,-0.6213,-0.6953,-0.6956,-0.7261,-0.779,-0.7261,-0.6956,-0.6953,-0.6346,-0.6083,0.1415,0.1375,0.1296,0.1296,0.1296,0.1323,0.1424,0.1523,0.1653,0.1838,0.1964,0.2051,0.2069,0.1489,0.0961,0.0765,0.0293,-0.0129,-0.0352,-0.0178,0.0,0.0,0.0,0.0,0.0,-0.0366,-0.0651,-0.0798,0.0,-0.1473,-0.1571,-0.1686,-0.1702,-0.1616,-0.1718,-0.1869,-0.1969,-0.2202,-0.2391,-0.2541,-0.2789,-0.3087,-0.3337,-0.3366,-0.3531,-0.3784,-0.3784,0.0,-0.3784,-0.3784,-0.3784,-0.3784,-0.3632,-0.3581,-0.3581,-0.3581,-0.3581,-0.3581,-0.3581,-0.3581,-0.3581,-0.3581,-0.3783,-0.3982,-0.3982,-0.3982,-0.3982,-0.3982,-0.3883,-0.3784,-0.3784,-0.3682,-0.3632,-0.3784,-0.4086,-0.4438,-0.4587,-0.4686,-0.4784,-0.4784,-0.4887,-0.4937,-0.4834,-0.4999,-0.5055,-0.4765,-0.4825,-0.4825,-0.4633,-0.4626,-0.4757,-0.4971,-0.5099,-0.5191,-0.5191,-0.528,-0.5416,-0.5552,-0.5552,-0.5597,-0.5688,-0.5688,-0.5863,-0.6213,-0.6213,-0.6387,-0.6697,-0.6387,-0.6213,-0.6213,-0.5863,-0.5688,0.1412,0.1375,0.1296,0.1296,0.1302,0.1327,0.144,0.1574,0.1749,0.2012,0.2139,0.2245,0.236,0.1651,0.1139,0.1577,0.0711,0.0043,0.0348,0.0177,0.0045,0.0,0.0,0.0,0.0,-0.0413,0.0,0.0,0.0,0.0,-0.1581,-0.1604,-0.1617,-0.1617,-0.1617,-0.1617,-0.1617,-0.1819,-0.1921,-0.1921,-0.2171,-0.2574,-0.3027,-0.2876,-0.3079,-0.3534,-0.3534,0.0,0.0,-0.3534,-0.3534,-0.3484,-0.3281,-0.318,-0.318,-0.318,-0.318,-0.318,-0.318,-0.318,-0.318,-0.318,-0.3481,-0.3831,-0.3831,-0.3831,-0.3831,-0.3831,-0.3684,-0.3534,-0.3534,-0.3383,-0.3281,-0.3584,-0.4036,-0.4487,-0.4734,-0.4784,-0.4784,-0.4784,-0.4784,-0.4784,-0.4784,-0.4784,-0.4762,-0.4745,-0.472,-0.4657,-0.4465,-0.4413,-0.4499,-0.4829,-0.4891,-0.4921,-0.4921,-0.4966,-0.5099,-0.5282,-0.5371,-0.5463,-0.5644,-0.5688,-0.5688,-0.5688,-0.5688,-0.5688,-0.5688,-0.5688,-0.5688,-0.5688,-0.5688,-0.5688,0.1719,0.1572,0.1296,0.1296,0.1318,0.1355,0.1632,0.167,0.1788,0.2126,0.2174,0.2245,0.236,0.2161,0.1968,0.1896,0.1469,0.0996,0.0648,0.0392,0.022,0.0,0.0,0.0,0.0,-0.0279,0.0,0.0,0.0,0.0,-0.1613,-0.1615,-0.1617,-0.1617,-0.1617,-0.1617,-0.1617,-0.1617,-0.1617,-0.1617,-0.192,-0.2171,-0.2472,-0.2724,-0.2977,-0.323,-0.323,0.0,0.0,-0.323,-0.323,-0.323,-0.323,-0.318,-0.318,-0.318,-0.318,-0.318,-0.318,-0.318,-0.318,-0.318,-0.323,-0.3281,-0.3281,-0.3281,-0.3281,-0.3281,-0.3281,-0.323,-0.323,-0.323,-0.3331,-0.3833,-0.4185,-0.4487,-0.4734,-0.4784,-0.4784,-0.4784,-0.4784,-0.4784,-0.4784,-0.4784,-0.478,-0.4774,-0.4757,-0.4702,-0.4685,-0.4491,-0.4432,-0.447,-0.4621,-0.475,-0.475,-0.4877,-0.501,-0.5055,-0.528,-0.5416,-0.5416,-0.5599,-0.5688,-0.5688,-0.5688,-0.5688,-0.5688,-0.5688,-0.5688,-0.5688,-0.5688,-0.5688,0.1509,0.1405,0.1289,0.1307,0.1375,0.1458,0.1659,0.1763,0.1915,0.2193,0.2263,0.2299,0.2452,0.2398,0.2297,0.2101,0.1731,0.1343,0.1023,0.0663,0.0422,0.0216,0.0173,0.0,0.0,0.0,0.0,0.0,0.0,0.0,-0.1617,-0.1617,-0.1617,-0.1617,-0.1617,-0.1617,-0.1617,-0.1617,-0.1617,-0.1617,-0.1718,-0.192,-0.2171,-0.2272,-0.2575,-0.2977,-0.2977,0.0,0.0,-0.2977,-0.2876,-0.2725,-0.2725,-0.2725,-0.2725,-0.2876,-0.2977,-0.2977,-0.313,-0.318,-0.318,-0.318,-0.318,-0.318,-0.318,-0.318,-0.318,-0.318,-0.318,-0.318,-0.318,-0.3332,-0.3533,-0.3934,-0.4185,-0.4487,-0.4734,-0.4784,-0.4784,-0.4784,-0.4784,-0.4784,-0.4784,-0.4784,-0.4784,-0.4784,-0.4756,-0.4767,-0.4714,-0.4645,-0.4557,-0.44,-0.4445,-0.4478,-0.4478,-0.4523,-0.4656,-0.479,-0.5013,-0.5235,-0.5371,-0.5597,-0.5688,-0.5688,-0.5688,-0.5688,-0.5688,-0.5688,-0.5688,-0.5688,-0.5688,-0.5688,0.1694,0.1489,0.1308,0.1288,0.1425,0.1576,0.1679,0.1831,0.1997,0.2253,0.2299,0.2334,0.2489,0.2511,0.247,0.2314,0.1949,0.1603,0.1351,0.0966,0.0614,0.0416,0.0,0.0256,0.0,0.0,0.0,0.0,0.0,0.0,-0.1617,-0.1617,-0.1617,-0.1617,-0.1617,-0.1617,-0.1617,-0.1617,-0.1617,-0.1617,-0.1617,-0.1718,-0.2022,-0.2022,-0.2272,-0.2674,-0.2674,0.0,0.0,-0.2674,-0.2573,-0.2422,-0.2422,-0.2422,-0.2422,-0.2623,-0.2674,-0.2725,-0.2977,-0.3079,-0.3079,-0.318,-0.318,-0.318,-0.318,-0.318,-0.318,-0.318,-0.318,-0.318,-0.318,-0.3484,-0.3784,-0.3934,-0.4284,-0.4587,-0.4734,-0.4784,-0.4784,-0.4784,-0.4784,-0.4784,-0.4784,-0.4784,-0.4784,-0.4784,-0.4784,-0.4764,-0.4753,-0.4724,-0.4649,-0.4491,-0.4393,-0.4328,-0.4302,-0.43,-0.4389,-0.4569,-0.479,-0.5013,-0.5193,-0.5463,-0.5599,-0.5599,-0.5688,-0.5688,-0.5688,-0.5688,-0.5688,-0.5688,-0.5688,-0.5688,0.2556,0.1962,0.1303,0.1303,0.1465,0.1608,0.1686,0.1857,0.2042,0.2262,0.2299,0.2334,0.2489,0.2511,0.2511,0.2511,0.2159,0.0,0.1619,0.1179,0.0814,0.0,0.0,0.0295,0.0295,0.0,0.0,0.0,0.0,0.0,-0.1566,-0.1617,-0.1617,-0.1617,-0.1617,-0.1617,-0.1617,-0.1617,-0.1617,-0.1617,-0.1617,-0.1718,-0.2022,-0.2022,-0.2171,0.0,0.0,0.0,0.0,-0.2422,-0.2422,-0.2422,-0.2422,-0.2422,-0.2422,-0.2422,-0.2422,-0.2422,-0.2725,-0.2826,-0.2826,-0.313,-0.318,-0.318,-0.318,-0.318,-0.318,-0.318,-0.318,-0.318,-0.318,-0.3581,-0.3982,-0.3982,-0.4384,-0.4784,-0.4784,-0.4784,-0.4784,-0.4784,-0.4784,-0.4784,-0.4784,-0.4784,-0.4784,-0.4784,-0.4784,-0.4784,-0.4782,-0.4761,-0.4673,-0.4629,-0.4489,-0.4352,-0.4306,-0.43,-0.43,-0.43,-0.4569,-0.4705,-0.4705,-0.5151,-0.5416,-0.5416,-0.5599,-0.5688,-0.5688,-0.5688,-0.5688,-0.5688,-0.5688,-0.5688,0.3317,0.2746,0.2183,0.2183,0.208,0.1923,0.1897,0.2107,0.2271,0.2281,0.2405,0.2516,0.2488,0.2511,0.247,0.2314,0.2081,0.0,0.0,0.0,0.0,0.0609,0.0299,0.0089,0.0,0.0,0.0,0.0,0.0,0.0,-0.1314,-0.1516,-0.1617,-0.1617,-0.1617,-0.1617,-0.1617,-0.1617,-0.1617,-0.1617,-0.1617,-0.1667,-0.1718,-0.1718,-0.1869,0.0,0.0,0.0,0.0,-0.2122,-0.202,-0.1869,-0.1869,-0.1869,-0.1869,-0.207,-0.2122,-0.2171,-0.2624,-0.2775,-0.2826,-0.313,-0.318,-0.318,-0.318,-0.318,-0.318,-0.318,-0.318,-0.318,-0.318,-0.3581,-0.3982,-0.3982,-0.4435,-0.4784,-0.4784,-0.4784,-0.4784,-0.4784,-0.4784,-0.4784,-0.4784,-0.4784,-0.4784,-0.4784,-0.4784,-0.4784,-0.4784,-0.4762,-0.4761,-0.4675,-0.4583,-0.4467,-0.4312,-0.43,-0.43,-0.43,-0.4569,-0.4705,-0.4705,-0.4968,-0.5191,-0.5416,-0.528,-0.5327,-0.5508,-0.5327,-0.5327,-0.5508,-0.5508,-0.5552,0.4195,0.3609,0.3091,0.3091,0.281,0.2526,0.2485,0.2518,0.2529,0.2525,0.2623,0.27,0.2644,0.255,0.2431,0.2235,0.1963,0.0,0.0,0.0,0.0,0.0535,0.0,0.0,0.0,0.0,0.0,0.0,0.0,0.0,-0.1212,-0.1465,-0.1617,-0.1617,-0.1617,-0.1617,-0.1617,-0.1617,-0.1617,-0.1617,-0.1617,-0.1617,-0.1617,-0.1617,-0.1667,0.0,0.0,0.0,0.0,-0.1869,-0.1768,-0.1617,-0.1617,-0.1617,-0.1617,-0.1768,-0.1869,-0.192,-0.2473,-0.2674,-0.2725,-0.3079,-0.318,-0.318,-0.318,-0.318,-0.318,-0.318,-0.318,-0.323,-0.3332,-0.3682,-0.3982,-0.3982,-0.4435,-0.4784,-0.4686,-0.4736,-0.4784,-0.4784,-0.4784,-0.4784,-0.4784,-0.4784,-0.4784,-0.4784,-0.4784,-0.4784,-0.4686,-0.4736,-0.4702,-0.4422,-0.4432,-0.4325,-0.4093,-0.4141,-0.4168,-0.4168,-0.4304,-0.4393,-0.4393,-0.4701,-0.4968,-0.5149,-0.5055,-0.5099,-0.5235,-0.5099,-0.5099,-0.5235,-0.5371,-0.5463,0.0,0.4511,0.4008,0.4001,0.3681,0.3369,0.3327,0.3028,0.0,0.2875,0.2909,0.2883,0.2794,0.2626,0.2431,0.2196,0.0,0.0,0.0,0.102,0.0,0.0,0.0296,0.0,0.0,0.0,0.0,0.0,0.0,0.0,-0.1162,-0.1415,-0.1566,-0.1566,-0.1566,-0.1617,-0.1617,-0.1617,-0.1617,-0.1617,-0.1617,-0.1617,-0.1617,-0.1617,-0.1617,0.0,0.0,0.0,0.0,-0.1617,-0.1617,-0.1617,-0.1617,-0.1617,-0.1617,-0.1617,-0.1617,-0.1667,-0.217,-0.2371,-0.2472,-0.2977,-0.318,-0.318,-0.318,-0.318,-0.318,-0.318,-0.318,-0.3281,-0.3534,-0.3784,-0.3982,-0.3982,-0.4383,-0.4684,-0.4438,-0.4585,-0.4784,-0.4784,-0.4784,-0.4784,-0.4784,-0.4784,-0.4784,-0.4734,-0.4734,-0.4686,-0.4388,-0.4585,-0.4503,-0.3983,-0.4053,-0.4071,-0.3714,-0.3817,-0.3859,-0.3859,-0.3859,-0.3903,-0.3903,-0.4393,-0.4661,-0.4705,-0.4879,-0.4966,-0.4966,-0.4966,-0.4966,-0.4966,-0.5238,-0.5371,0.6099,0.0,0.488,0.4815,0.4461,0.4032,0.0,0.3488,0.3389,0.2912,0.2873,0.2868,0.2732,0.2596,0.2393,0.0,0.0,0.0,0.1055,0.0,0.0,0.0088,0.0,0.0,0.0,0.0,0.0,0.0,0.0,-0.0606,-0.0859,-0.1162,-0.1313,-0.1313,-0.1516,-0.1617,-0.1617,-0.1617,-0.1617,-0.1617,-0.1617,-0.1617,-0.1617,-0.1617,-0.1617,0.0,0.0,0.0,-0.1617,-0.1617,-0.1617,-0.1617,-0.1617,-0.1617,-0.1617,-0.1617,-0.1617,-0.1667,-0.197,-0.2071,-0.2172,-0.2726,-0.3029,-0.318,-0.318,-0.318,-0.318,-0.318,-0.318,-0.3281,-0.3534,-0.3784,-0.3982,-0.3982,-0.4236,-0.4487,-0.4438,-0.4438,-0.4537,-0.4784,-0.4784,-0.4736,-0.4537,-0.4686,-0.4684,-0.4234,-0.4386,-0.4386,-0.4135,-0.4133,-0.4126,-0.4007,-0.3986,-0.3912,-0.3793,-0.3711,-0.3678,-0.3678,-0.3678,-0.3723,-0.3903,-0.4036,-0.4259,-0.4705,-0.4748,-0.4659,-0.4478,-0.4478,-0.4567,-0.4792,-0.4839,-0.4926,0.6387,0.6085,0.5727,0.5708,0.5312,0.4876,0.4534,0.4156,0.3789,0.3513,0.3218,0.3011,0.2861,0.0,0.0,0.0,0.1705,0.0,0.0,0.0,0.0,0.0,0.0,0.0,0.0,0.0,0.0,0.0,0.0,-0.0455,-0.0606,-0.0859,-0.101,-0.101,-0.1162,-0.1313,-0.1415,-0.1516,-0.1617,-0.1617,-0.1617,-0.1617,-0.1617,-0.1617,-0.1617,0.0,0.0,0.0,-0.1617,-0.1617,-0.1617,-0.1617,-0.1617,-0.1617,-0.1617,-0.1617,-0.1617,-0.1617,-0.1921,-0.2172,-0.2424,-0.2725,-0.2977,-0.318,-0.318,-0.318,-0.318,-0.318,-0.318,-0.3281,-0.3534,-0.3685,-0.3835,-0.3835,-0.4034,-0.4236,-0.4236,-0.4236,-0.4286,-0.4585,-0.4535,-0.4384,-0.4236,-0.4334,-0.4334,-0.4033,-0.4135,-0.4135,-0.3835,-0.3934,-0.3882,-0.3682,-0.3671,-0.365,-0.3485,-0.3381,-0.3351,-0.3409,-0.3406,-0.3542,-0.3767,-0.3857,-0.408,-0.4525,-0.4525,-0.4433,-0.43,-0.43,-0.4389,-0.4525,-0.4661,-0.4773,0.6387,0.6407,0.6386,0.6391,0.605,0.5716,0.5617,0.4821,0.409,0.4118,0.3591,0.3067,0.2959,0.2532,0.0,0.0,0.0,0.0,0.0593,0.051,0.0,0.0,0.0,0.0,0.0,0.0,0.0,0.0,0.0,-0.0354,-0.0404,-0.0606,-0.0758,-0.0758,-0.0758,-0.0909,-0.1061,-0.1364,-0.1566,-0.1617,-0.1617,-0.1617,-0.1617,-0.1617,-0.1617,-0.1617,0.0,0.0,-0.1617,-0.1617,-0.1617,-0.1617,-0.1617,-0.1617,-0.1617,-0.1617,-0.1617,-0.1617,-0.1921,-0.2323,-0.2725,-0.2775,-0.2977,-0.318,-0.318,-0.318,-0.318,-0.318,-0.318,-0.3281,-0.3534,-0.3586,-0.3586,-0.3586,-0.3784,-0.3934,-0.3934,-0.3934,-0.4034,-0.4288,-0.4135,-0.3982,-0.3932,-0.3984,-0.3982,-0.3882,-0.3934,-0.3835,-0.3584,-0.3734,-0.3682,-0.323,-0.3334,-0.3375,-0.3116,-0.3062,-0.3049,-0.3157,-0.3144,-0.3272,-0.3587,-0.3812,-0.4036,-0.43,-0.43,-0.43,-0.43,-0.4312,-0.432,-0.432,-0.4561,-0.4704,0.6387,0.6396,0.6403,0.639,0.635,0.6152,0.5716,0.502,0.4398,0.3948,0.3182,0.2632,0.2661,0.2504,0.2335,0.0,0.0,0.0765,0.0,0.0,0.0,0.0,0.0,0.0,0.0,0.0,0.0,0.0,0.0,-0.0152,-0.0404,-0.0455,-0.0455,-0.0455,-0.0657,-0.0707,-0.0505,-0.101,-0.1364,-0.1617,-0.1617,-0.1617,-0.1617,-0.1617,-0.1617,-0.1617,0.0,-0.1617,-0.1617,-0.1617,-0.1617,-0.1617,-0.1617,-0.1617,-0.1617,-0.1617,-0.1617,-0.1617,-0.1921,-0.2222,-0.2522,-0.2725,-0.2977,-0.318,-0.318,-0.318,-0.318,-0.318,-0.318,-0.3281,-0.3534,-0.3586,-0.3586,-0.3586,-0.3635,-0.3685,-0.3685,-0.3685,-0.3736,-0.4034,-0.4033,-0.3934,-0.3684,-0.3835,-0.3833,-0.3381,-0.3533,-0.3584,-0.3281,-0.3281,-0.3281,-0.323,-0.3222,-0.3192,-0.3131,-0.3069,-0.3064,-0.3043,-0.299,-0.3141,-0.3587,-0.3812,-0.4036,-0.43,-0.43,-0.43,-0.43,-0.4377,-0.4368,-0.437,-0.4542,-0.4633,0.6387,0.641,0.6431,0.6474,0.6216,0.5874,0.5709,0.4893,0.4102,0.3811,0.3156,0.2593,0.0,0.0,0.2117,0.1647,0.0,0.0,0.0,0.0,0.0,0.0,0.0,0.0,0.0,0.0,0.0,0.0,0.0,0.0,-0.0202,-0.0202,-0.0202,-0.0202,-0.0303,-0.0354,-0.0404,-0.0657,-0.096,-0.1364,-0.1516,-0.1617,-0.1617,-0.1617,-0.1617,-0.1617,0.0,-0.1617,-0.1617,-0.1617,-0.1617,-0.1617,-0.1617,-0.1617,-0.1617,-0.1617,-0.1617,-0.1617,-0.1718,-0.207,-0.2422,-0.2522,-0.2876,-0.318,-0.318,-0.318,-0.318,-0.318,-0.318,-0.323,-0.3332,-0.3383,-0.3383,-0.3383,-0.3383,-0.3433,-0.3584,-0.3484,-0.3484,-0.3734,-0.3682,-0.3531,-0.3381,-0.3482,-0.3481,-0.323,-0.3281,-0.3332,-0.323,-0.318,-0.318,-0.318,-0.318,-0.3156,-0.3095,-0.309,-0.3087,-0.3012,-0.3039,-0.3139,-0.3361,-0.3723,-0.4012,-0.4188,-0.428,-0.4395,-0.4447,-0.4489,-0.451,-0.451,-0.4553,-0.4598,0.6387,0.6415,0.6419,0.6561,0.6158,0.5708,0.5688,0.4809,0.3901,0.3723,0.3122,0.0,0.0,0.2421,0.0,0.1281,0.1043,0.0,0.0,0.0,0.0,0.0,0.0,0.0,0.0,0.0,0.0,0.0,0.0,0.0,0.0,0.0,0.0,0.0,0.0,-0.0101,-0.0303,-0.0354,-0.0657,-0.1212,-0.1415,-0.1516,-0.1617,-0.1617,-0.1617,-0.1617,-0.1617,-0.1617,-0.1617,-0.1617,-0.1617,-0.1617,-0.1617,-0.1617,-0.1617,-0.1617,-0.1617,-0.1617,-0.1667,-0.202,-0.2422,-0.2472,-0.2826,-0.318,-0.318,-0.318,-0.318,-0.318,-0.318,-0.318,-0.318,-0.318,-0.318,-0.318,-0.318,-0.3281,-0.3484,-0.3332,-0.3281,-0.3484,-0.3332,-0.318,-0.318,-0.318,-0.318,-0.318,-0.318,-0.318,-0.318,-0.318,-0.318,-0.318,-0.318,-0.3161,-0.3116,-0.3099,-0.31,-0.3007,-0.3128,-0.3184,-0.3229,-0.3641,-0.3941,-0.4139,-0.4326,-0.4502,-0.4621,-0.4594,-0.4604,-0.4606,-0.4624,-0.4671,0.6387,0.6404,0.6437,0.6552,0.6471,0.6238,0.5812,0.5058,0.4291,0.371,0.3007,0.2503,0.0,0.255,0.233,0.1677,0.0,0.0,0.0,0.0,0.0,0.0,0.0,0.0,0.0,0.0,0.0,0.0,0.0,0.0,0.0,0.0,0.0,0.0,0.0,0.0,-0.0051,-0.0253,-0.0657,-0.1212,-0.1212,-0.1364,-0.1617,-0.1617,-0.1617,-0.1617,-0.1617,-0.1617,-0.1617,-0.1617,-0.1617,-0.1617,-0.1617,-0.1617,-0.1617,-0.1617,-0.1617,-0.1617,-0.187,-0.2171,-0.2422,-0.2674,-0.2977,-0.318,-0.318,-0.318,-0.318,-0.318,-0.318,-0.318,-0.318,-0.318,-0.318,-0.318,-0.318,-0.318,-0.323,-0.323,-0.323,-0.323,-0.323,-0.318,-0.318,-0.318,-0.318,-0.318,-0.318,-0.318,-0.318,-0.318,-0.318,-0.318,-0.318,-0.3179,-0.3173,-0.3122,-0.3087,-0.3078,-0.3117,-0.3179,-0.3368,-0.3654,-0.3942,-0.418,-0.4466,-0.4614,-0.4621,-0.4657,-0.47,-0.47,-0.4779,-0.4768,0.6387,0.6461,0.6553,0.6583,0.6463,0.6254,0.5912,0.4971,0.4115,0.3806,0.3154,0.2612,0.0,0.0,0.222,0.2008,0.0,0.0,0.0,0.0,0.0,0.0,0.0,0.0,0.0,0.0,0.0,0.0,0.0,0.0,0.0,0.0,0.0,0.0,0.0,0.0,0.0,-0.0101,-0.0354,-0.0707,-0.0859,-0.1111,-0.1364,-0.1364,-0.1465,-0.1617,-0.1617,-0.1617,-0.1617,-0.1617,-0.1617,-0.1617,-0.1617,-0.1617,-0.1617,-0.1617,-0.1617,-0.1617,-0.1718,-0.202,-0.2422,-0.2522,-0.2826,-0.318,-0.318,-0.318,-0.318,-0.318,-0.318,-0.318,-0.318,-0.318,-0.318,-0.318,-0.318,-0.318,-0.318,-0.318,-0.318,-0.318,-0.318,-0.318,-0.318,-0.318,-0.318,-0.318,-0.318,-0.318,-0.318,-0.318,-0.318,-0.318,-0.318,-0.318,-0.318,-0.316,-0.3146,-0.3146,-0.3104,-0.3144,-0.3192,-0.3575,-0.3881,-0.4021,-0.4461,-0.4683,-0.4736,-0.4771,-0.4738,-0.4787,-0.477,-0.4784,0.635,0.6391,0.6495,0.6497,0.6489,0.6459,0.6282,0.5324,0.434,0.3933,0.3413,0.3001,0.2708,0.0,0.0,0.0,0.0,0.0,0.0,0.0,0.0,0.0,0.0,0.0,0.0,0.0,0.0,0.0,0.0,0.0,0.0,0.0,0.0,0.0,0.0,0.0,0.0,0.0,-0.0101,-0.0253,-0.0455,-0.0758,-0.1212,-0.1212,-0.1364,-0.1617,-0.1617,-0.1617,-0.1617,-0.1617,-0.1617,-0.1617,-0.1617,-0.1617,-0.1617,-0.1617,-0.1617,-0.1617,-0.1617,-0.1969,-0.2422,-0.2422,-0.2775,-0.318,-0.318,-0.318,-0.318,-0.318,-0.318,-0.318,-0.318,-0.318,-0.318,-0.318,-0.318,-0.318,-0.318,-0.318,-0.318,-0.318,-0.318,-0.318,-0.318,-0.318,-0.318,-0.318,-0.318,-0.318,-0.318,-0.318,-0.318,-0.318,-0.318,-0.318,-0.318,-0.318,-0.318,-0.3079,-0.3103,-0.3155,-0.3155,-0.3544,-0.3762,-0.3808,-0.4354,-0.463,-0.4686,-0.4734,-0.4784,-0.4784,-0.4784,-0.4784,0.6214,0.6218,0.6238,0.6291,0.6609,0.6908,0.6997,0.6178,0.5137,0.4089,0.3915,0.3687,0.2956,0.3402,0.0,0.0,0.0,0.0,0.0,0.0,0.0,0.0,0.0,0.0,0.0,0.0,0.0,0.0,0.0,0.0,0.0,0.0,0.0,0.0,0.0,0.0,0.0,0.0,0.0,0.0,0.0,-0.0404,-0.1162,-0.1162,-0.1314,-0.1566,-0.1566,-0.1617,-0.1617,-0.1617,-0.1617,-0.1617,-0.1617,-0.1617,-0.1617,-0.1617,-0.1617,-0.1617,-0.1617,-0.1969,-0.2422,-0.2422,-0.2775,-0.318,-0.318,-0.318,-0.318,-0.318,-0.318,-0.318,-0.318,-0.318,-0.318,-0.318,-0.318,-0.318,-0.318,-0.318,-0.318,-0.318,-0.318,-0.318,-0.318,-0.318,-0.318,-0.318,-0.318,-0.318,-0.318,-0.318,-0.318,-0.318,-0.318,-0.318,-0.318,-0.318,-0.3079,-0.2826,-0.3029,-0.318,-0.318,-0.3433,-0.3586,-0.3586,-0.4137,-0.4388,-0.4388,-0.4686,-0.4784,-0.4784,-0.4784,-0.4784,0.635,0.6472,0.0,0.6522,0.0,0.0,0.6949,0.6453,0.5566,0.417,0.3918,0.3664,0.2921,0.0,0.0,0.0,0.0,0.0,0.0,0.0,0.0,0.0,0.0,0.0,0.0,0.0,0.0,0.0,0.0,0.0,0.0,0.0,0.0,0.0,0.0555,0.0857,0.0857,0.1412,0.1665,0.1665,0.1665,0.116,0.0202,0.0,-0.0202,-0.0504,-0.0656,-0.1061,-0.1617,-0.1617,-0.1617,-0.1617,-0.1617,-0.1617,-0.1617,-0.1617,-0.1617,-0.1617,-0.1617,-0.1969,-0.2422,-0.2422,-0.2623,-0.2927,-0.2927,-0.2927,-0.2927,-0.2927,-0.3079,-0.318,-0.318,-0.318,-0.318,-0.318,-0.318,-0.318,-0.318,-0.318,-0.318,-0.318,-0.318,-0.318,-0.318,-0.318,-0.318,-0.318,-0.318,-0.318,-0.318,-0.318,-0.313,-0.2927,-0.2927,-0.2826,-0.2674,-0.2623,-0.2623,-0.2522,-0.2573,-0.2725,-0.2927,-0.3332,-0.3586,-0.3586,-0.4137,-0.4388,-0.4388,-0.4686,-0.4784,-0.4784,-0.4784,-0.4784,0.6252,0.6416,0.0,0.6605,0.6712,0.6854,0.7013,0.0,0.0,0.0,0.4563,0.4101,0.3393,0.3178,0.0,0.0,0.0,0.0,0.0,0.0,0.0,0.0,0.0,0.0,0.0,0.0,0.0,0.0,0.0,0.0,0.0,0.05,0.0606,0.0959,0.1412,0.1664,0.1664,0.2169,0.2422,0.2422,0.2422,0.2219,0.1914,0.1312,0.0807,0.0454,0.0202,-0.0404,-0.1111,-0.1111,-0.1314,-0.1617,-0.1617,-0.1617,-0.1617,-0.1617,-0.1617,-0.1617,-0.1617,-0.1869,-0.2221,-0.2221,-0.2423,-0.2623,-0.2623,-0.2623,-0.2674,-0.2775,-0.2927,-0.3079,-0.318,-0.318,-0.318,-0.318,-0.318,-0.318,-0.318,-0.318,-0.318,-0.318,-0.318,-0.318,-0.318,-0.318,-0.318,-0.318,-0.318,-0.313,-0.2927,-0.2977,-0.2927,-0.2674,-0.2623,-0.2573,-0.2422,-0.2422,-0.2371,-0.2271,-0.2321,-0.2422,-0.2474,-0.2877,-0.313,-0.313,-0.3633,-0.3935,-0.3935,-0.4386,-0.4636,-0.4636,-0.4734,-0.4784,0.6125,0.6176,0.6281,0.6644,0.6881,0.0,0.7078,0.6612,0.6171,0.6127,0.0,0.4786,0.4028,0.0,0.0,0.0,0.0,0.0,0.0,0.0,0.0,0.0,0.0,0.0,0.0,0.0,0.0,0.0,0.0,0.0,0.0,0.1343,0.171,0.2414,0.2519,0.2521,0.2521,0.2572,0.2622,0.2622,0.2622,0.3025,0.3677,0.2621,0.1815,0.131,0.0958,0.0403,-0.0303,-0.0303,-0.0707,-0.1364,-0.1364,-0.1414,-0.1516,-0.1516,-0.1516,-0.1617,-0.1617,-0.1768,-0.2022,-0.2022,-0.2171,-0.2371,-0.2371,-0.2371,-0.2422,-0.2675,-0.2725,-0.2826,-0.3079,-0.313,-0.313,-0.313,-0.318,-0.318,-0.318,-0.318,-0.318,-0.318,-0.318,-0.318,-0.313,-0.313,-0.313,-0.313,-0.313,-0.2927,-0.2472,-0.2623,-0.2674,-0.2371,-0.2371,-0.2371,-0.2321,-0.2321,-0.2221,-0.1971,-0.217,-0.2221,-0.1971,-0.2221,-0.2422,-0.2422,-0.2927,-0.318,-0.318,-0.3935,-0.4338,-0.4388,-0.4636,-0.4784,0.6472,0.6643,0.0,0.6908,0.6999,0.7061,0.7082,0.7007,0.6745,0.6216,0.55,0.4786,0.4028,0.0,0.0,0.0,0.0,0.0,0.0,0.0,0.0,0.0,0.0,0.0,0.0,0.0,0.0,0.0,0.0,0.0,0.2524,0.2562,0.2611,0.2566,0.3252,0.3578,0.3327,0.3981,0.428,0.0,0.428,0.4383,0.4481,0.3425,0.2671,0.2118,0.1412,0.0907,0.0555,0.0555,0.0454,0.0303,0.0303,-0.0101,-0.0657,-0.0657,-0.1061,-0.1617,-0.1617,-0.1768,-0.2022,-0.2022,-0.2021,-0.2071,-0.2071,-0.2071,-0.2122,-0.2172,-0.2322,-0.2522,-0.2573,-0.2573,-0.2573,-0.2573,-0.2876,-0.318,-0.318,-0.318,-0.313,-0.2927,-0.2876,-0.2826,-0.2623,-0.2573,-0.2573,-0.2573,-0.2573,-0.2522,-0.2422,-0.2472,-0.2372,-0.2121,-0.2071,-0.2021,-0.1768,-0.1768,-0.1768,-0.1667,-0.1718,-0.1768,-0.1667,-0.217,-0.2422,-0.2422,-0.2725,-0.2977,-0.318,-0.358,-0.3982,-0.4388,-0.4438,-0.4585,0.6783,0.6788,0.0,0.7024,0.0,0.7095,0.7095,0.7095,0.7007,0.6656,0.6033,0.5411,0.0,0.0,0.0,0.0,0.0,0.0,0.0,0.0,0.0,0.0,0.0,0.0,0.0,0.0,0.0,0.0,0.0,0.3089,0.346,0.3515,0.3686,0.3967,0.4453,0.4642,0.4582,0.4983,0.5135,0.4987,0.5135,0.5186,0.5135,0.4182,0.363,0.3328,0.2623,0.2117,0.1763,0.1613,0.1412,0.1159,0.1159,0.0857,0.0353,0.0353,0.0,-0.0505,-0.0909,-0.1111,-0.1313,-0.1667,-0.1819,-0.1819,-0.1819,-0.1819,-0.1819,-0.1971,-0.2121,-0.2221,-0.2371,-0.2422,-0.232,-0.1916,-0.232,-0.2826,-0.2826,-0.2826,-0.2775,-0.2623,-0.2623,-0.2573,-0.2422,-0.2422,-0.2371,-0.2221,-0.1968,-0.1715,-0.1463,-0.1564,-0.1513,-0.1263,-0.1566,-0.1768,-0.1617,-0.1617,-0.1415,-0.1061,-0.101,-0.0858,-0.0454,-0.0706,-0.1059,-0.1413,-0.207,-0.2119,-0.1462,-0.2267,-0.2671,-0.2671,-0.2922,-0.3224,0.7231,0.6976,0.6898,0.7044,0.7095,0.0,0.7095,0.7095,0.7095,0.7095,0.6567,0.0,0.0,0.0,0.0,0.0,0.0,0.0,0.0,0.0,0.0,0.0,0.0,0.0,0.0,0.0,0.0,0.0,0.0,0.3716,0.4364,0.44,0.4722,0.548,0.5502,0.555,0.5532,0.5551,0.5463,0.5266,0.5479,0.5586,0.5584,0.4887,0.4587,0.4489,0.4036,0.353,0.3071,0.2773,0.2421,0.2017,0.2017,0.1814,0.1462,0.1462,0.126,0.0857,0.0151,-0.005,-0.0151,-0.0909,-0.1212,-0.1313,-0.1212,-0.1263,-0.1415,-0.1667,-0.1718,-0.1819,-0.217,-0.217,-0.1866,-0.121,-0.1462,-0.1865,-0.1967,-0.2118,-0.2118,-0.1967,-0.1865,-0.1865,-0.1865,-0.1865,-0.1765,-0.1565,-0.116,-0.0706,-0.0252,-0.0403,-0.0454,-0.0202,-0.0808,-0.1161,-0.1161,-0.1161,-0.0909,-0.0252,-0.0202,0.0101,0.0756,0.0806,0.0555,0.0,-0.101,-0.0908,0.0403,-0.0706,-0.1058,-0.0756,-0.1258,-0.1611,0.8131,0.0,0.7122,0.0,0.7095,0.7095,0.0,0.0,0.7095,0.0,0.0,0.0,0.0,0.0,0.0,0.0,0.0,0.0,0.0,0.0,0.0,0.0,0.0,0.0,0.0,0.0,0.0,0.0,0.5694,0.5615,0.5486,0.559,0.5614,0.5493,0.5635,0.5551,0.5322,0.546,0.5508,0.5461,0.5544,0.5586,0.5584,0.5486,0.5338,0.509,0.4786,0.4485,0.4185,0.3882,0.3731,0.3679,0.3679,0.3225,0.2568,0.2568,0.2116,0.1462,0.1361,0.1311,0.1261,0.0958,0.0353,-0.0151,0.0353,0.0,-0.0556,-0.0606,-0.0606,-0.0758,-0.1515,-0.1212,-0.0656,-0.0555,-0.005,0.0252,-0.0202,-0.0857,-0.1109,-0.0151,0.0202,0.0353,0.0353,0.0353,0.0403,0.0403,0.0504,0.0554,0.0655,0.0605,0.0605,0.0655,0.0554,0.0504,0.0504,0.0504,0.0504,0.0655,0.0655,0.0706,0.0806,0.0806,0.1058,0.1664,0.0857,0.0403,0.0403,0.0202,-0.005,-0.0454,-0.0756,-0.1158,0.7992,0.7488,0.7171,0.0,0.7095,0.7095,0.7095,0.0,0.7095,0.0,0.0,0.0,0.0,0.0,0.0,0.0,0.0,0.0,0.0,0.0,0.0,0.0,0.0,0.0,0.0,0.0,0.0,0.0,0.6171,0.5997,0.5733,0.5737,0.5748,0.5721,0.5773,0.5784,0.5753,0.5804,0.583,0.583,0.5734,0.5756,0.5902,0.5969,0.5782,0.5388,0.4985,0.4836,0.4841,0.4386,0.4336,0.4433,0.4433,0.4131,0.3679,0.3679,0.3377,0.2873,0.2418,0.2266,0.2167,0.1613,0.121,0.0958,0.1159,0.1009,0.0706,0.0706,0.0706,0.0605,0.0101,0.0252,0.0555,0.0858,0.0857,0.0958,0.1664,0.0806,0.005,0.0554,0.0706,0.0806,0.0806,0.0806,0.0806,0.0806,0.1159,0.1462,0.1462,0.1462,0.1462,0.1462,0.1058,0.0806,0.0806,0.0806,0.1008,0.1462,0.1462,0.1664,0.2118,0.2169,0.232,0.2674,0.1462,0.121,0.1967,0.1513,0.131,0.1412,0.1109,0.0605,0.0,0.0,0.7236,0.7125,0.7129,0.7139,0.0,0.0,0.7095,0.0,0.0,0.0,0.0,0.0,0.0,0.0,0.0,0.0,0.0,0.0,0.0,0.0,0.0,0.0,0.0,0.0,0.0,0.0,0.6302,0.6083,0.5822,0.5733,0.5729,0.5858,0.586,0.5904,0.5996,0.6026,0.6053,0.6086,0.59,0.59,0.6089,0.6181,0.6074,0.5708,0.5263,0.5188,0.529,0.479,0.4688,0.4784,0.4784,0.4686,0.4487,0.4487,0.4384,0.4131,0.3525,0.3323,0.3222,0.2519,0.2168,0.2016,0.2168,0.2066,0.1915,0.1915,0.1915,0.1814,0.1412,0.1462,0.1713,0.2116,0.1865,0.1765,0.2674,0.2118,0.1412,0.1412,0.1412,0.1412,0.1412,0.1412,0.1412,0.1412,0.1916,0.232,0.232,0.232,0.232,0.232,0.1765,0.1412,0.1412,0.1412,0.1664,0.2269,0.232,0.2573,0.318,0.318,0.318,0.318,0.2017,0.2017,0.318,0.2573,0.2522,0.2876,0.2623,0.2119,0.0,0.7385,0.0,0.7243,0.719,0.0,0.0,0.0,0.0,0.0,0.0,0.0,0.0,0.0,0.0,0.0,0.0,0.0,0.0,0.0,0.0,0.0,0.0,0.0,0.0,0.0,0.0,0.0,0.652,0.6299,0.6083,0.5822,0.5691,0.5696,0.5696,0.5699,0.5707,0.5858,0.5969,0.6086,0.6086,0.6086,0.6086,0.6092,0.6097,0.6069,0.5999,0.5789,0.5536,0.529,0.5037,0.4784,0.4784,0.4784,0.4784,0.4784,0.4784,0.4734,0.4734,0.4684,0.4634,0.4336,0.3731,0.3225,0.3731,0.3325,0.2719,0.2719,0.2719,0.2568,0.1764,0.2166,0.2719,0.277,0.3126,0.318,0.2269,0.2573,0.3079,0.3079,0.3079,0.3079,0.3079,0.3079,0.3079,0.3079,0.313,0.313,0.313,0.313,0.313,0.313,0.3079,0.3079,0.3079,0.3079,0.3079,0.313,0.313,0.318,0.318,0.318,0.318,0.318,0.313,0.313,0.318,0.318,0.313,0.318,0.2927,0.2472,0.0,0.0,0.0,0.7273,0.7232,0.7193,0.7159,0.7115,0.0,0.0,0.0,0.0,0.0,0.0,0.0,0.0,0.0,0.0,0.0,0.0,0.0,0.0,0.0,0.0,0.0,0.0,0.0,0.0,0.0,0.6482,0.6127,0.5994,0.5866,0.5688,0.5688,0.5688,0.5688,0.5729,0.5817,0.586,0.586,0.586,0.586,0.5934,0.5969,0.598,0.6128,0.6033,0.5738,0.5363,0.514,0.5037,0.4885,0.4784,0.4784,0.4784,0.4784,0.4784,0.4784,0.4784,0.4784,0.4686,0.4483,0.428,0.4433,0.4332,0.4079,0.4079,0.4079,0.3979,0.3528,0.363,0.378,0.3629,0.3731,0.3682,0.3128,0.313,0.318,0.318,0.318,0.318,0.318,0.318,0.318,0.318,0.318,0.318,0.318,0.318,0.318,0.318,0.318,0.318,0.318,0.318,0.318,0.318,0.318,0.318,0.318,0.318,0.318,0.318,0.318,0.318,0.318,0.318,0.318,0.318,0.3079,0.2692,0.7982,0.0,0.0,0.0,0.7281,0.7262,0.7197,0.0,0.0,0.0,0.0,0.0,0.0,0.0,0.0,0.0,0.0,0.0,0.0,0.0,0.0,0.0,0.0,0.0,0.0,0.0,0.0,0.0,0.0,0.0,0.6213,0.6127,0.5997,0.5688,0.5688,0.5688,0.5688,0.5688,0.5688,0.5688,0.5688,0.5688,0.5691,0.5812,0.5847,0.5858,0.6059,0.6045,0.5881,0.5598,0.5391,0.5288,0.5037,0.4937,0.4937,0.4834,0.4784,0.4784,0.4784,0.4784,0.4784,0.4784,0.4784,0.4784,0.4784,0.4784,0.4784,0.4784,0.4784,0.4734,0.4585,0.4537,0.4487,0.4185,0.4135,0.4034,0.3685,0.3484,0.3331,0.323,0.318,0.318,0.318,0.318,0.318,0.318,0.318,0.318,0.318,0.318,0.318,0.318,0.318,0.318,0.318,0.318,0.318,0.318,0.318,0.318,0.318,0.318,0.318,0.318,0.318,0.3189,0.3211,0.3189,0.318,0.3181,0.3201,0.2839,0.0,0.0,0.0,0.0,0.0,0.0,0.7225,0.0,0.7171,0.0,0.0,0.0,0.0,0.0,0.0,0.0,0.0,0.0,0.0,0.0,0.0,0.0,0.0,0.0,0.0,0.0,0.0,0.0,0.6925,0.6704,0.6432,0.6213,0.5952,0.5688,0.5688,0.5688,0.5688,0.5688,0.5688,0.5688,0.5688,0.5688,0.5688,0.5688,0.5688,0.5694,0.5852,0.5897,0.5925,0.5991,0.5837,0.5586,0.5338,0.519,0.519,0.4937,0.4834,0.4834,0.4834,0.4834,0.4834,0.4834,0.4834,0.4834,0.4834,0.4834,0.4834,0.4834,0.4784,0.4784,0.4784,0.4784,0.4736,0.4487,0.4388,0.4288,0.3736,0.3636,0.3534,0.323,0.318,0.318,0.318,0.318,0.318,0.318,0.318,0.318,0.318,0.318,0.318,0.318,0.318,0.318,0.318,0.318,0.3181,0.3183,0.3183,0.3184,0.3185,0.3185,0.3185,0.3185,0.3185,0.3213,0.3324,0.3212,0.3184,0.3187,0.3247,0.2912,0.9036,0.0,0.0,0.0,0.0,0.0,0.7355,0.7308,0.7266,0.0,0.0,0.0,0.0,0.0,0.0,0.0,0.0,0.0,0.0,0.0,0.0,0.0,0.0,0.0,0.0,0.0,0.0,0.0,0.7054,0.683,0.6432,0.6038,0.5777,0.5688,0.5688,0.5688,0.5688,0.5688,0.5688,0.5688,0.5688,0.5688,0.5688,0.5688,0.5688,0.5694,0.5852,0.5944,0.6048,0.5971,0.5919,0.5839,0.5586,0.5486,0.5486,0.5386,0.5386,0.5386,0.5386,0.5386,0.5386,0.5386,0.5386,0.5386,0.5386,0.5236,0.509,0.509,0.4937,0.4784,0.4784,0.4784,0.4784,0.4686,0.4686,0.4585,0.4237,0.4036,0.3732,0.3281,0.318,0.318,0.318,0.318,0.318,0.318,0.318,0.318,0.318,0.318,0.318,0.318,0.318,0.318,0.318,0.318,0.3199,0.3293,0.3296,0.3316,0.336,0.3362,0.3362,0.3362,0.3362,0.3371,0.3387,0.3326,0.3319,0.3364,0.321,0.3036,0.0,0.9566,0.0,0.0,0.0,0.0,0.7865,0.7579,0.7261,0.0,0.0,0.0,0.0,0.0,0.0,0.0,0.0,0.0,0.0,0.0,0.0,0.0,0.0,0.0,0.0,0.7095,0.7095,0.7095,0.7095,0.6874,0.6432,0.5952,0.5688,0.5688,0.5688,0.5688,0.5688,0.5688,0.5688,0.5688,0.5688,0.5688,0.5688,0.5688,0.5688,0.5694,0.5803,0.5928,0.6092,0.6016,0.6043,0.6139,0.5889,0.5789,0.5737,0.5636,0.5586,0.5586,0.5586,0.5586,0.5586,0.5586,0.5586,0.5586,0.5586,0.5486,0.5388,0.5388,0.5236,0.5135,0.5135,0.5135,0.5135,0.5135,0.5135,0.5035,0.4788,0.4587,0.4286,0.3533,0.3281,0.318,0.318,0.318,0.318,0.318,0.318,0.318,0.318,0.318,0.318,0.318,0.318,0.318,0.318,0.3203,0.3232,0.3319,0.3345,0.3375,0.3412,0.3413,0.3413,0.3413,0.3413,0.3424,0.3447,0.3388,0.339,0.3448,0.3319,0.3184,0.0,0.0,0.0,0.0,0.9372,0.0,0.8667,0.811,0.7514,0.731,0.0,0.0,0.0,0.0,0.0,0.0,0.0,0.0,0.0,0.0,0.0,0.0,0.0,0.0,0.7095,0.7095,0.7095,0.7095,0.7051,0.683,0.6432,0.5952,0.5688,0.5688,0.5688,0.5688,0.5688,0.5688,0.5688,0.5688,0.5688,0.5688,0.5688,0.5688,0.5688,0.5688,0.5688,0.5866,0.6086,0.6086,0.6225,0.6387,0.6139,0.6042,0.5992,0.5787,0.5687,0.5687,0.5687,0.5687,0.5687,0.5687,0.5687,0.5687,0.5687,0.5684,0.5636,0.5586,0.5586,0.5586,0.5586,0.5586,0.5586,0.5586,0.5586,0.5536,0.529,0.524,0.4941,0.3987,0.3533,0.3331,0.323,0.323,0.323,0.318,0.318,0.318,0.318,0.318,0.318,0.318,0.3187,0.3189,0.3189,0.3296,0.3334,0.3341,0.3391,0.3425,0.3431,0.3432,0.3432,0.3432,0.3432,0.3456,0.3506,0.3456,0.3458,0.3506,0.3506,0.3369,0.0,0.0,0.0,0.0,0.0,0.0,0.9627,0.9494,0.9184,0.0,0.0,0.0,0.0,0.0,0.0,0.0,0.0,0.0,0.0,0.0,0.0,0.0,0.0,0.0,0.7095,0.7095,0.7095,0.7095,0.6741,0.652,0.6384,0.5952,0.5688,0.5688,0.5688,0.5688,0.5688,0.5688,0.5688,0.5688,0.5688,0.5688,0.5688,0.5688,0.5688,0.5688,0.5688,0.5866,0.6086,0.6086,0.6225,0.6387,0.6337,0.6337,0.6337,0.6287,0.6237,0.6237,0.6237,0.6237,0.6237,0.6237,0.6237,0.6237,0.6237,0.6089,0.5889,0.5636,0.5586,0.5586,0.5586,0.5586,0.5586,0.5586,0.5586,0.5584,0.5536,0.5338,0.514,0.4939,0.4489,0.4036,0.3584,0.3534,0.3433,0.323,0.318,0.318,0.318,0.318,0.318,0.318,0.3223,0.3304,0.3304,0.336,0.3414,0.3459,0.3473,0.3501,0.355,0.3553,0.3553,0.3553,0.3553,0.3559,0.357,0.3559,0.3559,0.357,0.357,0.3576,0.0,0.0,0.0,1.1335,0.0,0.0,0.0,1.0149,0.9712,0.9225,0.0,0.0,0.0,0.0,0.0,0.0,0.0,0.0,0.0,0.0,0.0,0.0,0.0,0.0,0.7095,0.7095,0.7095,0.7095,0.6789,0.6523,0.6384,0.6083,0.5822,0.5688,0.5688,0.5688,0.5688,0.5688,0.5688,0.5688,0.5688,0.5688,0.5688,0.5688,0.5688,0.5688,0.5688,0.5833,0.5999,0.6062,0.6192,0.6358,0.6365,0.6387,0.6387,0.6387,0.6387,0.6387,0.6387,0.6387,0.6387,0.6387,0.6387,0.6387,0.6387,0.6287,0.6189,0.6037,0.5987,0.5987,0.5987,0.5987,0.5987,0.5987,0.5987,0.5987,0.5987,0.5887,0.5739,0.5641,0.5391,0.4939,0.4137,0.3885,0.3684,0.3432,0.3281,0.318,0.318,0.318,0.3192,0.3221,0.3304,0.3334,0.3364,0.3421,0.3466,0.3495,0.3525,0.3555,0.3586,0.3587,0.3587,0.3587,0.3587,0.3587,0.3587,0.3587,0.3587,0.3587,0.3587,0.3587,0.0,0.0,0.0,0.0,0.0,1.1224,0.0,0.0,0.0,0.0,0.0,0.0,0.0,0.0,0.0,0.0,0.0,0.0,0.0,0.0,0.0,0.0,0.0,0.0,0.0,0.7011,0.7034,0.7092,0.6872,0.6602,0.6425,0.6213,0.5997,0.5688,0.5688,0.5688,0.5688,0.5688,0.5688,0.5688,0.5688,0.5688,0.5688,0.5688,0.5688,0.5688,0.5688,0.5798,0.5909,0.601,0.6138,0.6328,0.6393,0.6387,0.6387,0.6387,0.6387,0.6387,0.6387,0.6387,0.6387,0.6387,0.6387,0.6387,0.6387,0.6387,0.6387,0.6387,0.6387,0.6387,0.6387,0.6387,0.6387,0.6387,0.6387,0.6387,0.6387,0.6387,0.6337,0.6139,0.6092,0.5739,0.474,0.4386,0.4135,0.3885,0.3583,0.3432,0.3381,0.3391,0.3369,0.3316,0.3394,0.3429,0.3424,0.3481,0.3514,0.3514,0.356,0.3587,0.3587,0.3587,0.3587,0.3587,0.3587,0.3587,0.3587,0.3587,0.3587,0.3587,0.3587,0.3587,0.0,0.0,0.0,0.0,1.1882,0.0,0.0,0.0,1.102,1.0278,0.0,0.0,0.0,0.0,0.0,0.0,0.0,0.0,0.0,0.0,0.0,0.0,0.0,0.0,0.0,0.6749,0.6858,0.7078,0.6645,0.6357,0.6416,0.6213,0.5997,0.5688,0.5688,0.5688,0.5688,0.5688,0.5688,0.5688,0.5688,0.5688,0.5688,0.5688,0.5688,0.5688,0.5688,0.5798,0.5904,0.5918,0.6062,0.6328,0.6393,0.6387,0.6387,0.6387,0.6387,0.6387,0.6387,0.6387,0.6387,0.6387,0.6387,0.6387,0.6387,0.6387,0.6387,0.6387,0.6387,0.6387,0.6387,0.6387,0.6387,0.6387,0.6387,0.6387,0.6387,0.6387,0.6387,0.6337,0.6337,0.6087,0.524,0.509,0.4987,0.4686,0.4437,0.4187,0.3932,0.399,0.388,0.3372,0.3629,0.3752,0.3486,0.3542,0.3576,0.3576,0.3583,0.3587,0.3587,0.3587,0.3587,0.3587,0.3587,0.3587,0.3587,0.3587,0.3587,0.3587,0.3587,0.3587,0.0,0.0,0.0,0.0,0.0,0.0,1.1495,0.0,1.1286,0.0,0.0,0.0,0.0,0.0,0.0,0.0,0.993,0.0,0.0,0.0,0.0,0.0,0.0,0.0,0.0,0.0,0.0,0.0,0.674,0.6492,0.6416,0.6299,0.6083,0.5733,0.5688,0.5688,0.5688,0.5688,0.5688,0.5688,0.5688,0.5688,0.5688,0.5688,0.5688,0.5688,0.5688,0.5715,0.5809,0.5877,0.5964,0.607,0.6187,0.6314,0.6387,0.6387,0.6387,0.6387,0.6387,0.6387,0.6387,0.6387,0.6387,0.6387,0.6387,0.6387,0.6387,0.6387,0.6387,0.6387,0.6387,0.6387,0.6387,0.6387,0.6387,0.6387,0.6387,0.6387,0.6387,0.6387,0.6387,0.6287,0.5937,0.5639,0.5338,0.5087,0.4786,0.4603,0.4602,0.4484,0.4386,0.4214,0.4172,0.4171,0.4098,0.4128,0.4035,0.3868,0.3699,0.3643,0.3813,0.3699,0.3699,0.3813,0.3699,0.3587,0.3587,0.3587,0.3587,0.3587,0.3587,0.3587,1.1536,0.0,0.0,0.0,0.0,0.0,0.0,0.0,0.0,0.0,0.0,0.0,0.0,0.0,0.0,0.0,0.0,1.0131,0.0,0.0,0.0,0.0,0.0,0.0,0.0,0.0,0.0,0.0,0.0,0.6579,0.6502,0.652,0.6302,0.5822,0.5822,0.5777,0.5688,0.5688,0.5688,0.5688,0.5688,0.5688,0.5688,0.5688,0.5688,0.5688,0.5688,0.5688,0.5696,0.5822,0.5874,0.5912,0.6002,0.6159,0.6344,0.6377,0.636,0.6387,0.6387,0.6387,0.6387,0.6387,0.6387,0.6387,0.6387,0.6387,0.6387,0.6387,0.6387,0.6387,0.6387,0.6387,0.6387,0.6387,0.6387,0.6387,0.6387,0.6387,0.6387,0.6387,0.6387,0.6387,0.6387,0.6087,0.5737,0.5539,0.531,0.5203,0.5221,0.5118,0.4988,0.4953,0.4771,0.4645,0.4589,0.4536,0.4369,0.4148,0.3979,0.3923,0.4148,0.3923,0.3923,0.4148,0.3923,0.3811,0.3699,0.3699,0.3699,0.3587,0.3587,0.3587,0.0,0.0,0.0,1.1223,0.0,0.0,0.0,0.0,1.062,0.0,0.0,0.0,0.0,0.0,0.0,0.0,0.0,0.0,0.0,0.0,0.0,0.0,0.0,0.0,0.0,0.0,0.0,0.0,0.0,0.0,0.6763,0.6795,0.6571,0.6083,0.6083,0.5952,0.5688,0.5688,0.5688,0.5688,0.5688,0.5688,0.5688,0.5688,0.5688,0.5688,0.5688,0.5688,0.5688,0.5694,0.5803,0.5904,0.5907,0.5986,0.6111,0.6279,0.6342,0.6387,0.6387,0.6387,0.6387,0.6387,0.6387,0.6387,0.6387,0.6387,0.6387,0.6387,0.6387,0.6387,0.6387,0.6387,0.6387,0.6387,0.6387,0.6387,0.6387,0.6387,0.6387,0.6387,0.6387,0.6387,0.6387,0.6387,0.6387,0.6387,0.6235,0.6053,0.5796,0.5924,0.5832,0.5343,0.5314,0.5258,0.4929,0.4648,0.448,0.4479,0.4479,0.4479,0.4479,0.4479,0.4479,0.4479,0.4479,0.4314,0.398,0.398,0.3868,0.3587,0.3587,0.3587,0.0,0.0,1.2645,1.155,0.0,0.0,0.0,0.0,0.0,0.0,0.0,0.0,0.0,0.0,0.0,0.0,0.0,0.0,0.0,0.0,0.0,0.0,0.0,0.0,0.0,0.0,0.0,0.0,0.0,0.0,0.0,0.7098,0.6922,0.6127,0.6387,0.6302,0.5688,0.5688,0.5688,0.5688,0.5688,0.5688,0.5688,0.5688,0.5688,0.5688,0.5688,0.5688,0.5688,0.5688,0.5712,0.5748,0.5748,0.586,0.5991,0.6195,0.6293,0.6336,0.6363,0.6387,0.6387,0.6387,0.6387,0.6387,0.6387,0.6387,0.6387,0.6387,0.6387,0.6387,0.6387,0.6387,0.6387,0.6387,0.6387,0.6387,0.6387,0.6387,0.6387,0.6387,0.6387,0.6387,0.6387,0.6387,0.6387,0.6387,0.6441,0.6442,0.6469,0.6399,0.6354,0.626,0.6082,0.588,0.5543,0.5041,0.4761,0.4761,0.4592,0.4592,0.4761,0.4592,0.4592,0.4761,0.4592,0.4424,0.4313,0.4313,0.4147,0.3868,0.3868,0.3757,1.2679,1.2913,0.0,1.1984,1.2017,0.0,1.1089,0.0,0.0,0.0,0.0,0.0,0.0,0.0,0.0,0.0,0.0,0.0,0.0,1.0593,0.0,0.0,0.0,0.0,0.0,0.0,0.0,0.0,0.0,0.0,0.0,0.0,0.7489,0.6962,0.7268,0.7003,0.6083,0.6083,0.6083,0.6083,0.6083,0.6083,0.6083,0.6346,0.6171,0.5733,0.5994,0.6083,0.6083,0.5819,0.5863,0.6083,0.6083,0.5997,0.5871,0.6113,0.6255,0.6339,0.6363,0.6387,0.6387,0.6387,0.6387,0.6387,0.6387,0.6387,0.6387,0.6387,0.6387,0.6387,0.6387,0.6387,0.6387,0.6387,0.6387,0.6387,0.6387,0.6387,0.6387,0.6387,0.6387,0.6387,0.6387,0.6387,0.6387,0.6387,0.6578,0.6714,0.6793,0.6778,0.6796,0.6871,0.6604,0.6328,0.5991,0.5489,0.5208,0.5208,0.4985,0.4873,0.5098,0.4929,0.4873,0.5098,0.4929,0.4761,0.4648,0.4648,0.448,0.4203,0.4203,0.4091]}]]